<?xml version="1.0" encoding="UTF-8" standalone="no"?>
<gpx version="1.1" creator="arnoldrimtrail.org" xmlns="http://www.topografix.com/GPX/1/1" xmlns:xsi="http://www.w3.org/2001/XMLSchema-instance" xmlns:gpxtpx="http://www.garmin.com/xmlschemas/TrackPointExtension/v1" xsi:schemaLocation="http://www.topografix.com/GPX/1/1 http://www.topografix.com/GPX/1/1/gpx.xsd http://www.garmin.com/xmlschemas/TrackPointExtension/v1 http://www.garmin.com/xmlschemas/TrackPointExtensionv1.xsd">
<metadata>
<name>Run the Rim 22-mile &quot;classic&quot; ARTA Route</name>
<link href="https://www.arnoldrimtrail.org/runtherim/">
<text>ARTA</text>
</link>
</metadata>
<wpt lat="38.196565" lon="-120.399725">
<name>Lost Souls Aid Station (4N41Y)</name>
</wpt>
<wpt lat="38.232987" lon="-120.387895">
<name>Cougar Rock Aid Station</name>
</wpt>
<wpt lat="38.183933" lon="-120.377717">
<name>Helispot Aid Station</name>
</wpt>
<wpt lat="38.207791" lon="-120.389462">
<name>Dusty Corners Aid Station (#36)</name>
</wpt>
<wpt lat="38.258053" lon="-120.369333">
</wpt>
<wpt lat="38.266378" lon="-120.342932">
</wpt>
<wpt lat="38.185706" lon="-120.411083">
<name>START</name>
</wpt>
<trk>
<name>
Run the Rim 22-mile &quot;classic&quot;
</name>
<link href="https://www.arnoldrimtrail.org/runtherim/">
</link>
<trkseg>
<trkpt lat="38.18574" lon="-120.41106">
<ele>1002.1</ele>
<time>2026-04-22T08:46:22-07:00</time>
</trkpt>
<trkpt lat="38.18551" lon="-120.4106">
<ele>1001.3</ele>
<time>2026-04-22T08:46:23-07:00</time>
</trkpt>
<trkpt lat="38.18545" lon="-120.41054">
<ele>999.1</ele>
<time>2026-04-22T08:46:24-07:00</time>
</trkpt>
<trkpt lat="38.18531" lon="-120.4103">
<ele>998.5</ele>
<time>2026-04-22T08:46:25-07:00</time>
</trkpt>
<trkpt lat="38.18526" lon="-120.41015">
<ele>996.6</ele>
<time>2026-04-22T08:46:26-07:00</time>
</trkpt>
<trkpt lat="38.18527" lon="-120.41001">
<ele>996.1</ele>
<time>2026-04-22T08:46:27-07:00</time>
</trkpt>
<trkpt lat="38.18533" lon="-120.40975">
<ele>992.8</ele>
<time>2026-04-22T08:46:28-07:00</time>
</trkpt>
<trkpt lat="38.18531" lon="-120.40927">
<ele>987.8</ele>
<time>2026-04-22T08:46:29-07:00</time>
</trkpt>
<trkpt lat="38.18533" lon="-120.40904">
<ele>983.9</ele>
<time>2026-04-22T08:46:30-07:00</time>
</trkpt>
<trkpt lat="38.18538" lon="-120.40889">
<ele>984.6</ele>
<time>2026-04-22T08:46:31-07:00</time>
</trkpt>
<trkpt lat="38.18545" lon="-120.40876">
<ele>980.8</ele>
<time>2026-04-22T08:46:32-07:00</time>
</trkpt>
<trkpt lat="38.18557" lon="-120.40865">
<ele>979.2</ele>
<time>2026-04-22T08:46:33-07:00</time>
</trkpt>
<trkpt lat="38.18576" lon="-120.40842">
<ele>973.1</ele>
<time>2026-04-22T08:46:34-07:00</time>
</trkpt>
<trkpt lat="38.18585" lon="-120.40836">
<ele>973</ele>
<time>2026-04-22T08:46:35-07:00</time>
</trkpt>
<trkpt lat="38.18601" lon="-120.40836">
<ele>971.9</ele>
<time>2026-04-22T08:46:36-07:00</time>
</trkpt>
<trkpt lat="38.18616" lon="-120.40842">
<ele>967.3</ele>
<time>2026-04-22T08:46:37-07:00</time>
</trkpt>
<trkpt lat="38.18636" lon="-120.40854">
<ele>967.4</ele>
<time>2026-04-22T08:46:38-07:00</time>
</trkpt>
<trkpt lat="38.18641" lon="-120.40854">
<ele>963.8</ele>
<time>2026-04-22T08:46:39-07:00</time>
</trkpt>
<trkpt lat="38.18648" lon="-120.4085">
<ele>962.6</ele>
<time>2026-04-22T08:46:40-07:00</time>
</trkpt>
<trkpt lat="38.18652" lon="-120.40845">
<ele>963.8</ele>
<time>2026-04-22T08:46:41-07:00</time>
</trkpt>
<trkpt lat="38.18658" lon="-120.40833">
<ele>963.4</ele>
<time>2026-04-22T08:46:42-07:00</time>
</trkpt>
<trkpt lat="38.18658" lon="-120.40824">
<ele>963.9</ele>
<time>2026-04-22T08:46:43-07:00</time>
</trkpt>
<trkpt lat="38.18656" lon="-120.40818">
<ele>960.5</ele>
<time>2026-04-22T08:46:44-07:00</time>
</trkpt>
<trkpt lat="38.18634" lon="-120.40788">
<ele>956</ele>
<time>2026-04-22T08:46:45-07:00</time>
</trkpt>
<trkpt lat="38.18625" lon="-120.40752">
<ele>950.8</ele>
<time>2026-04-22T08:46:46-07:00</time>
</trkpt>
<trkpt lat="38.18625" lon="-120.40734">
<ele>949</ele>
<time>2026-04-22T08:46:47-07:00</time>
</trkpt>
<trkpt lat="38.18623" lon="-120.40726">
<ele>948.2</ele>
<time>2026-04-22T08:46:48-07:00</time>
</trkpt>
<trkpt lat="38.18616" lon="-120.40717">
<ele>946.4</ele>
<time>2026-04-22T08:46:49-07:00</time>
</trkpt>
<trkpt lat="38.18593" lon="-120.40697">
<ele>942.4</ele>
<time>2026-04-22T08:46:50-07:00</time>
</trkpt>
<trkpt lat="38.18573" lon="-120.40694">
<ele>937.5</ele>
<time>2026-04-22T08:46:51-07:00</time>
</trkpt>
<trkpt lat="38.18559" lon="-120.40687">
<ele>934.7</ele>
<time>2026-04-22T08:46:52-07:00</time>
</trkpt>
<trkpt lat="38.18549" lon="-120.40679">
<ele>932.2</ele>
<time>2026-04-22T08:46:53-07:00</time>
</trkpt>
<trkpt lat="38.18542" lon="-120.4067">
<ele>929.2</ele>
<time>2026-04-22T08:46:54-07:00</time>
</trkpt>
<trkpt lat="38.18538" lon="-120.40646">
<ele>927.7</ele>
<time>2026-04-22T08:46:55-07:00</time>
</trkpt>
<trkpt lat="38.1853" lon="-120.40624">
<ele>922</ele>
<time>2026-04-22T08:46:56-07:00</time>
</trkpt>
<trkpt lat="38.18526" lon="-120.40591">
<ele>915.4</ele>
<time>2026-04-22T08:46:57-07:00</time>
</trkpt>
<trkpt lat="38.18518" lon="-120.40567">
<ele>910.5</ele>
<time>2026-04-22T08:46:58-07:00</time>
</trkpt>
<trkpt lat="38.18507" lon="-120.40544">
<ele>908.7</ele>
<time>2026-04-22T08:46:59-07:00</time>
</trkpt>
<trkpt lat="38.18491" lon="-120.40521">
<ele>905.8</ele>
<time>2026-04-22T08:47:00-07:00</time>
</trkpt>
<trkpt lat="38.18483" lon="-120.40503">
<ele>901.5</ele>
<time>2026-04-22T08:47:01-07:00</time>
</trkpt>
<trkpt lat="38.18481" lon="-120.40493">
<ele>900</ele>
<time>2026-04-22T08:47:02-07:00</time>
</trkpt>
<trkpt lat="38.18482" lon="-120.40479">
<ele>899.2</ele>
<time>2026-04-22T08:47:03-07:00</time>
</trkpt>
<trkpt lat="38.18481" lon="-120.40452">
<ele>892.3</ele>
<time>2026-04-22T08:47:04-07:00</time>
</trkpt>
<trkpt lat="38.18486" lon="-120.40447">
<ele>893.3</ele>
<time>2026-04-22T08:47:05-07:00</time>
</trkpt>
<trkpt lat="38.18498" lon="-120.40446">
<ele>893.3</ele>
<time>2026-04-22T08:47:06-07:00</time>
</trkpt>
<trkpt lat="38.18509" lon="-120.40448">
<ele>892.2</ele>
<time>2026-04-22T08:47:07-07:00</time>
</trkpt>
<trkpt lat="38.18531" lon="-120.40441">
<ele>885.9</ele>
<time>2026-04-22T08:47:08-07:00</time>
</trkpt>
<trkpt lat="38.18545" lon="-120.40442">
<ele>883.5</ele>
<time>2026-04-22T08:47:09-07:00</time>
</trkpt>
<trkpt lat="38.18551" lon="-120.40445">
<ele>885.6</ele>
<time>2026-04-22T08:47:10-07:00</time>
</trkpt>
<trkpt lat="38.1856" lon="-120.40446">
<ele>881.8</ele>
<time>2026-04-22T08:47:11-07:00</time>
</trkpt>
<trkpt lat="38.18571" lon="-120.40452">
<ele>877.2</ele>
<time>2026-04-22T08:47:12-07:00</time>
</trkpt>
<trkpt lat="38.18578" lon="-120.40454">
<ele>879.4</ele>
<time>2026-04-22T08:47:13-07:00</time>
</trkpt>
<trkpt lat="38.18591" lon="-120.40453">
<ele>873.4</ele>
<time>2026-04-22T08:47:14-07:00</time>
</trkpt>
<trkpt lat="38.1861" lon="-120.40447">
<ele>871</ele>
<time>2026-04-22T08:47:15-07:00</time>
</trkpt>
<trkpt lat="38.18625" lon="-120.4045">
<ele>864.1</ele>
<time>2026-04-22T08:47:16-07:00</time>
</trkpt>
<trkpt lat="38.18645" lon="-120.40461">
<ele>861</ele>
<time>2026-04-22T08:47:17-07:00</time>
</trkpt>
<trkpt lat="38.18652" lon="-120.40461">
<ele>861.7</ele>
<time>2026-04-22T08:47:18-07:00</time>
</trkpt>
<trkpt lat="38.18659" lon="-120.40458">
<ele>861.9</ele>
<time>2026-04-22T08:47:19-07:00</time>
</trkpt>
<trkpt lat="38.1867" lon="-120.40456">
<ele>860.4</ele>
<time>2026-04-22T08:47:20-07:00</time>
</trkpt>
<trkpt lat="38.18687" lon="-120.40459">
<ele>856.2</ele>
<time>2026-04-22T08:47:21-07:00</time>
</trkpt>
<trkpt lat="38.1871" lon="-120.40445">
<ele>854.5</ele>
<time>2026-04-22T08:47:22-07:00</time>
</trkpt>
<trkpt lat="38.1871" lon="-120.40439">
<ele>852.4</ele>
<time>2026-04-22T08:47:23-07:00</time>
</trkpt>
<trkpt lat="38.18703" lon="-120.40427">
<ele>850.3</ele>
<time>2026-04-22T08:47:24-07:00</time>
</trkpt>
<trkpt lat="38.18701" lon="-120.40419">
<ele>848.2</ele>
<time>2026-04-22T08:47:25-07:00</time>
</trkpt>
<trkpt lat="38.18692" lon="-120.40413">
<ele>846.2</ele>
<time>2026-04-22T08:47:26-07:00</time>
</trkpt>
<trkpt lat="38.1869" lon="-120.40409">
<ele>846.2</ele>
<time>2026-04-22T08:47:27-07:00</time>
</trkpt>
<trkpt lat="38.18692" lon="-120.40406">
<ele>845.1</ele>
<time>2026-04-22T08:47:28-07:00</time>
</trkpt>
<trkpt lat="38.18701" lon="-120.404">
<ele>845.8</ele>
<time>2026-04-22T08:47:29-07:00</time>
</trkpt>
<trkpt lat="38.18709" lon="-120.40399">
<ele>845.8</ele>
<time>2026-04-22T08:47:30-07:00</time>
</trkpt>
<trkpt lat="38.18723" lon="-120.40406">
<ele>841</ele>
<time>2026-04-22T08:47:31-07:00</time>
</trkpt>
<trkpt lat="38.18722" lon="-120.40401">
<ele>842</ele>
<time>2026-04-22T08:47:32-07:00</time>
</trkpt>
<trkpt lat="38.18718" lon="-120.40397">
<ele>839.5</ele>
<time>2026-04-22T08:47:33-07:00</time>
</trkpt>
<trkpt lat="38.1871" lon="-120.40381">
<ele>839.1</ele>
<time>2026-04-22T08:47:34-07:00</time>
</trkpt>
<trkpt lat="38.18701" lon="-120.40378">
<ele>836.1</ele>
<time>2026-04-22T08:47:35-07:00</time>
</trkpt>
<trkpt lat="38.18674" lon="-120.4038">
<ele>835.6</ele>
<time>2026-04-22T08:47:36-07:00</time>
</trkpt>
<trkpt lat="38.18651" lon="-120.40372">
<ele>832.9</ele>
<time>2026-04-22T08:47:37-07:00</time>
</trkpt>
<trkpt lat="38.1862" lon="-120.40343">
<ele>827.5</ele>
<time>2026-04-22T08:47:38-07:00</time>
</trkpt>
<trkpt lat="38.18587" lon="-120.4034">
<ele>821.2</ele>
<time>2026-04-22T08:47:39-07:00</time>
</trkpt>
<trkpt lat="38.18578" lon="-120.40335">
<ele>821.4</ele>
<time>2026-04-22T08:47:40-07:00</time>
</trkpt>
<trkpt lat="38.18575" lon="-120.40327">
<ele>818.4</ele>
<time>2026-04-22T08:47:41-07:00</time>
</trkpt>
<trkpt lat="38.18553" lon="-120.40311">
<ele>817.2</ele>
<time>2026-04-22T08:47:42-07:00</time>
</trkpt>
<trkpt lat="38.18537" lon="-120.40278">
<ele>818.4</ele>
<time>2026-04-22T08:47:43-07:00</time>
</trkpt>
<trkpt lat="38.18507" lon="-120.40246">
<ele>815.8</ele>
<time>2026-04-22T08:47:44-07:00</time>
</trkpt>
<trkpt lat="38.1849" lon="-120.40222">
<ele>812</ele>
<time>2026-04-22T08:47:45-07:00</time>
</trkpt>
<trkpt lat="38.18473" lon="-120.40192">
<ele>807</ele>
<time>2026-04-22T08:47:46-07:00</time>
</trkpt>
<trkpt lat="38.18471" lon="-120.40182">
<ele>806.3</ele>
<time>2026-04-22T08:47:47-07:00</time>
</trkpt>
<trkpt lat="38.18461" lon="-120.40159">
<ele>802.1</ele>
<time>2026-04-22T08:47:48-07:00</time>
</trkpt>
<trkpt lat="38.18453" lon="-120.40146">
<ele>797.1</ele>
<time>2026-04-22T08:47:49-07:00</time>
</trkpt>
<trkpt lat="38.18419" lon="-120.40141">
<ele>797.1</ele>
<time>2026-04-22T08:47:50-07:00</time>
</trkpt>
<trkpt lat="38.18386" lon="-120.40142">
<ele>794.2</ele>
<time>2026-04-22T08:47:51-07:00</time>
</trkpt>
<trkpt lat="38.18374" lon="-120.40145">
<ele>793</ele>
<time>2026-04-22T08:47:52-07:00</time>
</trkpt>
<trkpt lat="38.18352" lon="-120.40168">
<ele>794.9</ele>
<time>2026-04-22T08:47:53-07:00</time>
</trkpt>
<trkpt lat="38.18331" lon="-120.402">
<ele>791.3</ele>
<time>2026-04-22T08:47:54-07:00</time>
</trkpt>
<trkpt lat="38.18289" lon="-120.40278">
<ele>790.9</ele>
<time>2026-04-22T08:47:55-07:00</time>
</trkpt>
<trkpt lat="38.18273" lon="-120.40304">
<ele>788</ele>
<time>2026-04-22T08:47:56-07:00</time>
</trkpt>
<trkpt lat="38.18248" lon="-120.40324">
<ele>781.6</ele>
<time>2026-04-22T08:47:57-07:00</time>
</trkpt>
<trkpt lat="38.18237" lon="-120.40355">
<ele>779.3</ele>
<time>2026-04-22T08:47:58-07:00</time>
</trkpt>
<trkpt lat="38.18233" lon="-120.40355">
<ele>779.3</ele>
<time>2026-04-22T08:47:59-07:00</time>
</trkpt>
<trkpt lat="38.18231" lon="-120.4035">
<ele>781</ele>
<time>2026-04-22T08:48:00-07:00</time>
</trkpt>
<trkpt lat="38.1823" lon="-120.40337">
<ele>781.9</ele>
<time>2026-04-22T08:48:01-07:00</time>
</trkpt>
<trkpt lat="38.18227" lon="-120.40326">
<ele>783</ele>
<time>2026-04-22T08:48:02-07:00</time>
</trkpt>
<trkpt lat="38.18219" lon="-120.40348">
<ele>788.1</ele>
<time>2026-04-22T08:48:03-07:00</time>
</trkpt>
<trkpt lat="38.18222" lon="-120.40424">
<ele>792.2</ele>
<time>2026-04-22T08:48:04-07:00</time>
</trkpt>
<trkpt lat="38.18219" lon="-120.40433">
<ele>791.6</ele>
<time>2026-04-22T08:48:05-07:00</time>
</trkpt>
<trkpt lat="38.18213" lon="-120.40441">
<ele>789.4</ele>
<time>2026-04-22T08:48:06-07:00</time>
</trkpt>
<trkpt lat="38.18209" lon="-120.40461">
<ele>795.4</ele>
<time>2026-04-22T08:48:07-07:00</time>
</trkpt>
<trkpt lat="38.18195" lon="-120.40491">
<ele>792.8</ele>
<time>2026-04-22T08:48:08-07:00</time>
</trkpt>
<trkpt lat="38.18186" lon="-120.40505">
<ele>796</ele>
<time>2026-04-22T08:48:09-07:00</time>
</trkpt>
<trkpt lat="38.18175" lon="-120.40515">
<ele>806.7</ele>
<time>2026-04-22T08:48:10-07:00</time>
</trkpt>
<trkpt lat="38.18159" lon="-120.40543">
<ele>805.2</ele>
<time>2026-04-22T08:48:11-07:00</time>
</trkpt>
<trkpt lat="38.18148" lon="-120.40555">
<ele>816.2</ele>
<time>2026-04-22T08:48:12-07:00</time>
</trkpt>
<trkpt lat="38.18137" lon="-120.40574">
<ele>813.8</ele>
<time>2026-04-22T08:48:13-07:00</time>
</trkpt>
<trkpt lat="38.18131" lon="-120.4058">
<ele>809.9</ele>
<time>2026-04-22T08:48:14-07:00</time>
</trkpt>
<trkpt lat="38.18117" lon="-120.40585">
<ele>813.2</ele>
<time>2026-04-22T08:48:15-07:00</time>
</trkpt>
<trkpt lat="38.18108" lon="-120.40582">
<ele>820.7</ele>
<time>2026-04-22T08:48:16-07:00</time>
</trkpt>
<trkpt lat="38.18118" lon="-120.40573">
<ele>821.8</ele>
<time>2026-04-22T08:48:17-07:00</time>
</trkpt>
<trkpt lat="38.18115" lon="-120.40572">
<ele>821.8</ele>
<time>2026-04-22T08:48:18-07:00</time>
</trkpt>
<trkpt lat="38.18105" lon="-120.40574">
<ele>824.8</ele>
<time>2026-04-22T08:48:19-07:00</time>
</trkpt>
<trkpt lat="38.18106" lon="-120.40568">
<ele>824.8</ele>
<time>2026-04-22T08:48:20-07:00</time>
</trkpt>
<trkpt lat="38.18112" lon="-120.40561">
<ele>827.2</ele>
<time>2026-04-22T08:48:21-07:00</time>
</trkpt>
<trkpt lat="38.18116" lon="-120.40551">
<ele>831</ele>
<time>2026-04-22T08:48:22-07:00</time>
</trkpt>
<trkpt lat="38.18103" lon="-120.40551">
<ele>833.8</ele>
<time>2026-04-22T08:48:23-07:00</time>
</trkpt>
<trkpt lat="38.18088" lon="-120.40543">
<ele>840.8</ele>
<time>2026-04-22T08:48:24-07:00</time>
</trkpt>
<trkpt lat="38.18076" lon="-120.40539">
<ele>841.8</ele>
<time>2026-04-22T08:48:25-07:00</time>
</trkpt>
<trkpt lat="38.18075" lon="-120.40536">
<ele>845.3</ele>
<time>2026-04-22T08:48:26-07:00</time>
</trkpt>
<trkpt lat="38.18079" lon="-120.40532">
<ele>845.3</ele>
<time>2026-04-22T08:48:27-07:00</time>
</trkpt>
<trkpt lat="38.18092" lon="-120.40528">
<ele>845.3</ele>
<time>2026-04-22T08:48:28-07:00</time>
</trkpt>
<trkpt lat="38.18072" lon="-120.40517">
<ele>852.4</ele>
<time>2026-04-22T08:48:29-07:00</time>
</trkpt>
<trkpt lat="38.18061" lon="-120.40504">
<ele>853.3</ele>
<time>2026-04-22T08:48:30-07:00</time>
</trkpt>
<trkpt lat="38.18065" lon="-120.40501">
<ele>855.9</ele>
<time>2026-04-22T08:48:31-07:00</time>
</trkpt>
<trkpt lat="38.18075" lon="-120.40504">
<ele>856.9</ele>
<time>2026-04-22T08:48:32-07:00</time>
</trkpt>
<trkpt lat="38.18086" lon="-120.40503">
<ele>857</ele>
<time>2026-04-22T08:48:33-07:00</time>
</trkpt>
<trkpt lat="38.18101" lon="-120.40492">
<ele>858.7</ele>
<time>2026-04-22T08:48:34-07:00</time>
</trkpt>
<trkpt lat="38.18099" lon="-120.40488">
<ele>861.4</ele>
<time>2026-04-22T08:48:35-07:00</time>
</trkpt>
<trkpt lat="38.18089" lon="-120.40488">
<ele>863.3</ele>
<time>2026-04-22T08:48:36-07:00</time>
</trkpt>
<trkpt lat="38.18083" lon="-120.40484">
<ele>863.5</ele>
<time>2026-04-22T08:48:37-07:00</time>
</trkpt>
<trkpt lat="38.18078" lon="-120.40477">
<ele>866.2</ele>
<time>2026-04-22T08:48:38-07:00</time>
</trkpt>
<trkpt lat="38.18071" lon="-120.40472">
<ele>867.8</ele>
<time>2026-04-22T08:48:39-07:00</time>
</trkpt>
<trkpt lat="38.18057" lon="-120.4045">
<ele>871.4</ele>
<time>2026-04-22T08:48:40-07:00</time>
</trkpt>
<trkpt lat="38.18072" lon="-120.40452">
<ele>872.6</ele>
<time>2026-04-22T08:48:41-07:00</time>
</trkpt>
<trkpt lat="38.18081" lon="-120.40447">
<ele>873.5</ele>
<time>2026-04-22T08:48:42-07:00</time>
</trkpt>
<trkpt lat="38.18092" lon="-120.40435">
<ele>876</ele>
<time>2026-04-22T08:48:43-07:00</time>
</trkpt>
<trkpt lat="38.18092" lon="-120.40432">
<ele>876</ele>
<time>2026-04-22T08:48:44-07:00</time>
</trkpt>
<trkpt lat="38.18087" lon="-120.40423">
<ele>877.5</ele>
<time>2026-04-22T08:48:45-07:00</time>
</trkpt>
<trkpt lat="38.18083" lon="-120.40403">
<ele>880.5</ele>
<time>2026-04-22T08:48:46-07:00</time>
</trkpt>
<trkpt lat="38.18075" lon="-120.40388">
<ele>881.2</ele>
<time>2026-04-22T08:48:47-07:00</time>
</trkpt>
<trkpt lat="38.18076" lon="-120.40378">
<ele>881.2</ele>
<time>2026-04-22T08:48:48-07:00</time>
</trkpt>
<trkpt lat="38.18061" lon="-120.40335">
<ele>884.8</ele>
<time>2026-04-22T08:48:49-07:00</time>
</trkpt>
<trkpt lat="38.18057" lon="-120.40304">
<ele>888</ele>
<time>2026-04-22T08:48:50-07:00</time>
</trkpt>
<trkpt lat="38.18049" lon="-120.40287">
<ele>891.7</ele>
<time>2026-04-22T08:48:51-07:00</time>
</trkpt>
<trkpt lat="38.18041" lon="-120.40276">
<ele>893.4</ele>
<time>2026-04-22T08:48:52-07:00</time>
</trkpt>
<trkpt lat="38.18037" lon="-120.40266">
<ele>892.7</ele>
<time>2026-04-22T08:48:53-07:00</time>
</trkpt>
<trkpt lat="38.1803" lon="-120.40258">
<ele>896.1</ele>
<time>2026-04-22T08:48:54-07:00</time>
</trkpt>
<trkpt lat="38.18028" lon="-120.40257">
<ele>896.1</ele>
<time>2026-04-22T08:48:55-07:00</time>
</trkpt>
<trkpt lat="38.18025" lon="-120.40258">
<ele>895.7</ele>
<time>2026-04-22T08:48:56-07:00</time>
</trkpt>
<trkpt lat="38.18025" lon="-120.40254">
<ele>895.7</ele>
<time>2026-04-22T08:48:57-07:00</time>
</trkpt>
<trkpt lat="38.18037" lon="-120.40245">
<ele>899.1</ele>
<time>2026-04-22T08:48:58-07:00</time>
</trkpt>
<trkpt lat="38.18045" lon="-120.40225">
<ele>903.3</ele>
<time>2026-04-22T08:48:59-07:00</time>
</trkpt>
<trkpt lat="38.18048" lon="-120.40215">
<ele>902.4</ele>
<time>2026-04-22T08:49:00-07:00</time>
</trkpt>
<trkpt lat="38.18047" lon="-120.40198">
<ele>905.3</ele>
<time>2026-04-22T08:49:01-07:00</time>
</trkpt>
<trkpt lat="38.18043" lon="-120.40195">
<ele>909.3</ele>
<time>2026-04-22T08:49:02-07:00</time>
</trkpt>
<trkpt lat="38.18033" lon="-120.40204">
<ele>909.6</ele>
<time>2026-04-22T08:49:03-07:00</time>
</trkpt>
<trkpt lat="38.18024" lon="-120.40206">
<ele>910.4</ele>
<time>2026-04-22T08:49:04-07:00</time>
</trkpt>
<trkpt lat="38.18016" lon="-120.40199">
<ele>913</ele>
<time>2026-04-22T08:49:05-07:00</time>
</trkpt>
<trkpt lat="38.18012" lon="-120.40193">
<ele>915</ele>
<time>2026-04-22T08:49:06-07:00</time>
</trkpt>
<trkpt lat="38.18011" lon="-120.40186">
<ele>915</ele>
<time>2026-04-22T08:49:07-07:00</time>
</trkpt>
<trkpt lat="38.18012" lon="-120.4017">
<ele>917.2</ele>
<time>2026-04-22T08:49:08-07:00</time>
</trkpt>
<trkpt lat="38.18002" lon="-120.40152">
<ele>917.6</ele>
<time>2026-04-22T08:49:09-07:00</time>
</trkpt>
<trkpt lat="38.17998" lon="-120.40138">
<ele>917.4</ele>
<time>2026-04-22T08:49:10-07:00</time>
</trkpt>
<trkpt lat="38.17998" lon="-120.40131">
<ele>917.4</ele>
<time>2026-04-22T08:49:11-07:00</time>
</trkpt>
<trkpt lat="38.18" lon="-120.40125">
<ele>916.2</ele>
<time>2026-04-22T08:49:12-07:00</time>
</trkpt>
<trkpt lat="38.17998" lon="-120.40113">
<ele>917</ele>
<time>2026-04-22T08:49:13-07:00</time>
</trkpt>
<trkpt lat="38.17984" lon="-120.40083">
<ele>919.2</ele>
<time>2026-04-22T08:49:14-07:00</time>
</trkpt>
<trkpt lat="38.17971" lon="-120.4007">
<ele>917.8</ele>
<time>2026-04-22T08:49:15-07:00</time>
</trkpt>
<trkpt lat="38.17957" lon="-120.40052">
<ele>919.6</ele>
<time>2026-04-22T08:49:16-07:00</time>
</trkpt>
<trkpt lat="38.17949" lon="-120.40037">
<ele>922.6</ele>
<time>2026-04-22T08:49:17-07:00</time>
</trkpt>
<trkpt lat="38.17944" lon="-120.40015">
<ele>925.3</ele>
<time>2026-04-22T08:49:18-07:00</time>
</trkpt>
<trkpt lat="38.17942" lon="-120.39994">
<ele>928.2</ele>
<time>2026-04-22T08:49:19-07:00</time>
</trkpt>
<trkpt lat="38.1793" lon="-120.39953">
<ele>935.8</ele>
<time>2026-04-22T08:49:20-07:00</time>
</trkpt>
<trkpt lat="38.17928" lon="-120.39939">
<ele>936.9</ele>
<time>2026-04-22T08:49:21-07:00</time>
</trkpt>
<trkpt lat="38.17918" lon="-120.39909">
<ele>938.2</ele>
<time>2026-04-22T08:49:22-07:00</time>
</trkpt>
<trkpt lat="38.1791" lon="-120.39846">
<ele>939.6</ele>
<time>2026-04-22T08:49:23-07:00</time>
</trkpt>
<trkpt lat="38.17913" lon="-120.39818">
<ele>940.5</ele>
<time>2026-04-22T08:49:24-07:00</time>
</trkpt>
<trkpt lat="38.17909" lon="-120.39793">
<ele>942.8</ele>
<time>2026-04-22T08:49:25-07:00</time>
</trkpt>
<trkpt lat="38.17904" lon="-120.39782">
<ele>945.7</ele>
<time>2026-04-22T08:49:26-07:00</time>
</trkpt>
<trkpt lat="38.17904" lon="-120.39768">
<ele>947.5</ele>
<time>2026-04-22T08:49:27-07:00</time>
</trkpt>
<trkpt lat="38.17909" lon="-120.39754">
<ele>948.4</ele>
<time>2026-04-22T08:49:28-07:00</time>
</trkpt>
<trkpt lat="38.17913" lon="-120.39749">
<ele>950</ele>
<time>2026-04-22T08:49:29-07:00</time>
</trkpt>
<trkpt lat="38.1792" lon="-120.39723">
<ele>952.4</ele>
<time>2026-04-22T08:49:30-07:00</time>
</trkpt>
<trkpt lat="38.17934" lon="-120.39717">
<ele>953.6</ele>
<time>2026-04-22T08:49:31-07:00</time>
</trkpt>
<trkpt lat="38.17948" lon="-120.39701">
<ele>956.2</ele>
<time>2026-04-22T08:49:32-07:00</time>
</trkpt>
<trkpt lat="38.17954" lon="-120.39689">
<ele>957.4</ele>
<time>2026-04-22T08:49:33-07:00</time>
</trkpt>
<trkpt lat="38.17958" lon="-120.39685">
<ele>958.3</ele>
<time>2026-04-22T08:49:34-07:00</time>
</trkpt>
<trkpt lat="38.17962" lon="-120.39684">
<ele>958.3</ele>
<time>2026-04-22T08:49:35-07:00</time>
</trkpt>
<trkpt lat="38.17965" lon="-120.39685">
<ele>957.6</ele>
<time>2026-04-22T08:49:36-07:00</time>
</trkpt>
<trkpt lat="38.17971" lon="-120.39682">
<ele>957.6</ele>
<time>2026-04-22T08:49:37-07:00</time>
</trkpt>
<trkpt lat="38.17978" lon="-120.39674">
<ele>956.8</ele>
<time>2026-04-22T08:49:38-07:00</time>
</trkpt>
<trkpt lat="38.17995" lon="-120.39669">
<ele>954.2</ele>
<time>2026-04-22T08:49:39-07:00</time>
</trkpt>
<trkpt lat="38.18005" lon="-120.39672">
<ele>953.2</ele>
<time>2026-04-22T08:49:40-07:00</time>
</trkpt>
<trkpt lat="38.18028" lon="-120.39692">
<ele>947.6</ele>
<time>2026-04-22T08:49:41-07:00</time>
</trkpt>
<trkpt lat="38.18063" lon="-120.3971">
<ele>943.6</ele>
<time>2026-04-22T08:49:42-07:00</time>
</trkpt>
<trkpt lat="38.18072" lon="-120.39706">
<ele>941.5</ele>
<time>2026-04-22T08:49:43-07:00</time>
</trkpt>
<trkpt lat="38.18074" lon="-120.39699">
<ele>940.7</ele>
<time>2026-04-22T08:49:44-07:00</time>
</trkpt>
<trkpt lat="38.18066" lon="-120.39674">
<ele>933.8</ele>
<time>2026-04-22T08:49:45-07:00</time>
</trkpt>
<trkpt lat="38.18065" lon="-120.39661">
<ele>931.9</ele>
<time>2026-04-22T08:49:46-07:00</time>
</trkpt>
<trkpt lat="38.18068" lon="-120.39657">
<ele>936</ele>
<time>2026-04-22T08:49:47-07:00</time>
</trkpt>
<trkpt lat="38.18072" lon="-120.39655">
<ele>936</ele>
<time>2026-04-22T08:49:48-07:00</time>
</trkpt>
<trkpt lat="38.18076" lon="-120.39656">
<ele>937.8</ele>
<time>2026-04-22T08:49:49-07:00</time>
</trkpt>
<trkpt lat="38.18088" lon="-120.39665">
<ele>936.5</ele>
<time>2026-04-22T08:49:50-07:00</time>
</trkpt>
<trkpt lat="38.18115" lon="-120.39677">
<ele>937.6</ele>
<time>2026-04-22T08:49:51-07:00</time>
</trkpt>
<trkpt lat="38.18121" lon="-120.39679">
<ele>938.3</ele>
<time>2026-04-22T08:49:52-07:00</time>
</trkpt>
<trkpt lat="38.18132" lon="-120.39679">
<ele>938.4</ele>
<time>2026-04-22T08:49:53-07:00</time>
</trkpt>
<trkpt lat="38.18144" lon="-120.39674">
<ele>941.4</ele>
<time>2026-04-22T08:49:54-07:00</time>
</trkpt>
<trkpt lat="38.18148" lon="-120.39669">
<ele>941.4</ele>
<time>2026-04-22T08:49:55-07:00</time>
</trkpt>
<trkpt lat="38.18169" lon="-120.39657">
<ele>945.1</ele>
<time>2026-04-22T08:49:56-07:00</time>
</trkpt>
<trkpt lat="38.18187" lon="-120.39649">
<ele>941.7</ele>
<time>2026-04-22T08:49:57-07:00</time>
</trkpt>
<trkpt lat="38.18193" lon="-120.39649">
<ele>941.7</ele>
<time>2026-04-22T08:49:58-07:00</time>
</trkpt>
<trkpt lat="38.18202" lon="-120.39642">
<ele>940</ele>
<time>2026-04-22T08:49:59-07:00</time>
</trkpt>
<trkpt lat="38.18207" lon="-120.3963">
<ele>936.6</ele>
<time>2026-04-22T08:50:00-07:00</time>
</trkpt>
<trkpt lat="38.18207" lon="-120.39609">
<ele>936.9</ele>
<time>2026-04-22T08:50:01-07:00</time>
</trkpt>
<trkpt lat="38.18211" lon="-120.39592">
<ele>939</ele>
<time>2026-04-22T08:50:02-07:00</time>
</trkpt>
<trkpt lat="38.18219" lon="-120.39586">
<ele>937.1</ele>
<time>2026-04-22T08:50:03-07:00</time>
</trkpt>
<trkpt lat="38.18235" lon="-120.39582">
<ele>936.5</ele>
<time>2026-04-22T08:50:04-07:00</time>
</trkpt>
<trkpt lat="38.18242" lon="-120.39573">
<ele>935.4</ele>
<time>2026-04-22T08:50:05-07:00</time>
</trkpt>
<trkpt lat="38.18253" lon="-120.39547">
<ele>935.4</ele>
<time>2026-04-22T08:50:06-07:00</time>
</trkpt>
<trkpt lat="38.18258" lon="-120.39542">
<ele>938.6</ele>
<time>2026-04-22T08:50:07-07:00</time>
</trkpt>
<trkpt lat="38.18283" lon="-120.39532">
<ele>933.7</ele>
<time>2026-04-22T08:50:08-07:00</time>
</trkpt>
<trkpt lat="38.18294" lon="-120.39522">
<ele>933.4</ele>
<time>2026-04-22T08:50:09-07:00</time>
</trkpt>
<trkpt lat="38.18318" lon="-120.39479">
<ele>929.6</ele>
<time>2026-04-22T08:50:10-07:00</time>
</trkpt>
<trkpt lat="38.18325" lon="-120.39449">
<ele>932.4</ele>
<time>2026-04-22T08:50:11-07:00</time>
</trkpt>
<trkpt lat="38.18324" lon="-120.39429">
<ele>936.4</ele>
<time>2026-04-22T08:50:12-07:00</time>
</trkpt>
<trkpt lat="38.1832" lon="-120.39421">
<ele>935</ele>
<time>2026-04-22T08:50:13-07:00</time>
</trkpt>
<trkpt lat="38.1831" lon="-120.39411">
<ele>937.4</ele>
<time>2026-04-22T08:50:14-07:00</time>
</trkpt>
<trkpt lat="38.18305" lon="-120.39397">
<ele>939.4</ele>
<time>2026-04-22T08:50:15-07:00</time>
</trkpt>
<trkpt lat="38.18305" lon="-120.39384">
<ele>938.8</ele>
<time>2026-04-22T08:50:16-07:00</time>
</trkpt>
<trkpt lat="38.1832" lon="-120.39353">
<ele>927.3</ele>
<time>2026-04-22T08:50:17-07:00</time>
</trkpt>
<trkpt lat="38.18319" lon="-120.39346">
<ele>927.5</ele>
<time>2026-04-22T08:50:18-07:00</time>
</trkpt>
<trkpt lat="38.18323" lon="-120.39326">
<ele>925.4</ele>
<time>2026-04-22T08:50:19-07:00</time>
</trkpt>
<trkpt lat="38.18322" lon="-120.39321">
<ele>922.9</ele>
<time>2026-04-22T08:50:20-07:00</time>
</trkpt>
<trkpt lat="38.18324" lon="-120.39315">
<ele>922.9</ele>
<time>2026-04-22T08:50:21-07:00</time>
</trkpt>
<trkpt lat="38.18322" lon="-120.39305">
<ele>915.4</ele>
<time>2026-04-22T08:50:22-07:00</time>
</trkpt>
<trkpt lat="38.18315" lon="-120.39293">
<ele>912.6</ele>
<time>2026-04-22T08:50:23-07:00</time>
</trkpt>
<trkpt lat="38.18315" lon="-120.39282">
<ele>909.5</ele>
<time>2026-04-22T08:50:24-07:00</time>
</trkpt>
<trkpt lat="38.18338" lon="-120.39258">
<ele>908.9</ele>
<time>2026-04-22T08:50:25-07:00</time>
</trkpt>
<trkpt lat="38.18348" lon="-120.39238">
<ele>910.8</ele>
<time>2026-04-22T08:50:26-07:00</time>
</trkpt>
<trkpt lat="38.18372" lon="-120.39217">
<ele>905.9</ele>
<time>2026-04-22T08:50:27-07:00</time>
</trkpt>
<trkpt lat="38.18383" lon="-120.39201">
<ele>905.8</ele>
<time>2026-04-22T08:50:28-07:00</time>
</trkpt>
<trkpt lat="38.18404" lon="-120.39179">
<ele>900.1</ele>
<time>2026-04-22T08:50:29-07:00</time>
</trkpt>
<trkpt lat="38.18404" lon="-120.3917">
<ele>899.7</ele>
<time>2026-04-22T08:50:30-07:00</time>
</trkpt>
<trkpt lat="38.18399" lon="-120.39161">
<ele>898.8</ele>
<time>2026-04-22T08:50:31-07:00</time>
</trkpt>
<trkpt lat="38.18374" lon="-120.39136">
<ele>894.1</ele>
<time>2026-04-22T08:50:32-07:00</time>
</trkpt>
<trkpt lat="38.18374" lon="-120.39134">
<ele>894.1</ele>
<time>2026-04-22T08:50:33-07:00</time>
</trkpt>
<trkpt lat="38.18376" lon="-120.39133">
<ele>894.1</ele>
<time>2026-04-22T08:50:34-07:00</time>
</trkpt>
<trkpt lat="38.18405" lon="-120.39147">
<ele>891.1</ele>
<time>2026-04-22T08:50:35-07:00</time>
</trkpt>
<trkpt lat="38.18408" lon="-120.39147">
<ele>889.5</ele>
<time>2026-04-22T08:50:36-07:00</time>
</trkpt>
<trkpt lat="38.18389" lon="-120.39131">
<ele>889.4</ele>
<time>2026-04-22T08:50:37-07:00</time>
</trkpt>
<trkpt lat="38.1838" lon="-120.39119">
<ele>883</ele>
<time>2026-04-22T08:50:38-07:00</time>
</trkpt>
<trkpt lat="38.18381" lon="-120.39117">
<ele>883</ele>
<time>2026-04-22T08:50:39-07:00</time>
</trkpt>
<trkpt lat="38.18389" lon="-120.39122">
<ele>884.8</ele>
<time>2026-04-22T08:50:40-07:00</time>
</trkpt>
<trkpt lat="38.18401" lon="-120.39125">
<ele>881.8</ele>
<time>2026-04-22T08:50:41-07:00</time>
</trkpt>
<trkpt lat="38.18401" lon="-120.39123">
<ele>881.8</ele>
<time>2026-04-22T08:50:42-07:00</time>
</trkpt>
<trkpt lat="38.18387" lon="-120.39114">
<ele>883</ele>
<time>2026-04-22T08:50:43-07:00</time>
</trkpt>
<trkpt lat="38.1838" lon="-120.39107">
<ele>878.5</ele>
<time>2026-04-22T08:50:44-07:00</time>
</trkpt>
<trkpt lat="38.18361" lon="-120.39075">
<ele>877.7</ele>
<time>2026-04-22T08:50:45-07:00</time>
</trkpt>
<trkpt lat="38.18354" lon="-120.39058">
<ele>872.7</ele>
<time>2026-04-22T08:50:46-07:00</time>
</trkpt>
<trkpt lat="38.18341" lon="-120.39042">
<ele>873.3</ele>
<time>2026-04-22T08:50:47-07:00</time>
</trkpt>
<trkpt lat="38.1833" lon="-120.39037">
<ele>872.3</ele>
<time>2026-04-22T08:50:48-07:00</time>
</trkpt>
<trkpt lat="38.18313" lon="-120.39037">
<ele>872.7</ele>
<time>2026-04-22T08:50:49-07:00</time>
</trkpt>
<trkpt lat="38.18309" lon="-120.39034">
<ele>872.7</ele>
<time>2026-04-22T08:50:50-07:00</time>
</trkpt>
<trkpt lat="38.18315" lon="-120.39014">
<ele>870</ele>
<time>2026-04-22T08:50:51-07:00</time>
</trkpt>
<trkpt lat="38.1831" lon="-120.39003">
<ele>873.9</ele>
<time>2026-04-22T08:50:52-07:00</time>
</trkpt>
<trkpt lat="38.1831" lon="-120.39">
<ele>872.6</ele>
<time>2026-04-22T08:50:53-07:00</time>
</trkpt>
<trkpt lat="38.18301" lon="-120.38985">
<ele>873.9</ele>
<time>2026-04-22T08:50:54-07:00</time>
</trkpt>
<trkpt lat="38.18298" lon="-120.38977">
<ele>872.2</ele>
<time>2026-04-22T08:50:55-07:00</time>
</trkpt>
<trkpt lat="38.18294" lon="-120.38974">
<ele>875.1</ele>
<time>2026-04-22T08:50:56-07:00</time>
</trkpt>
<trkpt lat="38.18292" lon="-120.38968">
<ele>872.3</ele>
<time>2026-04-22T08:50:57-07:00</time>
</trkpt>
<trkpt lat="38.18316" lon="-120.38912">
<ele>876.1</ele>
<time>2026-04-22T08:50:58-07:00</time>
</trkpt>
<trkpt lat="38.18316" lon="-120.38908">
<ele>876.1</ele>
<time>2026-04-22T08:50:59-07:00</time>
</trkpt>
<trkpt lat="38.18302" lon="-120.38927">
<ele>882.2</ele>
<time>2026-04-22T08:51:00-07:00</time>
</trkpt>
<trkpt lat="38.18292" lon="-120.38937">
<ele>883.4</ele>
<time>2026-04-22T08:51:01-07:00</time>
</trkpt>
<trkpt lat="38.18268" lon="-120.38956">
<ele>889.3</ele>
<time>2026-04-22T08:51:02-07:00</time>
</trkpt>
<trkpt lat="38.1826" lon="-120.38959">
<ele>889.3</ele>
<time>2026-04-22T08:51:03-07:00</time>
</trkpt>
<trkpt lat="38.18262" lon="-120.3895">
<ele>892.7</ele>
<time>2026-04-22T08:51:04-07:00</time>
</trkpt>
<trkpt lat="38.18269" lon="-120.3894">
<ele>893.6</ele>
<time>2026-04-22T08:51:05-07:00</time>
</trkpt>
<trkpt lat="38.18274" lon="-120.38936">
<ele>893.6</ele>
<time>2026-04-22T08:51:06-07:00</time>
</trkpt>
<trkpt lat="38.18281" lon="-120.38923">
<ele>896.2</ele>
<time>2026-04-22T08:51:07-07:00</time>
</trkpt>
<trkpt lat="38.18285" lon="-120.38904">
<ele>901.1</ele>
<time>2026-04-22T08:51:08-07:00</time>
</trkpt>
<trkpt lat="38.18286" lon="-120.38883">
<ele>904.6</ele>
<time>2026-04-22T08:51:09-07:00</time>
</trkpt>
<trkpt lat="38.18284" lon="-120.38867">
<ele>905.1</ele>
<time>2026-04-22T08:51:10-07:00</time>
</trkpt>
<trkpt lat="38.18267" lon="-120.3879">
<ele>912.7</ele>
<time>2026-04-22T08:51:11-07:00</time>
</trkpt>
<trkpt lat="38.18263" lon="-120.38758">
<ele>913.6</ele>
<time>2026-04-22T08:51:12-07:00</time>
</trkpt>
<trkpt lat="38.18258" lon="-120.38742">
<ele>919.1</ele>
<time>2026-04-22T08:51:13-07:00</time>
</trkpt>
<trkpt lat="38.18258" lon="-120.38735">
<ele>919</ele>
<time>2026-04-22T08:51:14-07:00</time>
</trkpt>
<trkpt lat="38.18263" lon="-120.38723">
<ele>917.4</ele>
<time>2026-04-22T08:51:15-07:00</time>
</trkpt>
<trkpt lat="38.18263" lon="-120.38717">
<ele>918.9</ele>
<time>2026-04-22T08:51:16-07:00</time>
</trkpt>
<trkpt lat="38.18265" lon="-120.38712">
<ele>920.8</ele>
<time>2026-04-22T08:51:17-07:00</time>
</trkpt>
<trkpt lat="38.18268" lon="-120.38711">
<ele>920.8</ele>
<time>2026-04-22T08:51:18-07:00</time>
</trkpt>
<trkpt lat="38.18278" lon="-120.38712">
<ele>925.3</ele>
<time>2026-04-22T08:51:19-07:00</time>
</trkpt>
<trkpt lat="38.18296" lon="-120.38723">
<ele>921.9</ele>
<time>2026-04-22T08:51:20-07:00</time>
</trkpt>
<trkpt lat="38.18309" lon="-120.38727">
<ele>925.1</ele>
<time>2026-04-22T08:51:21-07:00</time>
</trkpt>
<trkpt lat="38.18318" lon="-120.38726">
<ele>925.7</ele>
<time>2026-04-22T08:51:22-07:00</time>
</trkpt>
<trkpt lat="38.18309" lon="-120.38717">
<ele>927.9</ele>
<time>2026-04-22T08:51:23-07:00</time>
</trkpt>
<trkpt lat="38.18301" lon="-120.38704">
<ele>929.3</ele>
<time>2026-04-22T08:51:24-07:00</time>
</trkpt>
<trkpt lat="38.18304" lon="-120.38701">
<ele>932.4</ele>
<time>2026-04-22T08:51:25-07:00</time>
</trkpt>
<trkpt lat="38.18318" lon="-120.38709">
<ele>932.7</ele>
<time>2026-04-22T08:51:26-07:00</time>
</trkpt>
<trkpt lat="38.18321" lon="-120.38706">
<ele>932.7</ele>
<time>2026-04-22T08:51:27-07:00</time>
</trkpt>
<trkpt lat="38.1832" lon="-120.38704">
<ele>932.7</ele>
<time>2026-04-22T08:51:28-07:00</time>
</trkpt>
<trkpt lat="38.18311" lon="-120.38695">
<ele>934.4</ele>
<time>2026-04-22T08:51:29-07:00</time>
</trkpt>
<trkpt lat="38.18296" lon="-120.38684">
<ele>936.1</ele>
<time>2026-04-22T08:51:30-07:00</time>
</trkpt>
<trkpt lat="38.18301" lon="-120.38681">
<ele>938.5</ele>
<time>2026-04-22T08:51:31-07:00</time>
</trkpt>
<trkpt lat="38.18327" lon="-120.38688">
<ele>940.4</ele>
<time>2026-04-22T08:51:32-07:00</time>
</trkpt>
<trkpt lat="38.18343" lon="-120.38689">
<ele>941.2</ele>
<time>2026-04-22T08:51:33-07:00</time>
</trkpt>
<trkpt lat="38.18343" lon="-120.38686">
<ele>941.2</ele>
<time>2026-04-22T08:51:34-07:00</time>
</trkpt>
<trkpt lat="38.18323" lon="-120.38677">
<ele>942.3</ele>
<time>2026-04-22T08:51:35-07:00</time>
</trkpt>
<trkpt lat="38.18316" lon="-120.38669">
<ele>945.1</ele>
<time>2026-04-22T08:51:36-07:00</time>
</trkpt>
<trkpt lat="38.18316" lon="-120.38667">
<ele>945.1</ele>
<time>2026-04-22T08:51:37-07:00</time>
</trkpt>
<trkpt lat="38.18321" lon="-120.38665">
<ele>948.1</ele>
<time>2026-04-22T08:51:38-07:00</time>
</trkpt>
<trkpt lat="38.18334" lon="-120.38668">
<ele>948.1</ele>
<time>2026-04-22T08:51:39-07:00</time>
</trkpt>
<trkpt lat="38.18347" lon="-120.38667">
<ele>948.7</ele>
<time>2026-04-22T08:51:40-07:00</time>
</trkpt>
<trkpt lat="38.18343" lon="-120.38663">
<ele>952.1</ele>
<time>2026-04-22T08:51:41-07:00</time>
</trkpt>
<trkpt lat="38.18332" lon="-120.38659">
<ele>950.4</ele>
<time>2026-04-22T08:51:42-07:00</time>
</trkpt>
<trkpt lat="38.18333" lon="-120.38656">
<ele>952.9</ele>
<time>2026-04-22T08:51:43-07:00</time>
</trkpt>
<trkpt lat="38.18359" lon="-120.38648">
<ele>958.3</ele>
<time>2026-04-22T08:51:44-07:00</time>
</trkpt>
<trkpt lat="38.18365" lon="-120.38648">
<ele>957.4</ele>
<time>2026-04-22T08:51:45-07:00</time>
</trkpt>
<trkpt lat="38.18376" lon="-120.38653">
<ele>956.5</ele>
<time>2026-04-22T08:51:46-07:00</time>
</trkpt>
<trkpt lat="38.18387" lon="-120.38653">
<ele>957.4</ele>
<time>2026-04-22T08:51:47-07:00</time>
</trkpt>
<trkpt lat="38.18398" lon="-120.38642">
<ele>958.9</ele>
<time>2026-04-22T08:51:48-07:00</time>
</trkpt>
<trkpt lat="38.18417" lon="-120.38602">
<ele>960</ele>
<time>2026-04-22T08:51:49-07:00</time>
</trkpt>
<trkpt lat="38.18418" lon="-120.38587">
<ele>964</ele>
<time>2026-04-22T08:51:50-07:00</time>
</trkpt>
<trkpt lat="38.18413" lon="-120.38567">
<ele>966.8</ele>
<time>2026-04-22T08:51:51-07:00</time>
</trkpt>
<trkpt lat="38.18406" lon="-120.3855">
<ele>969.5</ele>
<time>2026-04-22T08:51:52-07:00</time>
</trkpt>
<trkpt lat="38.18404" lon="-120.38538">
<ele>968.8</ele>
<time>2026-04-22T08:51:53-07:00</time>
</trkpt>
<trkpt lat="38.1841" lon="-120.38518">
<ele>968.5</ele>
<time>2026-04-22T08:51:54-07:00</time>
</trkpt>
<trkpt lat="38.18408" lon="-120.38509">
<ele>968.7</ele>
<time>2026-04-22T08:51:55-07:00</time>
</trkpt>
<trkpt lat="38.18401" lon="-120.38501">
<ele>971.3</ele>
<time>2026-04-22T08:51:56-07:00</time>
</trkpt>
<trkpt lat="38.1839" lon="-120.38494">
<ele>971.9</ele>
<time>2026-04-22T08:51:57-07:00</time>
</trkpt>
<trkpt lat="38.18383" lon="-120.38485">
<ele>973.7</ele>
<time>2026-04-22T08:51:58-07:00</time>
</trkpt>
<trkpt lat="38.18376" lon="-120.38467">
<ele>976.1</ele>
<time>2026-04-22T08:51:59-07:00</time>
</trkpt>
<trkpt lat="38.18362" lon="-120.38445">
<ele>979.1</ele>
<time>2026-04-22T08:52:00-07:00</time>
</trkpt>
<trkpt lat="38.18352" lon="-120.38437">
<ele>981.1</ele>
<time>2026-04-22T08:52:01-07:00</time>
</trkpt>
<trkpt lat="38.18334" lon="-120.38429">
<ele>982.2</ele>
<time>2026-04-22T08:52:02-07:00</time>
</trkpt>
<trkpt lat="38.18318" lon="-120.38403">
<ele>982.6</ele>
<time>2026-04-22T08:52:03-07:00</time>
</trkpt>
<trkpt lat="38.18281" lon="-120.38371">
<ele>984.3</ele>
<time>2026-04-22T08:52:04-07:00</time>
</trkpt>
<trkpt lat="38.18275" lon="-120.38359">
<ele>982.8</ele>
<time>2026-04-22T08:52:05-07:00</time>
</trkpt>
<trkpt lat="38.18272" lon="-120.38345">
<ele>980.7</ele>
<time>2026-04-22T08:52:06-07:00</time>
</trkpt>
<trkpt lat="38.18273" lon="-120.3833">
<ele>980.7</ele>
<time>2026-04-22T08:52:07-07:00</time>
</trkpt>
<trkpt lat="38.18284" lon="-120.38308">
<ele>979.9</ele>
<time>2026-04-22T08:52:08-07:00</time>
</trkpt>
<trkpt lat="38.18287" lon="-120.38286">
<ele>980.3</ele>
<time>2026-04-22T08:52:09-07:00</time>
</trkpt>
<trkpt lat="38.18276" lon="-120.38242">
<ele>977.1</ele>
<time>2026-04-22T08:52:10-07:00</time>
</trkpt>
<trkpt lat="38.18275" lon="-120.38222">
<ele>974.7</ele>
<time>2026-04-22T08:52:11-07:00</time>
</trkpt>
<trkpt lat="38.18278" lon="-120.38203">
<ele>969.9</ele>
<time>2026-04-22T08:52:12-07:00</time>
</trkpt>
<trkpt lat="38.18278" lon="-120.38177">
<ele>969</ele>
<time>2026-04-22T08:52:13-07:00</time>
</trkpt>
<trkpt lat="38.18269" lon="-120.38145">
<ele>968.9</ele>
<time>2026-04-22T08:52:14-07:00</time>
</trkpt>
<trkpt lat="38.18268" lon="-120.38132">
<ele>969.6</ele>
<time>2026-04-22T08:52:15-07:00</time>
</trkpt>
<trkpt lat="38.18269" lon="-120.3812">
<ele>966.5</ele>
<time>2026-04-22T08:52:16-07:00</time>
</trkpt>
<trkpt lat="38.18273" lon="-120.38109">
<ele>968</ele>
<time>2026-04-22T08:52:17-07:00</time>
</trkpt>
<trkpt lat="38.18278" lon="-120.38078">
<ele>967.7</ele>
<time>2026-04-22T08:52:18-07:00</time>
</trkpt>
<trkpt lat="38.18278" lon="-120.38065">
<ele>968.5</ele>
<time>2026-04-22T08:52:19-07:00</time>
</trkpt>
<trkpt lat="38.18273" lon="-120.38039">
<ele>971.8</ele>
<time>2026-04-22T08:52:20-07:00</time>
</trkpt>
<trkpt lat="38.18275" lon="-120.38009">
<ele>977.3</ele>
<time>2026-04-22T08:52:21-07:00</time>
</trkpt>
<trkpt lat="38.18282" lon="-120.37987">
<ele>976.2</ele>
<time>2026-04-22T08:52:22-07:00</time>
</trkpt>
<trkpt lat="38.18286" lon="-120.37981">
<ele>977.4</ele>
<time>2026-04-22T08:52:23-07:00</time>
</trkpt>
<trkpt lat="38.18291" lon="-120.37977">
<ele>976.6</ele>
<time>2026-04-22T08:52:24-07:00</time>
</trkpt>
<trkpt lat="38.18298" lon="-120.37975">
<ele>977.9</ele>
<time>2026-04-22T08:52:25-07:00</time>
</trkpt>
<trkpt lat="38.18304" lon="-120.37976">
<ele>977.9</ele>
<time>2026-04-22T08:52:26-07:00</time>
</trkpt>
<trkpt lat="38.18336" lon="-120.38005">
<ele>984</ele>
<time>2026-04-22T08:52:27-07:00</time>
</trkpt>
<trkpt lat="38.18347" lon="-120.3802">
<ele>983.9</ele>
<time>2026-04-22T08:52:28-07:00</time>
</trkpt>
<trkpt lat="38.18375" lon="-120.38032">
<ele>986.6</ele>
<time>2026-04-22T08:52:29-07:00</time>
</trkpt>
<trkpt lat="38.18386" lon="-120.38045">
<ele>988.1</ele>
<time>2026-04-22T08:52:30-07:00</time>
</trkpt>
<trkpt lat="38.18396" lon="-120.38062">
<ele>989.4</ele>
<time>2026-04-22T08:52:31-07:00</time>
</trkpt>
<trkpt lat="38.18404" lon="-120.38069">
<ele>990.3</ele>
<time>2026-04-22T08:52:32-07:00</time>
</trkpt>
<trkpt lat="38.18413" lon="-120.38072">
<ele>991.5</ele>
<time>2026-04-22T08:52:33-07:00</time>
</trkpt>
<trkpt lat="38.18422" lon="-120.38067">
<ele>991.4</ele>
<time>2026-04-22T08:52:34-07:00</time>
</trkpt>
<trkpt lat="38.18428" lon="-120.38059">
<ele>992.5</ele>
<time>2026-04-22T08:52:35-07:00</time>
</trkpt>
<trkpt lat="38.18432" lon="-120.38049">
<ele>993.5</ele>
<time>2026-04-22T08:52:36-07:00</time>
</trkpt>
<trkpt lat="38.18446" lon="-120.37991">
<ele>997.8</ele>
<time>2026-04-22T08:52:37-07:00</time>
</trkpt>
<trkpt lat="38.18445" lon="-120.37921">
<ele>1003.1</ele>
<time>2026-04-22T08:52:38-07:00</time>
</trkpt>
<trkpt lat="38.18428" lon="-120.37872">
<ele>1006.4</ele>
<time>2026-04-22T08:52:39-07:00</time>
</trkpt>
<trkpt lat="38.18419" lon="-120.37813">
<ele>1011.9</ele>
<time>2026-04-22T08:52:40-07:00</time>
</trkpt>
<trkpt lat="38.18413" lon="-120.37799">
<ele>1013.3</ele>
<time>2026-04-22T08:52:41-07:00</time>
</trkpt>
<trkpt lat="38.18399" lon="-120.37778">
<ele>1014.9</ele>
<time>2026-04-22T08:52:42-07:00</time>
</trkpt>
<trkpt lat="38.18399" lon="-120.37772">
<ele>1015.7</ele>
<time>2026-04-22T08:52:43-07:00</time>
</trkpt>
<trkpt lat="38.1841" lon="-120.37765">
<ele>1014.3</ele>
<time>2026-04-22T08:52:44-07:00</time>
</trkpt>
<trkpt lat="38.18434" lon="-120.37763">
<ele>1012.5</ele>
<time>2026-04-22T08:52:45-07:00</time>
</trkpt>
<trkpt lat="38.1845" lon="-120.37758">
<ele>1010.7</ele>
<time>2026-04-22T08:52:46-07:00</time>
</trkpt>
<trkpt lat="38.1846" lon="-120.3775">
<ele>1009.5</ele>
<time>2026-04-22T08:52:47-07:00</time>
</trkpt>
<trkpt lat="38.18469" lon="-120.37738">
<ele>1008.4</ele>
<time>2026-04-22T08:52:48-07:00</time>
</trkpt>
<trkpt lat="38.18475" lon="-120.37724">
<ele>1006.5</ele>
<time>2026-04-22T08:52:49-07:00</time>
</trkpt>
<trkpt lat="38.18483" lon="-120.37715">
<ele>1003.5</ele>
<time>2026-04-22T08:52:50-07:00</time>
</trkpt>
<trkpt lat="38.18506" lon="-120.37702">
<ele>1003.2</ele>
<time>2026-04-22T08:52:51-07:00</time>
</trkpt>
<trkpt lat="38.1852" lon="-120.37683">
<ele>1000.3</ele>
<time>2026-04-22T08:52:52-07:00</time>
</trkpt>
<trkpt lat="38.18521" lon="-120.37659">
<ele>1000</ele>
<time>2026-04-22T08:52:53-07:00</time>
</trkpt>
<trkpt lat="38.18529" lon="-120.37596">
<ele>994.2</ele>
<time>2026-04-22T08:52:54-07:00</time>
</trkpt>
<trkpt lat="38.18537" lon="-120.37559">
<ele>993.3</ele>
<time>2026-04-22T08:52:55-07:00</time>
</trkpt>
<trkpt lat="38.18539" lon="-120.37555">
<ele>991.4</ele>
<time>2026-04-22T08:52:56-07:00</time>
</trkpt>
<trkpt lat="38.18547" lon="-120.37548">
<ele>991.4</ele>
<time>2026-04-22T08:52:57-07:00</time>
</trkpt>
<trkpt lat="38.18563" lon="-120.37558">
<ele>992.9</ele>
<time>2026-04-22T08:52:58-07:00</time>
</trkpt>
<trkpt lat="38.18611" lon="-120.37634">
<ele>999</ele>
<time>2026-04-22T08:52:59-07:00</time>
</trkpt>
<trkpt lat="38.18625" lon="-120.37651">
<ele>999.2</ele>
<time>2026-04-22T08:53:00-07:00</time>
</trkpt>
<trkpt lat="38.18675" lon="-120.37684">
<ele>1000.9</ele>
<time>2026-04-22T08:53:01-07:00</time>
</trkpt>
<trkpt lat="38.18721" lon="-120.37695">
<ele>996.9</ele>
<time>2026-04-22T08:53:02-07:00</time>
</trkpt>
<trkpt lat="38.18746" lon="-120.37705">
<ele>996.7</ele>
<time>2026-04-22T08:53:03-07:00</time>
</trkpt>
<trkpt lat="38.18756" lon="-120.37756">
<ele>998.3</ele>
<time>2026-04-22T08:53:04-07:00</time>
</trkpt>
<trkpt lat="38.18757" lon="-120.37777">
<ele>997.7</ele>
<time>2026-04-22T08:53:05-07:00</time>
</trkpt>
<trkpt lat="38.18761" lon="-120.37785">
<ele>996</ele>
<time>2026-04-22T08:53:06-07:00</time>
</trkpt>
<trkpt lat="38.18766" lon="-120.37785">
<ele>996</ele>
<time>2026-04-22T08:53:07-07:00</time>
</trkpt>
<trkpt lat="38.18822" lon="-120.37753">
<ele>992.6</ele>
<time>2026-04-22T08:53:08-07:00</time>
</trkpt>
<trkpt lat="38.18835" lon="-120.37733">
<ele>992.1</ele>
<time>2026-04-22T08:53:09-07:00</time>
</trkpt>
<trkpt lat="38.1884" lon="-120.37732">
<ele>992.1</ele>
<time>2026-04-22T08:53:10-07:00</time>
</trkpt>
<trkpt lat="38.18851" lon="-120.37741">
<ele>988.7</ele>
<time>2026-04-22T08:53:11-07:00</time>
</trkpt>
<trkpt lat="38.18864" lon="-120.37741">
<ele>985.3</ele>
<time>2026-04-22T08:53:12-07:00</time>
</trkpt>
<trkpt lat="38.18885" lon="-120.37725">
<ele>985.8</ele>
<time>2026-04-22T08:53:13-07:00</time>
</trkpt>
<trkpt lat="38.18893" lon="-120.37715">
<ele>983.6</ele>
<time>2026-04-22T08:53:14-07:00</time>
</trkpt>
<trkpt lat="38.1891" lon="-120.37703">
<ele>983.1</ele>
<time>2026-04-22T08:53:15-07:00</time>
</trkpt>
<trkpt lat="38.18931" lon="-120.37675">
<ele>979.5</ele>
<time>2026-04-22T08:53:16-07:00</time>
</trkpt>
<trkpt lat="38.18938" lon="-120.37689">
<ele>972.9</ele>
<time>2026-04-22T08:53:17-07:00</time>
</trkpt>
<trkpt lat="38.1894" lon="-120.377">
<ele>970.4</ele>
<time>2026-04-22T08:53:18-07:00</time>
</trkpt>
<trkpt lat="38.18939" lon="-120.37706">
<ele>968.6</ele>
<time>2026-04-22T08:53:19-07:00</time>
</trkpt>
<trkpt lat="38.18936" lon="-120.3771">
<ele>968.6</ele>
<time>2026-04-22T08:53:20-07:00</time>
</trkpt>
<trkpt lat="38.18949" lon="-120.37704">
<ele>964</ele>
<time>2026-04-22T08:53:21-07:00</time>
</trkpt>
<trkpt lat="38.18954" lon="-120.37697">
<ele>962.5</ele>
<time>2026-04-22T08:53:22-07:00</time>
</trkpt>
<trkpt lat="38.18959" lon="-120.37682">
<ele>964.1</ele>
<time>2026-04-22T08:53:23-07:00</time>
</trkpt>
<trkpt lat="38.18959" lon="-120.37669">
<ele>963.6</ele>
<time>2026-04-22T08:53:24-07:00</time>
</trkpt>
<trkpt lat="38.18968" lon="-120.37679">
<ele>958.8</ele>
<time>2026-04-22T08:53:25-07:00</time>
</trkpt>
<trkpt lat="38.18971" lon="-120.37685">
<ele>958.8</ele>
<time>2026-04-22T08:53:26-07:00</time>
</trkpt>
<trkpt lat="38.18972" lon="-120.3771">
<ele>956</ele>
<time>2026-04-22T08:53:27-07:00</time>
</trkpt>
<trkpt lat="38.18974" lon="-120.37712">
<ele>951.2</ele>
<time>2026-04-22T08:53:28-07:00</time>
</trkpt>
<trkpt lat="38.18979" lon="-120.37711">
<ele>951.2</ele>
<time>2026-04-22T08:53:29-07:00</time>
</trkpt>
<trkpt lat="38.1899" lon="-120.37698">
<ele>947.4</ele>
<time>2026-04-22T08:53:30-07:00</time>
</trkpt>
<trkpt lat="38.18998" lon="-120.37676">
<ele>940.9</ele>
<time>2026-04-22T08:53:31-07:00</time>
</trkpt>
<trkpt lat="38.19005" lon="-120.37688">
<ele>935.5</ele>
<time>2026-04-22T08:53:32-07:00</time>
</trkpt>
<trkpt lat="38.19009" lon="-120.37687">
<ele>935.5</ele>
<time>2026-04-22T08:53:33-07:00</time>
</trkpt>
<trkpt lat="38.19009" lon="-120.37678">
<ele>934.3</ele>
<time>2026-04-22T08:53:34-07:00</time>
</trkpt>
<trkpt lat="38.19006" lon="-120.37671">
<ele>933.7</ele>
<time>2026-04-22T08:53:35-07:00</time>
</trkpt>
<trkpt lat="38.19007" lon="-120.37662">
<ele>932.4</ele>
<time>2026-04-22T08:53:36-07:00</time>
</trkpt>
<trkpt lat="38.19005" lon="-120.37646">
<ele>928.3</ele>
<time>2026-04-22T08:53:37-07:00</time>
</trkpt>
<trkpt lat="38.1901" lon="-120.3765">
<ele>924.6</ele>
<time>2026-04-22T08:53:38-07:00</time>
</trkpt>
<trkpt lat="38.19015" lon="-120.37659">
<ele>925</ele>
<time>2026-04-22T08:53:39-07:00</time>
</trkpt>
<trkpt lat="38.19016" lon="-120.37637">
<ele>920.5</ele>
<time>2026-04-22T08:53:40-07:00</time>
</trkpt>
<trkpt lat="38.19015" lon="-120.37635">
<ele>920.5</ele>
<time>2026-04-22T08:53:41-07:00</time>
</trkpt>
<trkpt lat="38.19013" lon="-120.37636">
<ele>920.5</ele>
<time>2026-04-22T08:53:42-07:00</time>
</trkpt>
<trkpt lat="38.19016" lon="-120.37633">
<ele>920.5</ele>
<time>2026-04-22T08:53:43-07:00</time>
</trkpt>
<trkpt lat="38.19023" lon="-120.37637">
<ele>915.2</ele>
<time>2026-04-22T08:53:44-07:00</time>
</trkpt>
<trkpt lat="38.19036" lon="-120.37654">
<ele>912.1</ele>
<time>2026-04-22T08:53:45-07:00</time>
</trkpt>
<trkpt lat="38.19037" lon="-120.37641">
<ele>910.5</ele>
<time>2026-04-22T08:53:46-07:00</time>
</trkpt>
<trkpt lat="38.19041" lon="-120.37637">
<ele>902.5</ele>
<time>2026-04-22T08:53:47-07:00</time>
</trkpt>
<trkpt lat="38.19044" lon="-120.37638">
<ele>902.5</ele>
<time>2026-04-22T08:53:48-07:00</time>
</trkpt>
<trkpt lat="38.19056" lon="-120.37651">
<ele>896.8</ele>
<time>2026-04-22T08:53:49-07:00</time>
</trkpt>
<trkpt lat="38.1906" lon="-120.3766">
<ele>895.5</ele>
<time>2026-04-22T08:53:50-07:00</time>
</trkpt>
<trkpt lat="38.19068" lon="-120.37663">
<ele>897.8</ele>
<time>2026-04-22T08:53:51-07:00</time>
</trkpt>
<trkpt lat="38.19079" lon="-120.37676">
<ele>896</ele>
<time>2026-04-22T08:53:52-07:00</time>
</trkpt>
<trkpt lat="38.19093" lon="-120.377">
<ele>896.6</ele>
<time>2026-04-22T08:53:53-07:00</time>
</trkpt>
<trkpt lat="38.191" lon="-120.37708">
<ele>895.9</ele>
<time>2026-04-22T08:53:54-07:00</time>
</trkpt>
<trkpt lat="38.19104" lon="-120.37709">
<ele>898.9</ele>
<time>2026-04-22T08:53:55-07:00</time>
</trkpt>
<trkpt lat="38.19107" lon="-120.37713">
<ele>900.1</ele>
<time>2026-04-22T08:53:56-07:00</time>
</trkpt>
<trkpt lat="38.19113" lon="-120.37732">
<ele>901.5</ele>
<time>2026-04-22T08:53:57-07:00</time>
</trkpt>
<trkpt lat="38.19135" lon="-120.37754">
<ele>907.1</ele>
<time>2026-04-22T08:53:58-07:00</time>
</trkpt>
<trkpt lat="38.1914" lon="-120.37766">
<ele>909.9</ele>
<time>2026-04-22T08:53:59-07:00</time>
</trkpt>
<trkpt lat="38.19154" lon="-120.37782">
<ele>909.1</ele>
<time>2026-04-22T08:54:00-07:00</time>
</trkpt>
<trkpt lat="38.19158" lon="-120.3779">
<ele>911.8</ele>
<time>2026-04-22T08:54:01-07:00</time>
</trkpt>
<trkpt lat="38.19162" lon="-120.37809">
<ele>909.6</ele>
<time>2026-04-22T08:54:02-07:00</time>
</trkpt>
<trkpt lat="38.19175" lon="-120.37834">
<ele>908.6</ele>
<time>2026-04-22T08:54:03-07:00</time>
</trkpt>
<trkpt lat="38.19193" lon="-120.37852">
<ele>911.8</ele>
<time>2026-04-22T08:54:04-07:00</time>
</trkpt>
<trkpt lat="38.19215" lon="-120.37867">
<ele>919.8</ele>
<time>2026-04-22T08:54:05-07:00</time>
</trkpt>
<trkpt lat="38.1922" lon="-120.37877">
<ele>916.8</ele>
<time>2026-04-22T08:54:06-07:00</time>
</trkpt>
<trkpt lat="38.19223" lon="-120.37889">
<ele>918.9</ele>
<time>2026-04-22T08:54:07-07:00</time>
</trkpt>
<trkpt lat="38.19221" lon="-120.37921">
<ele>915.4</ele>
<time>2026-04-22T08:54:08-07:00</time>
</trkpt>
<trkpt lat="38.19222" lon="-120.37931">
<ele>915.5</ele>
<time>2026-04-22T08:54:09-07:00</time>
</trkpt>
<trkpt lat="38.1923" lon="-120.37941">
<ele>917.2</ele>
<time>2026-04-22T08:54:10-07:00</time>
</trkpt>
<trkpt lat="38.19236" lon="-120.37942">
<ele>917.9</ele>
<time>2026-04-22T08:54:11-07:00</time>
</trkpt>
<trkpt lat="38.19243" lon="-120.37936">
<ele>916.6</ele>
<time>2026-04-22T08:54:12-07:00</time>
</trkpt>
<trkpt lat="38.19248" lon="-120.37898">
<ele>927.6</ele>
<time>2026-04-22T08:54:13-07:00</time>
</trkpt>
<trkpt lat="38.19245" lon="-120.37879">
<ele>931.7</ele>
<time>2026-04-22T08:54:14-07:00</time>
</trkpt>
<trkpt lat="38.19229" lon="-120.37846">
<ele>930.2</ele>
<time>2026-04-22T08:54:15-07:00</time>
</trkpt>
<trkpt lat="38.19225" lon="-120.37842">
<ele>933.5</ele>
<time>2026-04-22T08:54:16-07:00</time>
</trkpt>
<trkpt lat="38.19222" lon="-120.37834">
<ele>929.9</ele>
<time>2026-04-22T08:54:17-07:00</time>
</trkpt>
<trkpt lat="38.19223" lon="-120.3783">
<ele>936.8</ele>
<time>2026-04-22T08:54:18-07:00</time>
</trkpt>
<trkpt lat="38.19254" lon="-120.37857">
<ele>940.3</ele>
<time>2026-04-22T08:54:19-07:00</time>
</trkpt>
<trkpt lat="38.19265" lon="-120.37857">
<ele>940.6</ele>
<time>2026-04-22T08:54:20-07:00</time>
</trkpt>
<trkpt lat="38.19267" lon="-120.37853">
<ele>940.6</ele>
<time>2026-04-22T08:54:21-07:00</time>
</trkpt>
<trkpt lat="38.19263" lon="-120.37845">
<ele>943.3</ele>
<time>2026-04-22T08:54:22-07:00</time>
</trkpt>
<trkpt lat="38.19249" lon="-120.37826">
<ele>944.6</ele>
<time>2026-04-22T08:54:23-07:00</time>
</trkpt>
<trkpt lat="38.19238" lon="-120.37803">
<ele>949.7</ele>
<time>2026-04-22T08:54:24-07:00</time>
</trkpt>
<trkpt lat="38.19263" lon="-120.37818">
<ele>952.6</ele>
<time>2026-04-22T08:54:25-07:00</time>
</trkpt>
<trkpt lat="38.19277" lon="-120.3781">
<ele>954.7</ele>
<time>2026-04-22T08:54:26-07:00</time>
</trkpt>
<trkpt lat="38.19312" lon="-120.37774">
<ele>958.1</ele>
<time>2026-04-22T08:54:27-07:00</time>
</trkpt>
<trkpt lat="38.19312" lon="-120.37772">
<ele>958.1</ele>
<time>2026-04-22T08:54:28-07:00</time>
</trkpt>
<trkpt lat="38.19281" lon="-120.37781">
<ele>963.9</ele>
<time>2026-04-22T08:54:29-07:00</time>
</trkpt>
<trkpt lat="38.1927" lon="-120.37779">
<ele>965.6</ele>
<time>2026-04-22T08:54:30-07:00</time>
</trkpt>
<trkpt lat="38.19254" lon="-120.37769">
<ele>967.1</ele>
<time>2026-04-22T08:54:31-07:00</time>
</trkpt>
<trkpt lat="38.19247" lon="-120.37761">
<ele>966.8</ele>
<time>2026-04-22T08:54:32-07:00</time>
</trkpt>
<trkpt lat="38.19238" lon="-120.37734">
<ele>968.6</ele>
<time>2026-04-22T08:54:33-07:00</time>
</trkpt>
<trkpt lat="38.19236" lon="-120.37676">
<ele>974</ele>
<time>2026-04-22T08:54:34-07:00</time>
</trkpt>
<trkpt lat="38.19238" lon="-120.37649">
<ele>974.7</ele>
<time>2026-04-22T08:54:35-07:00</time>
</trkpt>
<trkpt lat="38.19234" lon="-120.37629">
<ele>976.9</ele>
<time>2026-04-22T08:54:36-07:00</time>
</trkpt>
<trkpt lat="38.19224" lon="-120.37609">
<ele>980.7</ele>
<time>2026-04-22T08:54:37-07:00</time>
</trkpt>
<trkpt lat="38.19213" lon="-120.37594">
<ele>981.1</ele>
<time>2026-04-22T08:54:38-07:00</time>
</trkpt>
<trkpt lat="38.1921" lon="-120.37586">
<ele>980.9</ele>
<time>2026-04-22T08:54:39-07:00</time>
</trkpt>
<trkpt lat="38.19212" lon="-120.37581">
<ele>983</ele>
<time>2026-04-22T08:54:40-07:00</time>
</trkpt>
<trkpt lat="38.19239" lon="-120.37595">
<ele>987.6</ele>
<time>2026-04-22T08:54:41-07:00</time>
</trkpt>
<trkpt lat="38.19244" lon="-120.37596">
<ele>989</ele>
<time>2026-04-22T08:54:42-07:00</time>
</trkpt>
<trkpt lat="38.19254" lon="-120.37612">
<ele>990.2</ele>
<time>2026-04-22T08:54:43-07:00</time>
</trkpt>
<trkpt lat="38.19263" lon="-120.37674">
<ele>992.1</ele>
<time>2026-04-22T08:54:44-07:00</time>
</trkpt>
<trkpt lat="38.19268" lon="-120.37683">
<ele>991.7</ele>
<time>2026-04-22T08:54:45-07:00</time>
</trkpt>
<trkpt lat="38.19286" lon="-120.37702">
<ele>996.7</ele>
<time>2026-04-22T08:54:46-07:00</time>
</trkpt>
<trkpt lat="38.19292" lon="-120.37703">
<ele>996.8</ele>
<time>2026-04-22T08:54:47-07:00</time>
</trkpt>
<trkpt lat="38.19294" lon="-120.37701">
<ele>996.8</ele>
<time>2026-04-22T08:54:48-07:00</time>
</trkpt>
<trkpt lat="38.19283" lon="-120.37692">
<ele>998.9</ele>
<time>2026-04-22T08:54:49-07:00</time>
</trkpt>
<trkpt lat="38.19278" lon="-120.37682">
<ele>1001</ele>
<time>2026-04-22T08:54:50-07:00</time>
</trkpt>
<trkpt lat="38.19276" lon="-120.37666">
<ele>998</ele>
<time>2026-04-22T08:54:51-07:00</time>
</trkpt>
<trkpt lat="38.19276" lon="-120.37625">
<ele>1000.6</ele>
<time>2026-04-22T08:54:52-07:00</time>
</trkpt>
<trkpt lat="38.19274" lon="-120.37589">
<ele>1004.7</ele>
<time>2026-04-22T08:54:53-07:00</time>
</trkpt>
<trkpt lat="38.19271" lon="-120.3757">
<ele>1006.6</ele>
<time>2026-04-22T08:54:54-07:00</time>
</trkpt>
<trkpt lat="38.19256" lon="-120.37561">
<ele>1007.5</ele>
<time>2026-04-22T08:54:55-07:00</time>
</trkpt>
<trkpt lat="38.19251" lon="-120.37555">
<ele>1011.5</ele>
<time>2026-04-22T08:54:56-07:00</time>
</trkpt>
<trkpt lat="38.19251" lon="-120.37552">
<ele>1011.5</ele>
<time>2026-04-22T08:54:57-07:00</time>
</trkpt>
<trkpt lat="38.19262" lon="-120.37559">
<ele>1008.2</ele>
<time>2026-04-22T08:54:58-07:00</time>
</trkpt>
<trkpt lat="38.19272" lon="-120.37559">
<ele>1010.2</ele>
<time>2026-04-22T08:54:59-07:00</time>
</trkpt>
<trkpt lat="38.19281" lon="-120.37567">
<ele>1012.4</ele>
<time>2026-04-22T08:55:00-07:00</time>
</trkpt>
<trkpt lat="38.19283" lon="-120.37577">
<ele>1012.9</ele>
<time>2026-04-22T08:55:01-07:00</time>
</trkpt>
<trkpt lat="38.19304" lon="-120.37618">
<ele>1017.6</ele>
<time>2026-04-22T08:55:02-07:00</time>
</trkpt>
<trkpt lat="38.19312" lon="-120.37629">
<ele>1020.4</ele>
<time>2026-04-22T08:55:03-07:00</time>
</trkpt>
<trkpt lat="38.19319" lon="-120.37633">
<ele>1020.8</ele>
<time>2026-04-22T08:55:04-07:00</time>
</trkpt>
<trkpt lat="38.19321" lon="-120.37624">
<ele>1023.1</ele>
<time>2026-04-22T08:55:05-07:00</time>
</trkpt>
<trkpt lat="38.19312" lon="-120.37604">
<ele>1023.6</ele>
<time>2026-04-22T08:55:06-07:00</time>
</trkpt>
<trkpt lat="38.1931" lon="-120.37589">
<ele>1024.9</ele>
<time>2026-04-22T08:55:07-07:00</time>
</trkpt>
<trkpt lat="38.19283" lon="-120.37535">
<ele>1025.6</ele>
<time>2026-04-22T08:55:08-07:00</time>
</trkpt>
<trkpt lat="38.19276" lon="-120.37527">
<ele>1028.1</ele>
<time>2026-04-22T08:55:09-07:00</time>
</trkpt>
<trkpt lat="38.19272" lon="-120.37517">
<ele>1032.1</ele>
<time>2026-04-22T08:55:10-07:00</time>
</trkpt>
<trkpt lat="38.19279" lon="-120.37519">
<ele>1030.5</ele>
<time>2026-04-22T08:55:11-07:00</time>
</trkpt>
<trkpt lat="38.19317" lon="-120.37553">
<ele>1039.5</ele>
<time>2026-04-22T08:55:12-07:00</time>
</trkpt>
<trkpt lat="38.19321" lon="-120.37553">
<ele>1039.5</ele>
<time>2026-04-22T08:55:13-07:00</time>
</trkpt>
<trkpt lat="38.19292" lon="-120.37499">
<ele>1045</ele>
<time>2026-04-22T08:55:14-07:00</time>
</trkpt>
<trkpt lat="38.19291" lon="-120.37476">
<ele>1047.9</ele>
<time>2026-04-22T08:55:15-07:00</time>
</trkpt>
<trkpt lat="38.19297" lon="-120.37458">
<ele>1052.3</ele>
<time>2026-04-22T08:55:16-07:00</time>
</trkpt>
<trkpt lat="38.19295" lon="-120.37455">
<ele>1046.8</ele>
<time>2026-04-22T08:55:17-07:00</time>
</trkpt>
<trkpt lat="38.19287" lon="-120.37452">
<ele>1049.8</ele>
<time>2026-04-22T08:55:18-07:00</time>
</trkpt>
<trkpt lat="38.19281" lon="-120.37446">
<ele>1049.8</ele>
<time>2026-04-22T08:55:19-07:00</time>
</trkpt>
<trkpt lat="38.19276" lon="-120.37438">
<ele>1050.8</ele>
<time>2026-04-22T08:55:20-07:00</time>
</trkpt>
<trkpt lat="38.19281" lon="-120.37436">
<ele>1053.2</ele>
<time>2026-04-22T08:55:21-07:00</time>
</trkpt>
<trkpt lat="38.19303" lon="-120.3744">
<ele>1055.8</ele>
<time>2026-04-22T08:55:22-07:00</time>
</trkpt>
<trkpt lat="38.19316" lon="-120.37457">
<ele>1058.6</ele>
<time>2026-04-22T08:55:23-07:00</time>
</trkpt>
<trkpt lat="38.19328" lon="-120.37454">
<ele>1059</ele>
<time>2026-04-22T08:55:24-07:00</time>
</trkpt>
<trkpt lat="38.19365" lon="-120.37417">
<ele>1056.3</ele>
<time>2026-04-22T08:55:25-07:00</time>
</trkpt>
<trkpt lat="38.1938" lon="-120.37405">
<ele>1059.7</ele>
<time>2026-04-22T08:55:26-07:00</time>
</trkpt>
<trkpt lat="38.19393" lon="-120.37398">
<ele>1061.4</ele>
<time>2026-04-22T08:55:27-07:00</time>
</trkpt>
<trkpt lat="38.19415" lon="-120.37394">
<ele>1058.9</ele>
<time>2026-04-22T08:55:28-07:00</time>
</trkpt>
<trkpt lat="38.19438" lon="-120.37384">
<ele>1053.4</ele>
<time>2026-04-22T08:55:29-07:00</time>
</trkpt>
<trkpt lat="38.19445" lon="-120.37368">
<ele>1051.2</ele>
<time>2026-04-22T08:55:30-07:00</time>
</trkpt>
<trkpt lat="38.19456" lon="-120.37317">
<ele>1053</ele>
<time>2026-04-22T08:55:31-07:00</time>
</trkpt>
<trkpt lat="38.19473" lon="-120.37295">
<ele>1051.4</ele>
<time>2026-04-22T08:55:32-07:00</time>
</trkpt>
<trkpt lat="38.19509" lon="-120.3722">
<ele>1050.1</ele>
<time>2026-04-22T08:55:33-07:00</time>
</trkpt>
<trkpt lat="38.19534" lon="-120.37222">
<ele>1052.4</ele>
<time>2026-04-22T08:55:34-07:00</time>
</trkpt>
<trkpt lat="38.19551" lon="-120.37208">
<ele>1051.3</ele>
<time>2026-04-22T08:55:35-07:00</time>
</trkpt>
<trkpt lat="38.19563" lon="-120.37187">
<ele>1053.1</ele>
<time>2026-04-22T08:55:36-07:00</time>
</trkpt>
<trkpt lat="38.19589" lon="-120.37122">
<ele>1052.8</ele>
<time>2026-04-22T08:55:37-07:00</time>
</trkpt>
<trkpt lat="38.19612" lon="-120.37094">
<ele>1054.8</ele>
<time>2026-04-22T08:55:38-07:00</time>
</trkpt>
<trkpt lat="38.19635" lon="-120.37079">
<ele>1056.1</ele>
<time>2026-04-22T08:55:39-07:00</time>
</trkpt>
<trkpt lat="38.19651" lon="-120.37076">
<ele>1056.8</ele>
<time>2026-04-22T08:55:40-07:00</time>
</trkpt>
<trkpt lat="38.19663" lon="-120.37092">
<ele>1058.1</ele>
<time>2026-04-22T08:55:41-07:00</time>
</trkpt>
<trkpt lat="38.19662" lon="-120.37095">
<ele>1057.6</ele>
<time>2026-04-22T08:55:42-07:00</time>
</trkpt>
<trkpt lat="38.1965" lon="-120.37103">
<ele>1055.7</ele>
<time>2026-04-22T08:55:43-07:00</time>
</trkpt>
<trkpt lat="38.19645" lon="-120.37112">
<ele>1056.5</ele>
<time>2026-04-22T08:55:44-07:00</time>
</trkpt>
<trkpt lat="38.19643" lon="-120.37122">
<ele>1057.6</ele>
<time>2026-04-22T08:55:45-07:00</time>
</trkpt>
<trkpt lat="38.19644" lon="-120.37156">
<ele>1060.1</ele>
<time>2026-04-22T08:55:46-07:00</time>
</trkpt>
<trkpt lat="38.19647" lon="-120.37169">
<ele>1061.8</ele>
<time>2026-04-22T08:55:47-07:00</time>
</trkpt>
<trkpt lat="38.19648" lon="-120.37199">
<ele>1063.1</ele>
<time>2026-04-22T08:55:48-07:00</time>
</trkpt>
<trkpt lat="38.19685" lon="-120.37189">
<ele>1070</ele>
<time>2026-04-22T08:55:49-07:00</time>
</trkpt>
<trkpt lat="38.19713" lon="-120.3717">
<ele>1072.2</ele>
<time>2026-04-22T08:55:50-07:00</time>
</trkpt>
<trkpt lat="38.19722" lon="-120.3717">
<ele>1072.2</ele>
<time>2026-04-22T08:55:51-07:00</time>
</trkpt>
<trkpt lat="38.19733" lon="-120.37167">
<ele>1072.2</ele>
<time>2026-04-22T08:55:52-07:00</time>
</trkpt>
<trkpt lat="38.19742" lon="-120.37157">
<ele>1074.9</ele>
<time>2026-04-22T08:55:53-07:00</time>
</trkpt>
<trkpt lat="38.19759" lon="-120.37126">
<ele>1076.7</ele>
<time>2026-04-22T08:55:54-07:00</time>
</trkpt>
<trkpt lat="38.19776" lon="-120.37102">
<ele>1080.5</ele>
<time>2026-04-22T08:55:55-07:00</time>
</trkpt>
<trkpt lat="38.19807" lon="-120.37093">
<ele>1082.3</ele>
<time>2026-04-22T08:55:56-07:00</time>
</trkpt>
<trkpt lat="38.1985" lon="-120.37095">
<ele>1083</ele>
<time>2026-04-22T08:55:57-07:00</time>
</trkpt>
<trkpt lat="38.19858" lon="-120.37094">
<ele>1083</ele>
<time>2026-04-22T08:55:58-07:00</time>
</trkpt>
<trkpt lat="38.19879" lon="-120.371">
<ele>1082.3</ele>
<time>2026-04-22T08:55:59-07:00</time>
</trkpt>
<trkpt lat="38.19906" lon="-120.37158">
<ele>1082.4</ele>
<time>2026-04-22T08:56:00-07:00</time>
</trkpt>
<trkpt lat="38.19917" lon="-120.37189">
<ele>1080.2</ele>
<time>2026-04-22T08:56:01-07:00</time>
</trkpt>
<trkpt lat="38.19942" lon="-120.37216">
<ele>1079.1</ele>
<time>2026-04-22T08:56:02-07:00</time>
</trkpt>
<trkpt lat="38.19968" lon="-120.37262">
<ele>1074.3</ele>
<time>2026-04-22T08:56:03-07:00</time>
</trkpt>
<trkpt lat="38.20011" lon="-120.37367">
<ele>1064.8</ele>
<time>2026-04-22T08:56:04-07:00</time>
</trkpt>
<trkpt lat="38.20021" lon="-120.37415">
<ele>1059.9</ele>
<time>2026-04-22T08:56:05-07:00</time>
</trkpt>
<trkpt lat="38.20019" lon="-120.37459">
<ele>1055.6</ele>
<time>2026-04-22T08:56:06-07:00</time>
</trkpt>
<trkpt lat="38.20022" lon="-120.3747">
<ele>1054.6</ele>
<time>2026-04-22T08:56:07-07:00</time>
</trkpt>
<trkpt lat="38.20026" lon="-120.375">
<ele>1052.1</ele>
<time>2026-04-22T08:56:08-07:00</time>
</trkpt>
<trkpt lat="38.20011" lon="-120.37519">
<ele>1045.9</ele>
<time>2026-04-22T08:56:09-07:00</time>
</trkpt>
<trkpt lat="38.20011" lon="-120.37522">
<ele>1045.9</ele>
<time>2026-04-22T08:56:10-07:00</time>
</trkpt>
<trkpt lat="38.20009" lon="-120.37524">
<ele>1044.3</ele>
<time>2026-04-22T08:56:11-07:00</time>
</trkpt>
<trkpt lat="38.2" lon="-120.37517">
<ele>1046</ele>
<time>2026-04-22T08:56:12-07:00</time>
</trkpt>
<trkpt lat="38.19977" lon="-120.37484">
<ele>1040.5</ele>
<time>2026-04-22T08:56:13-07:00</time>
</trkpt>
<trkpt lat="38.19971" lon="-120.37481">
<ele>1039.3</ele>
<time>2026-04-22T08:56:14-07:00</time>
</trkpt>
<trkpt lat="38.19974" lon="-120.37493">
<ele>1038.9</ele>
<time>2026-04-22T08:56:15-07:00</time>
</trkpt>
<trkpt lat="38.19992" lon="-120.37542">
<ele>1037.4</ele>
<time>2026-04-22T08:56:16-07:00</time>
</trkpt>
<trkpt lat="38.19988" lon="-120.37554">
<ele>1032.1</ele>
<time>2026-04-22T08:56:17-07:00</time>
</trkpt>
<trkpt lat="38.19984" lon="-120.37551">
<ele>1032.1</ele>
<time>2026-04-22T08:56:18-07:00</time>
</trkpt>
<trkpt lat="38.19972" lon="-120.37524">
<ele>1028.1</ele>
<time>2026-04-22T08:56:19-07:00</time>
</trkpt>
<trkpt lat="38.19968" lon="-120.37522">
<ele>1028.1</ele>
<time>2026-04-22T08:56:20-07:00</time>
</trkpt>
<trkpt lat="38.19972" lon="-120.37547">
<ele>1023.5</ele>
<time>2026-04-22T08:56:21-07:00</time>
</trkpt>
<trkpt lat="38.19971" lon="-120.37566">
<ele>1021.9</ele>
<time>2026-04-22T08:56:22-07:00</time>
</trkpt>
<trkpt lat="38.19973" lon="-120.37589">
<ele>1022.4</ele>
<time>2026-04-22T08:56:23-07:00</time>
</trkpt>
<trkpt lat="38.19966" lon="-120.3761">
<ele>1015.2</ele>
<time>2026-04-22T08:56:24-07:00</time>
</trkpt>
<trkpt lat="38.19977" lon="-120.37649">
<ele>1014.2</ele>
<time>2026-04-22T08:56:25-07:00</time>
</trkpt>
<trkpt lat="38.19977" lon="-120.37654">
<ele>1014.2</ele>
<time>2026-04-22T08:56:26-07:00</time>
</trkpt>
<trkpt lat="38.19973" lon="-120.37661">
<ele>1012.8</ele>
<time>2026-04-22T08:56:27-07:00</time>
</trkpt>
<trkpt lat="38.19973" lon="-120.37668">
<ele>1010.8</ele>
<time>2026-04-22T08:56:28-07:00</time>
</trkpt>
<trkpt lat="38.19975" lon="-120.37674">
<ele>1010.8</ele>
<time>2026-04-22T08:56:29-07:00</time>
</trkpt>
<trkpt lat="38.19953" lon="-120.37688">
<ele>1013.1</ele>
<time>2026-04-22T08:56:30-07:00</time>
</trkpt>
<trkpt lat="38.1995" lon="-120.37688">
<ele>1013.1</ele>
<time>2026-04-22T08:56:31-07:00</time>
</trkpt>
<trkpt lat="38.19939" lon="-120.37675">
<ele>1010.7</ele>
<time>2026-04-22T08:56:32-07:00</time>
</trkpt>
<trkpt lat="38.19936" lon="-120.37674">
<ele>1010.7</ele>
<time>2026-04-22T08:56:33-07:00</time>
</trkpt>
<trkpt lat="38.19939" lon="-120.37687">
<ele>1015.9</ele>
<time>2026-04-22T08:56:34-07:00</time>
</trkpt>
<trkpt lat="38.1995" lon="-120.37698">
<ele>1017.7</ele>
<time>2026-04-22T08:56:35-07:00</time>
</trkpt>
<trkpt lat="38.19929" lon="-120.37694">
<ele>1018.3</ele>
<time>2026-04-22T08:56:36-07:00</time>
</trkpt>
<trkpt lat="38.19926" lon="-120.37695">
<ele>1021.5</ele>
<time>2026-04-22T08:56:37-07:00</time>
</trkpt>
<trkpt lat="38.19947" lon="-120.37708">
<ele>1022</ele>
<time>2026-04-22T08:56:38-07:00</time>
</trkpt>
<trkpt lat="38.19947" lon="-120.37711">
<ele>1022</ele>
<time>2026-04-22T08:56:39-07:00</time>
</trkpt>
<trkpt lat="38.1993" lon="-120.3771">
<ele>1025</ele>
<time>2026-04-22T08:56:40-07:00</time>
</trkpt>
<trkpt lat="38.19927" lon="-120.37712">
<ele>1025</ele>
<time>2026-04-22T08:56:41-07:00</time>
</trkpt>
<trkpt lat="38.19944" lon="-120.3772">
<ele>1027.2</ele>
<time>2026-04-22T08:56:42-07:00</time>
</trkpt>
<trkpt lat="38.1995" lon="-120.37726">
<ele>1030.2</ele>
<time>2026-04-22T08:56:43-07:00</time>
</trkpt>
<trkpt lat="38.19912" lon="-120.3774">
<ele>1031.9</ele>
<time>2026-04-22T08:56:44-07:00</time>
</trkpt>
<trkpt lat="38.19903" lon="-120.37753">
<ele>1033.7</ele>
<time>2026-04-22T08:56:45-07:00</time>
</trkpt>
<trkpt lat="38.19888" lon="-120.37769">
<ele>1029.4</ele>
<time>2026-04-22T08:56:46-07:00</time>
</trkpt>
<trkpt lat="38.1988" lon="-120.37783">
<ele>1032.6</ele>
<time>2026-04-22T08:56:47-07:00</time>
</trkpt>
<trkpt lat="38.19856" lon="-120.37808">
<ele>1027.8</ele>
<time>2026-04-22T08:56:48-07:00</time>
</trkpt>
<trkpt lat="38.19834" lon="-120.37839">
<ele>1027.3</ele>
<time>2026-04-22T08:56:49-07:00</time>
</trkpt>
<trkpt lat="38.19807" lon="-120.37867">
<ele>1024.1</ele>
<time>2026-04-22T08:56:50-07:00</time>
</trkpt>
<trkpt lat="38.19788" lon="-120.37883">
<ele>1020.9</ele>
<time>2026-04-22T08:56:51-07:00</time>
</trkpt>
<trkpt lat="38.1978" lon="-120.37893">
<ele>1016.1</ele>
<time>2026-04-22T08:56:52-07:00</time>
</trkpt>
<trkpt lat="38.19771" lon="-120.37915">
<ele>1010.3</ele>
<time>2026-04-22T08:56:53-07:00</time>
</trkpt>
<trkpt lat="38.19773" lon="-120.37935">
<ele>1008.9</ele>
<time>2026-04-22T08:56:54-07:00</time>
</trkpt>
<trkpt lat="38.19762" lon="-120.37924">
<ele>1009</ele>
<time>2026-04-22T08:56:55-07:00</time>
</trkpt>
<trkpt lat="38.19753" lon="-120.37905">
<ele>1009.2</ele>
<time>2026-04-22T08:56:56-07:00</time>
</trkpt>
<trkpt lat="38.19724" lon="-120.37872">
<ele>1007</ele>
<time>2026-04-22T08:56:57-07:00</time>
</trkpt>
<trkpt lat="38.19717" lon="-120.37869">
<ele>1003.4</ele>
<time>2026-04-22T08:56:58-07:00</time>
</trkpt>
<trkpt lat="38.19694" lon="-120.37874">
<ele>1005.8</ele>
<time>2026-04-22T08:56:59-07:00</time>
</trkpt>
<trkpt lat="38.19677" lon="-120.37911">
<ele>1007.7</ele>
<time>2026-04-22T08:57:00-07:00</time>
</trkpt>
<trkpt lat="38.19684" lon="-120.37946">
<ele>1005.9</ele>
<time>2026-04-22T08:57:01-07:00</time>
</trkpt>
<trkpt lat="38.19695" lon="-120.37971">
<ele>1008.3</ele>
<time>2026-04-22T08:57:02-07:00</time>
</trkpt>
<trkpt lat="38.19715" lon="-120.38003">
<ele>1008.6</ele>
<time>2026-04-22T08:57:03-07:00</time>
</trkpt>
<trkpt lat="38.19713" lon="-120.38031">
<ele>1008</ele>
<time>2026-04-22T08:57:04-07:00</time>
</trkpt>
<trkpt lat="38.19706" lon="-120.38049">
<ele>1007.4</ele>
<time>2026-04-22T08:57:05-07:00</time>
</trkpt>
<trkpt lat="38.19704" lon="-120.3805">
<ele>1007.4</ele>
<time>2026-04-22T08:57:06-07:00</time>
</trkpt>
<trkpt lat="38.19693" lon="-120.38042">
<ele>1006.5</ele>
<time>2026-04-22T08:57:07-07:00</time>
</trkpt>
<trkpt lat="38.19684" lon="-120.38039">
<ele>1006.8</ele>
<time>2026-04-22T08:57:08-07:00</time>
</trkpt>
<trkpt lat="38.19668" lon="-120.38037">
<ele>1002.4</ele>
<time>2026-04-22T08:57:09-07:00</time>
</trkpt>
<trkpt lat="38.19657" lon="-120.38041">
<ele>1004</ele>
<time>2026-04-22T08:57:10-07:00</time>
</trkpt>
<trkpt lat="38.19648" lon="-120.38038">
<ele>1004.7</ele>
<time>2026-04-22T08:57:11-07:00</time>
</trkpt>
<trkpt lat="38.19603" lon="-120.38048">
<ele>1000.3</ele>
<time>2026-04-22T08:57:12-07:00</time>
</trkpt>
<trkpt lat="38.19592" lon="-120.38066">
<ele>1001.3</ele>
<time>2026-04-22T08:57:13-07:00</time>
</trkpt>
<trkpt lat="38.19554" lon="-120.38062">
<ele>993.3</ele>
<time>2026-04-22T08:57:14-07:00</time>
</trkpt>
<trkpt lat="38.19518" lon="-120.38079">
<ele>988.1</ele>
<time>2026-04-22T08:57:15-07:00</time>
</trkpt>
<trkpt lat="38.19504" lon="-120.38103">
<ele>993.9</ele>
<time>2026-04-22T08:57:16-07:00</time>
</trkpt>
<trkpt lat="38.19478" lon="-120.38115">
<ele>995.6</ele>
<time>2026-04-22T08:57:17-07:00</time>
</trkpt>
<trkpt lat="38.19469" lon="-120.38123">
<ele>997.4</ele>
<time>2026-04-22T08:57:18-07:00</time>
</trkpt>
<trkpt lat="38.19462" lon="-120.38139">
<ele>997.8</ele>
<time>2026-04-22T08:57:19-07:00</time>
</trkpt>
<trkpt lat="38.19464" lon="-120.38148">
<ele>1001</ele>
<time>2026-04-22T08:57:20-07:00</time>
</trkpt>
<trkpt lat="38.19488" lon="-120.38167">
<ele>1002.3</ele>
<time>2026-04-22T08:57:21-07:00</time>
</trkpt>
<trkpt lat="38.19507" lon="-120.38175">
<ele>1005</ele>
<time>2026-04-22T08:57:22-07:00</time>
</trkpt>
<trkpt lat="38.19523" lon="-120.38185">
<ele>1004.5</ele>
<time>2026-04-22T08:57:23-07:00</time>
</trkpt>
<trkpt lat="38.19549" lon="-120.38212">
<ele>1007.2</ele>
<time>2026-04-22T08:57:24-07:00</time>
</trkpt>
<trkpt lat="38.19576" lon="-120.38226">
<ele>1009.5</ele>
<time>2026-04-22T08:57:25-07:00</time>
</trkpt>
<trkpt lat="38.19594" lon="-120.38256">
<ele>1008.6</ele>
<time>2026-04-22T08:57:26-07:00</time>
</trkpt>
<trkpt lat="38.19612" lon="-120.38276">
<ele>1013.6</ele>
<time>2026-04-22T08:57:27-07:00</time>
</trkpt>
<trkpt lat="38.19635" lon="-120.38292">
<ele>1016.8</ele>
<time>2026-04-22T08:57:28-07:00</time>
</trkpt>
<trkpt lat="38.19648" lon="-120.38322">
<ele>1014.7</ele>
<time>2026-04-22T08:57:29-07:00</time>
</trkpt>
<trkpt lat="38.1965" lon="-120.38333">
<ele>1017.4</ele>
<time>2026-04-22T08:57:30-07:00</time>
</trkpt>
<trkpt lat="38.19636" lon="-120.38357">
<ele>1021</ele>
<time>2026-04-22T08:57:31-07:00</time>
</trkpt>
<trkpt lat="38.19609" lon="-120.38365">
<ele>1023.1</ele>
<time>2026-04-22T08:57:32-07:00</time>
</trkpt>
<trkpt lat="38.19591" lon="-120.38367">
<ele>1024.2</ele>
<time>2026-04-22T08:57:33-07:00</time>
</trkpt>
<trkpt lat="38.19574" lon="-120.38364">
<ele>1024.4</ele>
<time>2026-04-22T08:57:34-07:00</time>
</trkpt>
<trkpt lat="38.19556" lon="-120.38371">
<ele>1026.5</ele>
<time>2026-04-22T08:57:35-07:00</time>
</trkpt>
<trkpt lat="38.19503" lon="-120.38376">
<ele>1025.6</ele>
<time>2026-04-22T08:57:36-07:00</time>
</trkpt>
<trkpt lat="38.19471" lon="-120.38389">
<ele>1025.5</ele>
<time>2026-04-22T08:57:37-07:00</time>
</trkpt>
<trkpt lat="38.19438" lon="-120.38413">
<ele>1023.9</ele>
<time>2026-04-22T08:57:38-07:00</time>
</trkpt>
<trkpt lat="38.19431" lon="-120.38421">
<ele>1022.3</ele>
<time>2026-04-22T08:57:39-07:00</time>
</trkpt>
<trkpt lat="38.1944" lon="-120.38484">
<ele>1021.8</ele>
<time>2026-04-22T08:57:40-07:00</time>
</trkpt>
<trkpt lat="38.19442" lon="-120.3849">
<ele>1021.8</ele>
<time>2026-04-22T08:57:41-07:00</time>
</trkpt>
<trkpt lat="38.19422" lon="-120.38532">
<ele>1019.5</ele>
<time>2026-04-22T08:57:42-07:00</time>
</trkpt>
<trkpt lat="38.19429" lon="-120.38599">
<ele>1020.8</ele>
<time>2026-04-22T08:57:43-07:00</time>
</trkpt>
<trkpt lat="38.19418" lon="-120.38609">
<ele>1021.8</ele>
<time>2026-04-22T08:57:44-07:00</time>
</trkpt>
<trkpt lat="38.19377" lon="-120.38562">
<ele>1023.2</ele>
<time>2026-04-22T08:57:45-07:00</time>
</trkpt>
<trkpt lat="38.19361" lon="-120.38547">
<ele>1026.2</ele>
<time>2026-04-22T08:57:46-07:00</time>
</trkpt>
<trkpt lat="38.19334" lon="-120.38527">
<ele>1018.6</ele>
<time>2026-04-22T08:57:47-07:00</time>
</trkpt>
<trkpt lat="38.19325" lon="-120.38522">
<ele>1020.4</ele>
<time>2026-04-22T08:57:48-07:00</time>
</trkpt>
<trkpt lat="38.19299" lon="-120.38514">
<ele>1020.8</ele>
<time>2026-04-22T08:57:49-07:00</time>
</trkpt>
<trkpt lat="38.19281" lon="-120.38504">
<ele>1023.7</ele>
<time>2026-04-22T08:57:50-07:00</time>
</trkpt>
<trkpt lat="38.1927" lon="-120.38492">
<ele>1027.4</ele>
<time>2026-04-22T08:57:51-07:00</time>
</trkpt>
<trkpt lat="38.19259" lon="-120.38474">
<ele>1031.1</ele>
<time>2026-04-22T08:57:52-07:00</time>
</trkpt>
<trkpt lat="38.19239" lon="-120.38454">
<ele>1032</ele>
<time>2026-04-22T08:57:53-07:00</time>
</trkpt>
<trkpt lat="38.19225" lon="-120.38444">
<ele>1031.6</ele>
<time>2026-04-22T08:57:54-07:00</time>
</trkpt>
<trkpt lat="38.19215" lon="-120.38432">
<ele>1032.3</ele>
<time>2026-04-22T08:57:55-07:00</time>
</trkpt>
<trkpt lat="38.19209" lon="-120.38429">
<ele>1035</ele>
<time>2026-04-22T08:57:56-07:00</time>
</trkpt>
<trkpt lat="38.19198" lon="-120.3843">
<ele>1035.1</ele>
<time>2026-04-22T08:57:57-07:00</time>
</trkpt>
<trkpt lat="38.19192" lon="-120.38436">
<ele>1037.5</ele>
<time>2026-04-22T08:57:58-07:00</time>
</trkpt>
<trkpt lat="38.19173" lon="-120.38467">
<ele>1042</ele>
<time>2026-04-22T08:57:59-07:00</time>
</trkpt>
<trkpt lat="38.19171" lon="-120.38473">
<ele>1045.2</ele>
<time>2026-04-22T08:58:00-07:00</time>
</trkpt>
<trkpt lat="38.19189" lon="-120.38468">
<ele>1046.3</ele>
<time>2026-04-22T08:58:01-07:00</time>
</trkpt>
<trkpt lat="38.19192" lon="-120.38468">
<ele>1046.3</ele>
<time>2026-04-22T08:58:02-07:00</time>
</trkpt>
<trkpt lat="38.19194" lon="-120.3847">
<ele>1046.3</ele>
<time>2026-04-22T08:58:03-07:00</time>
</trkpt>
<trkpt lat="38.19158" lon="-120.38495">
<ele>1051.2</ele>
<time>2026-04-22T08:58:04-07:00</time>
</trkpt>
<trkpt lat="38.19167" lon="-120.38497">
<ele>1052.8</ele>
<time>2026-04-22T08:58:05-07:00</time>
</trkpt>
<trkpt lat="38.19171" lon="-120.38496">
<ele>1052.8</ele>
<time>2026-04-22T08:58:06-07:00</time>
</trkpt>
<trkpt lat="38.19187" lon="-120.38502">
<ele>1059</ele>
<time>2026-04-22T08:58:07-07:00</time>
</trkpt>
<trkpt lat="38.19115" lon="-120.38576">
<ele>1062.1</ele>
<time>2026-04-22T08:58:08-07:00</time>
</trkpt>
<trkpt lat="38.19101" lon="-120.38583">
<ele>1054.3</ele>
<time>2026-04-22T08:58:09-07:00</time>
</trkpt>
<trkpt lat="38.19084" lon="-120.38599">
<ele>1057.3</ele>
<time>2026-04-22T08:58:10-07:00</time>
</trkpt>
<trkpt lat="38.19064" lon="-120.38627">
<ele>1055</ele>
<time>2026-04-22T08:58:11-07:00</time>
</trkpt>
<trkpt lat="38.19052" lon="-120.38664">
<ele>1055.2</ele>
<time>2026-04-22T08:58:12-07:00</time>
</trkpt>
<trkpt lat="38.19054" lon="-120.38696">
<ele>1050.9</ele>
<time>2026-04-22T08:58:13-07:00</time>
</trkpt>
<trkpt lat="38.19062" lon="-120.38764">
<ele>1046.5</ele>
<time>2026-04-22T08:58:14-07:00</time>
</trkpt>
<trkpt lat="38.19068" lon="-120.3877">
<ele>1044.6</ele>
<time>2026-04-22T08:58:15-07:00</time>
</trkpt>
<trkpt lat="38.19071" lon="-120.3877">
<ele>1044.6</ele>
<time>2026-04-22T08:58:16-07:00</time>
</trkpt>
<trkpt lat="38.19086" lon="-120.3878">
<ele>1041.8</ele>
<time>2026-04-22T08:58:17-07:00</time>
</trkpt>
<trkpt lat="38.1913" lon="-120.38788">
<ele>1047.9</ele>
<time>2026-04-22T08:58:18-07:00</time>
</trkpt>
<trkpt lat="38.19133" lon="-120.38809">
<ele>1045.2</ele>
<time>2026-04-22T08:58:19-07:00</time>
</trkpt>
<trkpt lat="38.19131" lon="-120.3882">
<ele>1043.6</ele>
<time>2026-04-22T08:58:20-07:00</time>
</trkpt>
<trkpt lat="38.19128" lon="-120.38893">
<ele>1035.9</ele>
<time>2026-04-22T08:58:21-07:00</time>
</trkpt>
<trkpt lat="38.1911" lon="-120.3896">
<ele>1030.7</ele>
<time>2026-04-22T08:58:22-07:00</time>
</trkpt>
<trkpt lat="38.1911" lon="-120.38965">
<ele>1030.3</ele>
<time>2026-04-22T08:58:23-07:00</time>
</trkpt>
<trkpt lat="38.19142" lon="-120.39014">
<ele>1029.1</ele>
<time>2026-04-22T08:58:24-07:00</time>
</trkpt>
<trkpt lat="38.19194" lon="-120.3901">
<ele>1028.4</ele>
<time>2026-04-22T08:58:25-07:00</time>
</trkpt>
<trkpt lat="38.19221" lon="-120.3902">
<ele>1028.7</ele>
<time>2026-04-22T08:58:26-07:00</time>
</trkpt>
<trkpt lat="38.19265" lon="-120.39029">
<ele>1036.6</ele>
<time>2026-04-22T08:58:27-07:00</time>
</trkpt>
<trkpt lat="38.1931" lon="-120.3904">
<ele>1040.1</ele>
<time>2026-04-22T08:58:28-07:00</time>
</trkpt>
<trkpt lat="38.19317" lon="-120.39043">
<ele>1041.3</ele>
<time>2026-04-22T08:58:29-07:00</time>
</trkpt>
<trkpt lat="38.19339" lon="-120.39041">
<ele>1041.7</ele>
<time>2026-04-22T08:58:30-07:00</time>
</trkpt>
<trkpt lat="38.19412" lon="-120.39014">
<ele>1041.6</ele>
<time>2026-04-22T08:58:31-07:00</time>
</trkpt>
<trkpt lat="38.1943" lon="-120.39017">
<ele>1038.4</ele>
<time>2026-04-22T08:58:32-07:00</time>
</trkpt>
<trkpt lat="38.1946" lon="-120.3903">
<ele>1038.2</ele>
<time>2026-04-22T08:58:33-07:00</time>
</trkpt>
<trkpt lat="38.19445" lon="-120.39073">
<ele>1044.1</ele>
<time>2026-04-22T08:58:34-07:00</time>
</trkpt>
<trkpt lat="38.19441" lon="-120.39091">
<ele>1042.8</ele>
<time>2026-04-22T08:58:35-07:00</time>
</trkpt>
<trkpt lat="38.19441" lon="-120.39103">
<ele>1043.8</ele>
<time>2026-04-22T08:58:36-07:00</time>
</trkpt>
<trkpt lat="38.19437" lon="-120.39122">
<ele>1045.3</ele>
<time>2026-04-22T08:58:37-07:00</time>
</trkpt>
<trkpt lat="38.1941" lon="-120.39153">
<ele>1046.5</ele>
<time>2026-04-22T08:58:38-07:00</time>
</trkpt>
<trkpt lat="38.19397" lon="-120.39165">
<ele>1044.5</ele>
<time>2026-04-22T08:58:39-07:00</time>
</trkpt>
<trkpt lat="38.19351" lon="-120.39244">
<ele>1044.7</ele>
<time>2026-04-22T08:58:40-07:00</time>
</trkpt>
<trkpt lat="38.19319" lon="-120.39273">
<ele>1046.6</ele>
<time>2026-04-22T08:58:41-07:00</time>
</trkpt>
<trkpt lat="38.1931" lon="-120.39295">
<ele>1045.3</ele>
<time>2026-04-22T08:58:42-07:00</time>
</trkpt>
<trkpt lat="38.19312" lon="-120.39333">
<ele>1044.3</ele>
<time>2026-04-22T08:58:43-07:00</time>
</trkpt>
<trkpt lat="38.19312" lon="-120.39396">
<ele>1045</ele>
<time>2026-04-22T08:58:44-07:00</time>
</trkpt>
<trkpt lat="38.193" lon="-120.39433">
<ele>1048.5</ele>
<time>2026-04-22T08:58:45-07:00</time>
</trkpt>
<trkpt lat="38.19279" lon="-120.39483">
<ele>1046.3</ele>
<time>2026-04-22T08:58:46-07:00</time>
</trkpt>
<trkpt lat="38.19271" lon="-120.39494">
<ele>1044.1</ele>
<time>2026-04-22T08:58:47-07:00</time>
</trkpt>
<trkpt lat="38.19254" lon="-120.39504">
<ele>1038.8</ele>
<time>2026-04-22T08:58:48-07:00</time>
</trkpt>
<trkpt lat="38.19213" lon="-120.39537">
<ele>1032.1</ele>
<time>2026-04-22T08:58:49-07:00</time>
</trkpt>
<trkpt lat="38.19215" lon="-120.3954">
<ele>1031.9</ele>
<time>2026-04-22T08:58:50-07:00</time>
</trkpt>
<trkpt lat="38.19245" lon="-120.3955">
<ele>1034.9</ele>
<time>2026-04-22T08:58:51-07:00</time>
</trkpt>
<trkpt lat="38.19281" lon="-120.39567">
<ele>1038.2</ele>
<time>2026-04-22T08:58:52-07:00</time>
</trkpt>
<trkpt lat="38.19333" lon="-120.39579">
<ele>1038.9</ele>
<time>2026-04-22T08:58:53-07:00</time>
</trkpt>
<trkpt lat="38.19361" lon="-120.3958">
<ele>1039.3</ele>
<time>2026-04-22T08:58:54-07:00</time>
</trkpt>
<trkpt lat="38.19399" lon="-120.39588">
<ele>1041.8</ele>
<time>2026-04-22T08:58:55-07:00</time>
</trkpt>
<trkpt lat="38.19422" lon="-120.39596">
<ele>1042.8</ele>
<time>2026-04-22T08:58:56-07:00</time>
</trkpt>
<trkpt lat="38.19442" lon="-120.39608">
<ele>1043.7</ele>
<time>2026-04-22T08:58:57-07:00</time>
</trkpt>
<trkpt lat="38.19451" lon="-120.3961">
<ele>1045.1</ele>
<time>2026-04-22T08:58:58-07:00</time>
</trkpt>
<trkpt lat="38.19467" lon="-120.39609">
<ele>1045.7</ele>
<time>2026-04-22T08:58:59-07:00</time>
</trkpt>
<trkpt lat="38.19484" lon="-120.39604">
<ele>1047.1</ele>
<time>2026-04-22T08:59:00-07:00</time>
</trkpt>
<trkpt lat="38.19523" lon="-120.39586">
<ele>1049.9</ele>
<time>2026-04-22T08:59:01-07:00</time>
</trkpt>
<trkpt lat="38.19535" lon="-120.39578">
<ele>1050.6</ele>
<time>2026-04-22T08:59:02-07:00</time>
</trkpt>
<trkpt lat="38.19574" lon="-120.39561">
<ele>1050.5</ele>
<time>2026-04-22T08:59:03-07:00</time>
</trkpt>
<trkpt lat="38.19628" lon="-120.39532">
<ele>1055.2</ele>
<time>2026-04-22T08:59:04-07:00</time>
</trkpt>
<trkpt lat="38.19677" lon="-120.39547">
<ele>1056.4</ele>
<time>2026-04-22T08:59:05-07:00</time>
</trkpt>
<trkpt lat="38.197" lon="-120.39571">
<ele>1056.3</ele>
<time>2026-04-22T08:59:06-07:00</time>
</trkpt>
<trkpt lat="38.19715" lon="-120.3959">
<ele>1055.7</ele>
<time>2026-04-22T08:59:07-07:00</time>
</trkpt>
<trkpt lat="38.19718" lon="-120.39599">
<ele>1054.9</ele>
<time>2026-04-22T08:59:08-07:00</time>
</trkpt>
<trkpt lat="38.19718" lon="-120.39608">
<ele>1055.4</ele>
<time>2026-04-22T08:59:09-07:00</time>
</trkpt>
<trkpt lat="38.19704" lon="-120.39657">
<ele>1057.9</ele>
<time>2026-04-22T08:59:10-07:00</time>
</trkpt>
<trkpt lat="38.19704" lon="-120.39702">
<ele>1061.9</ele>
<time>2026-04-22T08:59:11-07:00</time>
</trkpt>
<trkpt lat="38.197" lon="-120.3974">
<ele>1065.2</ele>
<time>2026-04-22T08:59:12-07:00</time>
</trkpt>
<trkpt lat="38.19693" lon="-120.39766">
<ele>1067.6</ele>
<time>2026-04-22T08:59:13-07:00</time>
</trkpt>
<trkpt lat="38.19659" lon="-120.39816">
<ele>1073.8</ele>
<time>2026-04-22T08:59:14-07:00</time>
</trkpt>
<trkpt lat="38.19648" lon="-120.39829">
<ele>1073.5</ele>
<time>2026-04-22T08:59:15-07:00</time>
</trkpt>
<trkpt lat="38.1961" lon="-120.39864">
<ele>1077.3</ele>
<time>2026-04-22T08:59:16-07:00</time>
</trkpt>
<trkpt lat="38.19586" lon="-120.39882">
<ele>1081.3</ele>
<time>2026-04-22T08:59:17-07:00</time>
</trkpt>
<trkpt lat="38.19561" lon="-120.39897">
<ele>1080.6</ele>
<time>2026-04-22T08:59:18-07:00</time>
</trkpt>
<trkpt lat="38.1954" lon="-120.39915">
<ele>1083.5</ele>
<time>2026-04-22T08:59:19-07:00</time>
</trkpt>
<trkpt lat="38.19531" lon="-120.39935">
<ele>1085.3</ele>
<time>2026-04-22T08:59:20-07:00</time>
</trkpt>
<trkpt lat="38.19532" lon="-120.39946">
<ele>1086.1</ele>
<time>2026-04-22T08:59:21-07:00</time>
</trkpt>
<trkpt lat="38.19543" lon="-120.39962">
<ele>1085.7</ele>
<time>2026-04-22T08:59:22-07:00</time>
</trkpt>
<trkpt lat="38.19559" lon="-120.39971">
<ele>1085.5</ele>
<time>2026-04-22T08:59:23-07:00</time>
</trkpt>
<trkpt lat="38.19608" lon="-120.39955">
<ele>1091.3</ele>
<time>2026-04-22T08:59:24-07:00</time>
</trkpt>
<trkpt lat="38.19646" lon="-120.39977">
<ele>1095.4</ele>
<time>2026-04-22T08:59:25-07:00</time>
</trkpt>
<trkpt lat="38.19662" lon="-120.39984">
<ele>1097.8</ele>
<time>2026-04-22T08:59:26-07:00</time>
</trkpt>
<trkpt lat="38.19679" lon="-120.39997">
<ele>1099.5</ele>
<time>2026-04-22T08:59:27-07:00</time>
</trkpt>
<trkpt lat="38.19683" lon="-120.39991">
<ele>1099.5</ele>
<time>2026-04-22T08:59:28-07:00</time>
</trkpt>
<trkpt lat="38.19698" lon="-120.39996">
<ele>1101.4</ele>
<time>2026-04-22T08:59:29-07:00</time>
</trkpt>
<trkpt lat="38.19706" lon="-120.40001">
<ele>1102.9</ele>
<time>2026-04-22T08:59:30-07:00</time>
</trkpt>
<trkpt lat="38.19715" lon="-120.4001">
<ele>1102.9</ele>
<time>2026-04-22T08:59:31-07:00</time>
</trkpt>
<trkpt lat="38.19719" lon="-120.40008">
<ele>1103.2</ele>
<time>2026-04-22T08:59:32-07:00</time>
</trkpt>
<trkpt lat="38.19727" lon="-120.39999">
<ele>1104.4</ele>
<time>2026-04-22T08:59:33-07:00</time>
</trkpt>
<trkpt lat="38.19738" lon="-120.39999">
<ele>1104.8</ele>
<time>2026-04-22T08:59:34-07:00</time>
</trkpt>
<trkpt lat="38.19748" lon="-120.39994">
<ele>1105</ele>
<time>2026-04-22T08:59:35-07:00</time>
</trkpt>
<trkpt lat="38.19767" lon="-120.39967">
<ele>1106.2</ele>
<time>2026-04-22T08:59:36-07:00</time>
</trkpt>
<trkpt lat="38.19775" lon="-120.39962">
<ele>1106.1</ele>
<time>2026-04-22T08:59:37-07:00</time>
</trkpt>
<trkpt lat="38.19777" lon="-120.39959">
<ele>1106.1</ele>
<time>2026-04-22T08:59:38-07:00</time>
</trkpt>
<trkpt lat="38.19803" lon="-120.3995">
<ele>1106.4</ele>
<time>2026-04-22T08:59:39-07:00</time>
</trkpt>
<trkpt lat="38.19825" lon="-120.39948">
<ele>1106.3</ele>
<time>2026-04-22T08:59:40-07:00</time>
</trkpt>
<trkpt lat="38.19832" lon="-120.39951">
<ele>1106.3</ele>
<time>2026-04-22T08:59:41-07:00</time>
</trkpt>
<trkpt lat="38.19851" lon="-120.39969">
<ele>1104.1</ele>
<time>2026-04-22T08:59:42-07:00</time>
</trkpt>
<trkpt lat="38.19868" lon="-120.39978">
<ele>1102.1</ele>
<time>2026-04-22T08:59:43-07:00</time>
</trkpt>
<trkpt lat="38.19872" lon="-120.39994">
<ele>1100.1</ele>
<time>2026-04-22T08:59:44-07:00</time>
</trkpt>
<trkpt lat="38.19883" lon="-120.40011">
<ele>1097.9</ele>
<time>2026-04-22T08:59:45-07:00</time>
</trkpt>
<trkpt lat="38.19887" lon="-120.40013">
<ele>1097.9</ele>
<time>2026-04-22T08:59:46-07:00</time>
</trkpt>
<trkpt lat="38.19895" lon="-120.40013">
<ele>1097.2</ele>
<time>2026-04-22T08:59:47-07:00</time>
</trkpt>
<trkpt lat="38.19903" lon="-120.40017">
<ele>1096.1</ele>
<time>2026-04-22T08:59:48-07:00</time>
</trkpt>
<trkpt lat="38.19906" lon="-120.40023">
<ele>1095.9</ele>
<time>2026-04-22T08:59:49-07:00</time>
</trkpt>
<trkpt lat="38.19903" lon="-120.40037">
<ele>1095.5</ele>
<time>2026-04-22T08:59:50-07:00</time>
</trkpt>
<trkpt lat="38.19919" lon="-120.40054">
<ele>1092.7</ele>
<time>2026-04-22T08:59:51-07:00</time>
</trkpt>
<trkpt lat="38.19926" lon="-120.40054">
<ele>1091.3</ele>
<time>2026-04-22T08:59:52-07:00</time>
</trkpt>
<trkpt lat="38.19944" lon="-120.40033">
<ele>1090</ele>
<time>2026-04-22T08:59:53-07:00</time>
</trkpt>
<trkpt lat="38.19946" lon="-120.40032">
<ele>1088</ele>
<time>2026-04-22T08:59:54-07:00</time>
</trkpt>
<trkpt lat="38.19948" lon="-120.40033">
<ele>1088</ele>
<time>2026-04-22T08:59:55-07:00</time>
</trkpt>
<trkpt lat="38.19953" lon="-120.40041">
<ele>1088.1</ele>
<time>2026-04-22T08:59:56-07:00</time>
</trkpt>
<trkpt lat="38.19955" lon="-120.40053">
<ele>1085.7</ele>
<time>2026-04-22T08:59:57-07:00</time>
</trkpt>
<trkpt lat="38.19947" lon="-120.40072">
<ele>1085.7</ele>
<time>2026-04-22T08:59:58-07:00</time>
</trkpt>
<trkpt lat="38.19943" lon="-120.40084">
<ele>1083.2</ele>
<time>2026-04-22T08:59:59-07:00</time>
</trkpt>
<trkpt lat="38.19943" lon="-120.40089">
<ele>1083.2</ele>
<time>2026-04-22T09:00:00-07:00</time>
</trkpt>
<trkpt lat="38.19937" lon="-120.40101">
<ele>1080.3</ele>
<time>2026-04-22T09:00:01-07:00</time>
</trkpt>
<trkpt lat="38.19926" lon="-120.40115">
<ele>1076</ele>
<time>2026-04-22T09:00:02-07:00</time>
</trkpt>
<trkpt lat="38.19927" lon="-120.40117">
<ele>1076</ele>
<time>2026-04-22T09:00:03-07:00</time>
</trkpt>
<trkpt lat="38.19916" lon="-120.40123">
<ele>1074.2</ele>
<time>2026-04-22T09:00:04-07:00</time>
</trkpt>
<trkpt lat="38.19905" lon="-120.40135">
<ele>1071.3</ele>
<time>2026-04-22T09:00:05-07:00</time>
</trkpt>
<trkpt lat="38.19901" lon="-120.40137">
<ele>1071.3</ele>
<time>2026-04-22T09:00:06-07:00</time>
</trkpt>
<trkpt lat="38.19885" lon="-120.4014">
<ele>1068</ele>
<time>2026-04-22T09:00:07-07:00</time>
</trkpt>
<trkpt lat="38.19868" lon="-120.40132">
<ele>1068.7</ele>
<time>2026-04-22T09:00:08-07:00</time>
</trkpt>
<trkpt lat="38.19865" lon="-120.40132">
<ele>1068.7</ele>
<time>2026-04-22T09:00:09-07:00</time>
</trkpt>
<trkpt lat="38.19865" lon="-120.40134">
<ele>1068.7</ele>
<time>2026-04-22T09:00:10-07:00</time>
</trkpt>
<trkpt lat="38.19871" lon="-120.40146">
<ele>1067.1</ele>
<time>2026-04-22T09:00:11-07:00</time>
</trkpt>
<trkpt lat="38.1988" lon="-120.40153">
<ele>1064.8</ele>
<time>2026-04-22T09:00:12-07:00</time>
</trkpt>
<trkpt lat="38.19888" lon="-120.40155">
<ele>1064.8</ele>
<time>2026-04-22T09:00:13-07:00</time>
</trkpt>
<trkpt lat="38.19906" lon="-120.40155">
<ele>1064.4</ele>
<time>2026-04-22T09:00:14-07:00</time>
</trkpt>
<trkpt lat="38.19926" lon="-120.40163">
<ele>1061.9</ele>
<time>2026-04-22T09:00:15-07:00</time>
</trkpt>
<trkpt lat="38.19932" lon="-120.40168">
<ele>1060.3</ele>
<time>2026-04-22T09:00:16-07:00</time>
</trkpt>
<trkpt lat="38.19946" lon="-120.40174">
<ele>1059.6</ele>
<time>2026-04-22T09:00:17-07:00</time>
</trkpt>
<trkpt lat="38.19966" lon="-120.40175">
<ele>1058.6</ele>
<time>2026-04-22T09:00:18-07:00</time>
</trkpt>
<trkpt lat="38.19976" lon="-120.40173">
<ele>1058.8</ele>
<time>2026-04-22T09:00:19-07:00</time>
</trkpt>
<trkpt lat="38.19985" lon="-120.40175">
<ele>1058.2</ele>
<time>2026-04-22T09:00:20-07:00</time>
</trkpt>
<trkpt lat="38.1999" lon="-120.40179">
<ele>1057.3</ele>
<time>2026-04-22T09:00:21-07:00</time>
</trkpt>
<trkpt lat="38.19992" lon="-120.40188">
<ele>1054.4</ele>
<time>2026-04-22T09:00:22-07:00</time>
</trkpt>
<trkpt lat="38.19986" lon="-120.40213">
<ele>1052.8</ele>
<time>2026-04-22T09:00:23-07:00</time>
</trkpt>
<trkpt lat="38.1999" lon="-120.40222">
<ele>1052.8</ele>
<time>2026-04-22T09:00:24-07:00</time>
</trkpt>
<trkpt lat="38.1999" lon="-120.40231">
<ele>1051.1</ele>
<time>2026-04-22T09:00:25-07:00</time>
</trkpt>
<trkpt lat="38.19983" lon="-120.4026">
<ele>1043.6</ele>
<time>2026-04-22T09:00:26-07:00</time>
</trkpt>
<trkpt lat="38.19977" lon="-120.40269">
<ele>1041.9</ele>
<time>2026-04-22T09:00:27-07:00</time>
</trkpt>
<trkpt lat="38.19983" lon="-120.40277">
<ele>1041.9</ele>
<time>2026-04-22T09:00:28-07:00</time>
</trkpt>
<trkpt lat="38.1999" lon="-120.40282">
<ele>1040.6</ele>
<time>2026-04-22T09:00:29-07:00</time>
</trkpt>
<trkpt lat="38.2002" lon="-120.40278">
<ele>1039.3</ele>
<time>2026-04-22T09:00:30-07:00</time>
</trkpt>
<trkpt lat="38.20024" lon="-120.40276">
<ele>1039.9</ele>
<time>2026-04-22T09:00:31-07:00</time>
</trkpt>
<trkpt lat="38.20044" lon="-120.40257">
<ele>1039.6</ele>
<time>2026-04-22T09:00:32-07:00</time>
</trkpt>
<trkpt lat="38.20055" lon="-120.40253">
<ele>1039</ele>
<time>2026-04-22T09:00:33-07:00</time>
</trkpt>
<trkpt lat="38.2006" lon="-120.40247">
<ele>1038.7</ele>
<time>2026-04-22T09:00:34-07:00</time>
</trkpt>
<trkpt lat="38.20066" lon="-120.4023">
<ele>1037.3</ele>
<time>2026-04-22T09:00:35-07:00</time>
</trkpt>
<trkpt lat="38.20076" lon="-120.40214">
<ele>1035</ele>
<time>2026-04-22T09:00:36-07:00</time>
</trkpt>
<trkpt lat="38.20078" lon="-120.402">
<ele>1034.2</ele>
<time>2026-04-22T09:00:37-07:00</time>
</trkpt>
<trkpt lat="38.20082" lon="-120.40191">
<ele>1034</ele>
<time>2026-04-22T09:00:38-07:00</time>
</trkpt>
<trkpt lat="38.20083" lon="-120.40169">
<ele>1034.8</ele>
<time>2026-04-22T09:00:39-07:00</time>
</trkpt>
<trkpt lat="38.2008" lon="-120.4016">
<ele>1035.2</ele>
<time>2026-04-22T09:00:40-07:00</time>
</trkpt>
<trkpt lat="38.20084" lon="-120.40148">
<ele>1036.5</ele>
<time>2026-04-22T09:00:41-07:00</time>
</trkpt>
<trkpt lat="38.20092" lon="-120.40138">
<ele>1037.8</ele>
<time>2026-04-22T09:00:42-07:00</time>
</trkpt>
<trkpt lat="38.20095" lon="-120.40131">
<ele>1036.9</ele>
<time>2026-04-22T09:00:43-07:00</time>
</trkpt>
<trkpt lat="38.201" lon="-120.40127">
<ele>1037.9</ele>
<time>2026-04-22T09:00:44-07:00</time>
</trkpt>
<trkpt lat="38.20106" lon="-120.40126">
<ele>1036.9</ele>
<time>2026-04-22T09:00:45-07:00</time>
</trkpt>
<trkpt lat="38.20123" lon="-120.40156">
<ele>1032.9</ele>
<time>2026-04-22T09:00:46-07:00</time>
</trkpt>
<trkpt lat="38.20125" lon="-120.40157">
<ele>1032.9</ele>
<time>2026-04-22T09:00:47-07:00</time>
</trkpt>
<trkpt lat="38.20142" lon="-120.40151">
<ele>1030.4</ele>
<time>2026-04-22T09:00:48-07:00</time>
</trkpt>
<trkpt lat="38.20147" lon="-120.40136">
<ele>1031.4</ele>
<time>2026-04-22T09:00:49-07:00</time>
</trkpt>
<trkpt lat="38.20147" lon="-120.40132">
<ele>1031.4</ele>
<time>2026-04-22T09:00:50-07:00</time>
</trkpt>
<trkpt lat="38.20151" lon="-120.4013">
<ele>1028.8</ele>
<time>2026-04-22T09:00:51-07:00</time>
</trkpt>
<trkpt lat="38.20156" lon="-120.40132">
<ele>1028.8</ele>
<time>2026-04-22T09:00:52-07:00</time>
</trkpt>
<trkpt lat="38.20161" lon="-120.40144">
<ele>1025.7</ele>
<time>2026-04-22T09:00:53-07:00</time>
</trkpt>
<trkpt lat="38.20161" lon="-120.4016">
<ele>1024.3</ele>
<time>2026-04-22T09:00:54-07:00</time>
</trkpt>
<trkpt lat="38.20159" lon="-120.40168">
<ele>1023</ele>
<time>2026-04-22T09:00:55-07:00</time>
</trkpt>
<trkpt lat="38.20156" lon="-120.40173">
<ele>1025.8</ele>
<time>2026-04-22T09:00:56-07:00</time>
</trkpt>
<trkpt lat="38.20156" lon="-120.40175">
<ele>1025.8</ele>
<time>2026-04-22T09:00:57-07:00</time>
</trkpt>
<trkpt lat="38.20158" lon="-120.40176">
<ele>1021.3</ele>
<time>2026-04-22T09:00:58-07:00</time>
</trkpt>
<trkpt lat="38.20169" lon="-120.40171">
<ele>1020.1</ele>
<time>2026-04-22T09:00:59-07:00</time>
</trkpt>
<trkpt lat="38.20176" lon="-120.4017">
<ele>1017.2</ele>
<time>2026-04-22T09:01:00-07:00</time>
</trkpt>
<trkpt lat="38.2018" lon="-120.40166">
<ele>1018.2</ele>
<time>2026-04-22T09:01:01-07:00</time>
</trkpt>
<trkpt lat="38.20191" lon="-120.40162">
<ele>1015.3</ele>
<time>2026-04-22T09:01:02-07:00</time>
</trkpt>
<trkpt lat="38.20199" lon="-120.40155">
<ele>1014.7</ele>
<time>2026-04-22T09:01:03-07:00</time>
</trkpt>
<trkpt lat="38.20208" lon="-120.40157">
<ele>1016</ele>
<time>2026-04-22T09:01:04-07:00</time>
</trkpt>
<trkpt lat="38.20212" lon="-120.40164">
<ele>1016.1</ele>
<time>2026-04-22T09:01:05-07:00</time>
</trkpt>
<trkpt lat="38.20216" lon="-120.40187">
<ele>1015.9</ele>
<time>2026-04-22T09:01:06-07:00</time>
</trkpt>
<trkpt lat="38.20208" lon="-120.40196">
<ele>1014</ele>
<time>2026-04-22T09:01:07-07:00</time>
</trkpt>
<trkpt lat="38.20207" lon="-120.40201">
<ele>1014</ele>
<time>2026-04-22T09:01:08-07:00</time>
</trkpt>
<trkpt lat="38.20219" lon="-120.40208">
<ele>1014.1</ele>
<time>2026-04-22T09:01:09-07:00</time>
</trkpt>
<trkpt lat="38.20223" lon="-120.40208">
<ele>1014.5</ele>
<time>2026-04-22T09:01:10-07:00</time>
</trkpt>
<trkpt lat="38.2023" lon="-120.40212">
<ele>1014.5</ele>
<time>2026-04-22T09:01:11-07:00</time>
</trkpt>
<trkpt lat="38.20238" lon="-120.40219">
<ele>1013.8</ele>
<time>2026-04-22T09:01:12-07:00</time>
</trkpt>
<trkpt lat="38.20248" lon="-120.40236">
<ele>1013.3</ele>
<time>2026-04-22T09:01:13-07:00</time>
</trkpt>
<trkpt lat="38.20253" lon="-120.40239">
<ele>1012.8</ele>
<time>2026-04-22T09:01:14-07:00</time>
</trkpt>
<trkpt lat="38.20257" lon="-120.4024">
<ele>1012.8</ele>
<time>2026-04-22T09:01:15-07:00</time>
</trkpt>
<trkpt lat="38.20268" lon="-120.40237">
<ele>1012.5</ele>
<time>2026-04-22T09:01:16-07:00</time>
</trkpt>
<trkpt lat="38.20275" lon="-120.40239">
<ele>1011.8</ele>
<time>2026-04-22T09:01:17-07:00</time>
</trkpt>
<trkpt lat="38.20277" lon="-120.40238">
<ele>1011.8</ele>
<time>2026-04-22T09:01:18-07:00</time>
</trkpt>
<trkpt lat="38.2029" lon="-120.4024">
<ele>1011.5</ele>
<time>2026-04-22T09:01:19-07:00</time>
</trkpt>
<trkpt lat="38.20291" lon="-120.40248">
<ele>1010.4</ele>
<time>2026-04-22T09:01:20-07:00</time>
</trkpt>
<trkpt lat="38.20288" lon="-120.40257">
<ele>1009.1</ele>
<time>2026-04-22T09:01:21-07:00</time>
</trkpt>
<trkpt lat="38.20293" lon="-120.40267">
<ele>1007.6</ele>
<time>2026-04-22T09:01:22-07:00</time>
</trkpt>
<trkpt lat="38.20294" lon="-120.40277">
<ele>1006.3</ele>
<time>2026-04-22T09:01:23-07:00</time>
</trkpt>
<trkpt lat="38.20292" lon="-120.40294">
<ele>1004.4</ele>
<time>2026-04-22T09:01:24-07:00</time>
</trkpt>
<trkpt lat="38.20295" lon="-120.40303">
<ele>1003.4</ele>
<time>2026-04-22T09:01:25-07:00</time>
</trkpt>
<trkpt lat="38.20302" lon="-120.40308">
<ele>1003.3</ele>
<time>2026-04-22T09:01:26-07:00</time>
</trkpt>
<trkpt lat="38.20308" lon="-120.40321">
<ele>1001.9</ele>
<time>2026-04-22T09:01:27-07:00</time>
</trkpt>
<trkpt lat="38.20315" lon="-120.40327">
<ele>1000.2</ele>
<time>2026-04-22T09:01:28-07:00</time>
</trkpt>
<trkpt lat="38.20324" lon="-120.4033">
<ele>1000.2</ele>
<time>2026-04-22T09:01:29-07:00</time>
</trkpt>
<trkpt lat="38.20339" lon="-120.40338">
<ele>998</ele>
<time>2026-04-22T09:01:30-07:00</time>
</trkpt>
<trkpt lat="38.20351" lon="-120.40349">
<ele>996</ele>
<time>2026-04-22T09:01:31-07:00</time>
</trkpt>
<trkpt lat="38.20351" lon="-120.40368">
<ele>993.9</ele>
<time>2026-04-22T09:01:32-07:00</time>
</trkpt>
<trkpt lat="38.20355" lon="-120.40368">
<ele>992.9</ele>
<time>2026-04-22T09:01:33-07:00</time>
</trkpt>
<trkpt lat="38.20362" lon="-120.40361">
<ele>990.9</ele>
<time>2026-04-22T09:01:34-07:00</time>
</trkpt>
<trkpt lat="38.2037" lon="-120.4036">
<ele>990.9</ele>
<time>2026-04-22T09:01:35-07:00</time>
</trkpt>
<trkpt lat="38.20374" lon="-120.40362">
<ele>989.3</ele>
<time>2026-04-22T09:01:36-07:00</time>
</trkpt>
<trkpt lat="38.20384" lon="-120.40363">
<ele>991.5</ele>
<time>2026-04-22T09:01:37-07:00</time>
</trkpt>
<trkpt lat="38.20398" lon="-120.40372">
<ele>992.8</ele>
<time>2026-04-22T09:01:38-07:00</time>
</trkpt>
<trkpt lat="38.20406" lon="-120.40386">
<ele>993.7</ele>
<time>2026-04-22T09:01:39-07:00</time>
</trkpt>
<trkpt lat="38.20407" lon="-120.40393">
<ele>993.5</ele>
<time>2026-04-22T09:01:40-07:00</time>
</trkpt>
<trkpt lat="38.20406" lon="-120.40438">
<ele>990.5</ele>
<time>2026-04-22T09:01:41-07:00</time>
</trkpt>
<trkpt lat="38.20413" lon="-120.40467">
<ele>989.9</ele>
<time>2026-04-22T09:01:42-07:00</time>
</trkpt>
<trkpt lat="38.20429" lon="-120.40487">
<ele>990</ele>
<time>2026-04-22T09:01:43-07:00</time>
</trkpt>
<trkpt lat="38.2044" lon="-120.40497">
<ele>990.1</ele>
<time>2026-04-22T09:01:44-07:00</time>
</trkpt>
<trkpt lat="38.20462" lon="-120.40504">
<ele>989.5</ele>
<time>2026-04-22T09:01:45-07:00</time>
</trkpt>
<trkpt lat="38.2047" lon="-120.40505">
<ele>989.5</ele>
<time>2026-04-22T09:01:46-07:00</time>
</trkpt>
<trkpt lat="38.20482" lon="-120.40501">
<ele>989.2</ele>
<time>2026-04-22T09:01:47-07:00</time>
</trkpt>
<trkpt lat="38.20489" lon="-120.40495">
<ele>990.1</ele>
<time>2026-04-22T09:01:48-07:00</time>
</trkpt>
<trkpt lat="38.20506" lon="-120.40491">
<ele>990.2</ele>
<time>2026-04-22T09:01:49-07:00</time>
</trkpt>
<trkpt lat="38.20514" lon="-120.40483">
<ele>991.9</ele>
<time>2026-04-22T09:01:50-07:00</time>
</trkpt>
<trkpt lat="38.20526" lon="-120.40465">
<ele>994.8</ele>
<time>2026-04-22T09:01:51-07:00</time>
</trkpt>
<trkpt lat="38.2053" lon="-120.40451">
<ele>997.7</ele>
<time>2026-04-22T09:01:52-07:00</time>
</trkpt>
<trkpt lat="38.20546" lon="-120.40433">
<ele>1000.2</ele>
<time>2026-04-22T09:01:53-07:00</time>
</trkpt>
<trkpt lat="38.2055" lon="-120.40423">
<ele>1003.4</ele>
<time>2026-04-22T09:01:54-07:00</time>
</trkpt>
<trkpt lat="38.20561" lon="-120.4041">
<ele>1006.4</ele>
<time>2026-04-22T09:01:55-07:00</time>
</trkpt>
<trkpt lat="38.20563" lon="-120.404">
<ele>1008.4</ele>
<time>2026-04-22T09:01:56-07:00</time>
</trkpt>
<trkpt lat="38.20561" lon="-120.40399">
<ele>1008.4</ele>
<time>2026-04-22T09:01:57-07:00</time>
</trkpt>
<trkpt lat="38.20548" lon="-120.40402">
<ele>1009.8</ele>
<time>2026-04-22T09:01:58-07:00</time>
</trkpt>
<trkpt lat="38.20537" lon="-120.40397">
<ele>1010.4</ele>
<time>2026-04-22T09:01:59-07:00</time>
</trkpt>
<trkpt lat="38.20516" lon="-120.40383">
<ele>1010.6</ele>
<time>2026-04-22T09:02:00-07:00</time>
</trkpt>
<trkpt lat="38.20509" lon="-120.40388">
<ele>1012.1</ele>
<time>2026-04-22T09:02:01-07:00</time>
</trkpt>
<trkpt lat="38.20503" lon="-120.40402">
<ele>1010.4</ele>
<time>2026-04-22T09:02:02-07:00</time>
</trkpt>
<trkpt lat="38.20494" lon="-120.40413">
<ele>1011.1</ele>
<time>2026-04-22T09:02:03-07:00</time>
</trkpt>
<trkpt lat="38.20489" lon="-120.40414">
<ele>1011.4</ele>
<time>2026-04-22T09:02:04-07:00</time>
</trkpt>
<trkpt lat="38.20476" lon="-120.4041">
<ele>1010.6</ele>
<time>2026-04-22T09:02:05-07:00</time>
</trkpt>
<trkpt lat="38.20468" lon="-120.404">
<ele>1010.8</ele>
<time>2026-04-22T09:02:06-07:00</time>
</trkpt>
<trkpt lat="38.20451" lon="-120.40368">
<ele>1010.5</ele>
<time>2026-04-22T09:02:07-07:00</time>
</trkpt>
<trkpt lat="38.20445" lon="-120.40349">
<ele>1012.2</ele>
<time>2026-04-22T09:02:08-07:00</time>
</trkpt>
<trkpt lat="38.20442" lon="-120.40344">
<ele>1008.5</ele>
<time>2026-04-22T09:02:09-07:00</time>
</trkpt>
<trkpt lat="38.20426" lon="-120.40294">
<ele>1011</ele>
<time>2026-04-22T09:02:10-07:00</time>
</trkpt>
<trkpt lat="38.20423" lon="-120.40277">
<ele>1009.8</ele>
<time>2026-04-22T09:02:11-07:00</time>
</trkpt>
<trkpt lat="38.20409" lon="-120.40235">
<ele>1009.5</ele>
<time>2026-04-22T09:02:12-07:00</time>
</trkpt>
<trkpt lat="38.20411" lon="-120.40176">
<ele>1010.5</ele>
<time>2026-04-22T09:02:13-07:00</time>
</trkpt>
<trkpt lat="38.20409" lon="-120.40172">
<ele>1013.7</ele>
<time>2026-04-22T09:02:14-07:00</time>
</trkpt>
<trkpt lat="38.20415" lon="-120.40158">
<ele>1016.4</ele>
<time>2026-04-22T09:02:15-07:00</time>
</trkpt>
<trkpt lat="38.20417" lon="-120.40147">
<ele>1020.2</ele>
<time>2026-04-22T09:02:16-07:00</time>
</trkpt>
<trkpt lat="38.20433" lon="-120.40136">
<ele>1021.7</ele>
<time>2026-04-22T09:02:17-07:00</time>
</trkpt>
<trkpt lat="38.20436" lon="-120.4013">
<ele>1020.1</ele>
<time>2026-04-22T09:02:18-07:00</time>
</trkpt>
<trkpt lat="38.20441" lon="-120.40125">
<ele>1023.4</ele>
<time>2026-04-22T09:02:19-07:00</time>
</trkpt>
<trkpt lat="38.20452" lon="-120.40118">
<ele>1026.3</ele>
<time>2026-04-22T09:02:20-07:00</time>
</trkpt>
<trkpt lat="38.20454" lon="-120.40113">
<ele>1027.4</ele>
<time>2026-04-22T09:02:21-07:00</time>
</trkpt>
<trkpt lat="38.20462" lon="-120.40109">
<ele>1028.8</ele>
<time>2026-04-22T09:02:22-07:00</time>
</trkpt>
<trkpt lat="38.20465" lon="-120.40112">
<ele>1028.1</ele>
<time>2026-04-22T09:02:23-07:00</time>
</trkpt>
<trkpt lat="38.20477" lon="-120.40115">
<ele>1030</ele>
<time>2026-04-22T09:02:24-07:00</time>
</trkpt>
<trkpt lat="38.20479" lon="-120.4012">
<ele>1030</ele>
<time>2026-04-22T09:02:25-07:00</time>
</trkpt>
<trkpt lat="38.20478" lon="-120.40128">
<ele>1032.1</ele>
<time>2026-04-22T09:02:26-07:00</time>
</trkpt>
<trkpt lat="38.20479" lon="-120.4013">
<ele>1033.3</ele>
<time>2026-04-22T09:02:27-07:00</time>
</trkpt>
<trkpt lat="38.20474" lon="-120.40162">
<ele>1034.1</ele>
<time>2026-04-22T09:02:28-07:00</time>
</trkpt>
<trkpt lat="38.20476" lon="-120.40177">
<ele>1034.1</ele>
<time>2026-04-22T09:02:29-07:00</time>
</trkpt>
<trkpt lat="38.20476" lon="-120.40205">
<ele>1033.7</ele>
<time>2026-04-22T09:02:30-07:00</time>
</trkpt>
<trkpt lat="38.20483" lon="-120.40242">
<ele>1033</ele>
<time>2026-04-22T09:02:31-07:00</time>
</trkpt>
<trkpt lat="38.2049" lon="-120.40254">
<ele>1032.8</ele>
<time>2026-04-22T09:02:32-07:00</time>
</trkpt>
<trkpt lat="38.20494" lon="-120.40257">
<ele>1032.8</ele>
<time>2026-04-22T09:02:33-07:00</time>
</trkpt>
<trkpt lat="38.20498" lon="-120.40257">
<ele>1032.8</ele>
<time>2026-04-22T09:02:34-07:00</time>
</trkpt>
<trkpt lat="38.20506" lon="-120.40248">
<ele>1032.8</ele>
<time>2026-04-22T09:02:35-07:00</time>
</trkpt>
<trkpt lat="38.20516" lon="-120.40201">
<ele>1036.1</ele>
<time>2026-04-22T09:02:36-07:00</time>
</trkpt>
<trkpt lat="38.20517" lon="-120.40182">
<ele>1037.6</ele>
<time>2026-04-22T09:02:37-07:00</time>
</trkpt>
<trkpt lat="38.20516" lon="-120.40167">
<ele>1038.1</ele>
<time>2026-04-22T09:02:38-07:00</time>
</trkpt>
<trkpt lat="38.2051" lon="-120.40154">
<ele>1039.1</ele>
<time>2026-04-22T09:02:39-07:00</time>
</trkpt>
<trkpt lat="38.20509" lon="-120.40146">
<ele>1038.9</ele>
<time>2026-04-22T09:02:40-07:00</time>
</trkpt>
<trkpt lat="38.20511" lon="-120.40135">
<ele>1040.2</ele>
<time>2026-04-22T09:02:41-07:00</time>
</trkpt>
<trkpt lat="38.20518" lon="-120.40122">
<ele>1040.7</ele>
<time>2026-04-22T09:02:42-07:00</time>
</trkpt>
<trkpt lat="38.20525" lon="-120.40117">
<ele>1042.2</ele>
<time>2026-04-22T09:02:43-07:00</time>
</trkpt>
<trkpt lat="38.20539" lon="-120.40115">
<ele>1045.2</ele>
<time>2026-04-22T09:02:44-07:00</time>
</trkpt>
<trkpt lat="38.20559" lon="-120.40107">
<ele>1048.3</ele>
<time>2026-04-22T09:02:45-07:00</time>
</trkpt>
<trkpt lat="38.20568" lon="-120.40106">
<ele>1049.1</ele>
<time>2026-04-22T09:02:46-07:00</time>
</trkpt>
<trkpt lat="38.20571" lon="-120.40102">
<ele>1049.1</ele>
<time>2026-04-22T09:02:47-07:00</time>
</trkpt>
<trkpt lat="38.20574" lon="-120.40087">
<ele>1051.9</ele>
<time>2026-04-22T09:02:48-07:00</time>
</trkpt>
<trkpt lat="38.2058" lon="-120.40077">
<ele>1053.6</ele>
<time>2026-04-22T09:02:49-07:00</time>
</trkpt>
<trkpt lat="38.20588" lon="-120.40068">
<ele>1054.8</ele>
<time>2026-04-22T09:02:50-07:00</time>
</trkpt>
<trkpt lat="38.20591" lon="-120.40067">
<ele>1054.8</ele>
<time>2026-04-22T09:02:51-07:00</time>
</trkpt>
<trkpt lat="38.20599" lon="-120.40059">
<ele>1056.6</ele>
<time>2026-04-22T09:02:52-07:00</time>
</trkpt>
<trkpt lat="38.20623" lon="-120.40061">
<ele>1056.9</ele>
<time>2026-04-22T09:02:53-07:00</time>
</trkpt>
<trkpt lat="38.20628" lon="-120.40058">
<ele>1056.9</ele>
<time>2026-04-22T09:02:54-07:00</time>
</trkpt>
<trkpt lat="38.2063" lon="-120.40054">
<ele>1057.7</ele>
<time>2026-04-22T09:02:55-07:00</time>
</trkpt>
<trkpt lat="38.20641" lon="-120.40049">
<ele>1058.3</ele>
<time>2026-04-22T09:02:56-07:00</time>
</trkpt>
<trkpt lat="38.20651" lon="-120.40042">
<ele>1060.6</ele>
<time>2026-04-22T09:02:57-07:00</time>
</trkpt>
<trkpt lat="38.20658" lon="-120.4004">
<ele>1060</ele>
<time>2026-04-22T09:02:58-07:00</time>
</trkpt>
<trkpt lat="38.20657" lon="-120.40035">
<ele>1063</ele>
<time>2026-04-22T09:02:59-07:00</time>
</trkpt>
<trkpt lat="38.2065" lon="-120.40027">
<ele>1065.4</ele>
<time>2026-04-22T09:03:00-07:00</time>
</trkpt>
<trkpt lat="38.20642" lon="-120.40019">
<ele>1064.9</ele>
<time>2026-04-22T09:03:01-07:00</time>
</trkpt>
<trkpt lat="38.20635" lon="-120.40016">
<ele>1068.2</ele>
<time>2026-04-22T09:03:02-07:00</time>
</trkpt>
<trkpt lat="38.20635" lon="-120.40013">
<ele>1068.2</ele>
<time>2026-04-22T09:03:03-07:00</time>
</trkpt>
<trkpt lat="38.20637" lon="-120.40011">
<ele>1068.2</ele>
<time>2026-04-22T09:03:04-07:00</time>
</trkpt>
<trkpt lat="38.20648" lon="-120.40005">
<ele>1070.2</ele>
<time>2026-04-22T09:03:05-07:00</time>
</trkpt>
<trkpt lat="38.20656" lon="-120.39998">
<ele>1072.9</ele>
<time>2026-04-22T09:03:06-07:00</time>
</trkpt>
<trkpt lat="38.20655" lon="-120.39996">
<ele>1072.9</ele>
<time>2026-04-22T09:03:07-07:00</time>
</trkpt>
<trkpt lat="38.20623" lon="-120.39993">
<ele>1074.6</ele>
<time>2026-04-22T09:03:08-07:00</time>
</trkpt>
<trkpt lat="38.20621" lon="-120.39991">
<ele>1074.6</ele>
<time>2026-04-22T09:03:09-07:00</time>
</trkpt>
<trkpt lat="38.20624" lon="-120.39986">
<ele>1077.9</ele>
<time>2026-04-22T09:03:10-07:00</time>
</trkpt>
<trkpt lat="38.20644" lon="-120.39976">
<ele>1081</ele>
<time>2026-04-22T09:03:11-07:00</time>
</trkpt>
<trkpt lat="38.20612" lon="-120.39961">
<ele>1087.9</ele>
<time>2026-04-22T09:03:12-07:00</time>
</trkpt>
<trkpt lat="38.20608" lon="-120.39956">
<ele>1086.4</ele>
<time>2026-04-22T09:03:13-07:00</time>
</trkpt>
<trkpt lat="38.20597" lon="-120.39932">
<ele>1090.2</ele>
<time>2026-04-22T09:03:14-07:00</time>
</trkpt>
<trkpt lat="38.2059" lon="-120.39922">
<ele>1090.8</ele>
<time>2026-04-22T09:03:15-07:00</time>
</trkpt>
<trkpt lat="38.20592" lon="-120.39921">
<ele>1090.8</ele>
<time>2026-04-22T09:03:16-07:00</time>
</trkpt>
<trkpt lat="38.206" lon="-120.39924">
<ele>1093.2</ele>
<time>2026-04-22T09:03:17-07:00</time>
</trkpt>
<trkpt lat="38.20612" lon="-120.39934">
<ele>1096.4</ele>
<time>2026-04-22T09:03:18-07:00</time>
</trkpt>
<trkpt lat="38.20628" lon="-120.3994">
<ele>1095.2</ele>
<time>2026-04-22T09:03:19-07:00</time>
</trkpt>
<trkpt lat="38.20638" lon="-120.39941">
<ele>1096.1</ele>
<time>2026-04-22T09:03:20-07:00</time>
</trkpt>
<trkpt lat="38.2064" lon="-120.3994">
<ele>1096.6</ele>
<time>2026-04-22T09:03:21-07:00</time>
</trkpt>
<trkpt lat="38.2064" lon="-120.39938">
<ele>1096.6</ele>
<time>2026-04-22T09:03:22-07:00</time>
</trkpt>
<trkpt lat="38.20635" lon="-120.39936">
<ele>1096.1</ele>
<time>2026-04-22T09:03:23-07:00</time>
</trkpt>
<trkpt lat="38.20623" lon="-120.39922">
<ele>1101</ele>
<time>2026-04-22T09:03:24-07:00</time>
</trkpt>
<trkpt lat="38.20617" lon="-120.399">
<ele>1104.1</ele>
<time>2026-04-22T09:03:25-07:00</time>
</trkpt>
<trkpt lat="38.20611" lon="-120.3989">
<ele>1104.1</ele>
<time>2026-04-22T09:03:26-07:00</time>
</trkpt>
<trkpt lat="38.20613" lon="-120.39888">
<ele>1109</ele>
<time>2026-04-22T09:03:27-07:00</time>
</trkpt>
<trkpt lat="38.20635" lon="-120.39899">
<ele>1107.6</ele>
<time>2026-04-22T09:03:28-07:00</time>
</trkpt>
<trkpt lat="38.20644" lon="-120.39899">
<ele>1109.2</ele>
<time>2026-04-22T09:03:29-07:00</time>
</trkpt>
<trkpt lat="38.20661" lon="-120.39897">
<ele>1113.7</ele>
<time>2026-04-22T09:03:30-07:00</time>
</trkpt>
<trkpt lat="38.20674" lon="-120.39892">
<ele>1115.1</ele>
<time>2026-04-22T09:03:31-07:00</time>
</trkpt>
<trkpt lat="38.20675" lon="-120.39889">
<ele>1115.1</ele>
<time>2026-04-22T09:03:32-07:00</time>
</trkpt>
<trkpt lat="38.20666" lon="-120.39877">
<ele>1118.3</ele>
<time>2026-04-22T09:03:33-07:00</time>
</trkpt>
<trkpt lat="38.20642" lon="-120.39853">
<ele>1120.9</ele>
<time>2026-04-22T09:03:34-07:00</time>
</trkpt>
<trkpt lat="38.20635" lon="-120.39838">
<ele>1123.7</ele>
<time>2026-04-22T09:03:35-07:00</time>
</trkpt>
<trkpt lat="38.20639" lon="-120.39833">
<ele>1126.8</ele>
<time>2026-04-22T09:03:36-07:00</time>
</trkpt>
<trkpt lat="38.20646" lon="-120.39833">
<ele>1126.8</ele>
<time>2026-04-22T09:03:37-07:00</time>
</trkpt>
<trkpt lat="38.20662" lon="-120.39841">
<ele>1127.3</ele>
<time>2026-04-22T09:03:38-07:00</time>
</trkpt>
<trkpt lat="38.2067" lon="-120.39843">
<ele>1125.6</ele>
<time>2026-04-22T09:03:39-07:00</time>
</trkpt>
<trkpt lat="38.20697" lon="-120.39843">
<ele>1127.3</ele>
<time>2026-04-22T09:03:40-07:00</time>
</trkpt>
<trkpt lat="38.20708" lon="-120.39837">
<ele>1129.4</ele>
<time>2026-04-22T09:03:41-07:00</time>
</trkpt>
<trkpt lat="38.20714" lon="-120.39828">
<ele>1129.7</ele>
<time>2026-04-22T09:03:42-07:00</time>
</trkpt>
<trkpt lat="38.20715" lon="-120.3982">
<ele>1131.6</ele>
<time>2026-04-22T09:03:43-07:00</time>
</trkpt>
<trkpt lat="38.20711" lon="-120.39817">
<ele>1133.3</ele>
<time>2026-04-22T09:03:44-07:00</time>
</trkpt>
<trkpt lat="38.20694" lon="-120.39811">
<ele>1135.9</ele>
<time>2026-04-22T09:03:45-07:00</time>
</trkpt>
<trkpt lat="38.2068" lon="-120.39809">
<ele>1135.4</ele>
<time>2026-04-22T09:03:46-07:00</time>
</trkpt>
<trkpt lat="38.20675" lon="-120.398">
<ele>1136.5</ele>
<time>2026-04-22T09:03:47-07:00</time>
</trkpt>
<trkpt lat="38.20676" lon="-120.39793">
<ele>1138.8</ele>
<time>2026-04-22T09:03:48-07:00</time>
</trkpt>
<trkpt lat="38.20684" lon="-120.39787">
<ele>1140.1</ele>
<time>2026-04-22T09:03:49-07:00</time>
</trkpt>
<trkpt lat="38.20691" lon="-120.39764">
<ele>1142.6</ele>
<time>2026-04-22T09:03:50-07:00</time>
</trkpt>
<trkpt lat="38.20697" lon="-120.39758">
<ele>1143.4</ele>
<time>2026-04-22T09:03:51-07:00</time>
</trkpt>
<trkpt lat="38.20698" lon="-120.39752">
<ele>1143.4</ele>
<time>2026-04-22T09:03:52-07:00</time>
</trkpt>
<trkpt lat="38.20697" lon="-120.39748">
<ele>1144.4</ele>
<time>2026-04-22T09:03:53-07:00</time>
</trkpt>
<trkpt lat="38.20685" lon="-120.3974">
<ele>1147</ele>
<time>2026-04-22T09:03:54-07:00</time>
</trkpt>
<trkpt lat="38.20673" lon="-120.39739">
<ele>1147.4</ele>
<time>2026-04-22T09:03:55-07:00</time>
</trkpt>
<trkpt lat="38.20658" lon="-120.39734">
<ele>1147.5</ele>
<time>2026-04-22T09:03:56-07:00</time>
</trkpt>
<trkpt lat="38.2065" lon="-120.39727">
<ele>1149.3</ele>
<time>2026-04-22T09:03:57-07:00</time>
</trkpt>
<trkpt lat="38.20628" lon="-120.39716">
<ele>1150.1</ele>
<time>2026-04-22T09:03:58-07:00</time>
</trkpt>
<trkpt lat="38.20624" lon="-120.3971">
<ele>1152.4</ele>
<time>2026-04-22T09:03:59-07:00</time>
</trkpt>
<trkpt lat="38.20622" lon="-120.39703">
<ele>1154.6</ele>
<time>2026-04-22T09:04:00-07:00</time>
</trkpt>
<trkpt lat="38.20623" lon="-120.39696">
<ele>1154.6</ele>
<time>2026-04-22T09:04:01-07:00</time>
</trkpt>
<trkpt lat="38.2062" lon="-120.3968">
<ele>1157.2</ele>
<time>2026-04-22T09:04:02-07:00</time>
</trkpt>
<trkpt lat="38.2061" lon="-120.39669">
<ele>1158.2</ele>
<time>2026-04-22T09:04:03-07:00</time>
</trkpt>
<trkpt lat="38.20591" lon="-120.39656">
<ele>1159.5</ele>
<time>2026-04-22T09:04:04-07:00</time>
</trkpt>
<trkpt lat="38.20588" lon="-120.3965">
<ele>1159.5</ele>
<time>2026-04-22T09:04:05-07:00</time>
</trkpt>
<trkpt lat="38.2057" lon="-120.39627">
<ele>1162.6</ele>
<time>2026-04-22T09:04:06-07:00</time>
</trkpt>
<trkpt lat="38.20568" lon="-120.39617">
<ele>1163.5</ele>
<time>2026-04-22T09:04:07-07:00</time>
</trkpt>
<trkpt lat="38.20579" lon="-120.39595">
<ele>1164.8</ele>
<time>2026-04-22T09:04:08-07:00</time>
</trkpt>
<trkpt lat="38.20581" lon="-120.39588">
<ele>1165.4</ele>
<time>2026-04-22T09:04:09-07:00</time>
</trkpt>
<trkpt lat="38.20597" lon="-120.39573">
<ele>1166.5</ele>
<time>2026-04-22T09:04:10-07:00</time>
</trkpt>
<trkpt lat="38.20608" lon="-120.39555">
<ele>1167.3</ele>
<time>2026-04-22T09:04:11-07:00</time>
</trkpt>
<trkpt lat="38.2061" lon="-120.39543">
<ele>1167.8</ele>
<time>2026-04-22T09:04:12-07:00</time>
</trkpt>
<trkpt lat="38.20617" lon="-120.39527">
<ele>1167.8</ele>
<time>2026-04-22T09:04:13-07:00</time>
</trkpt>
<trkpt lat="38.20621" lon="-120.39511">
<ele>1167.4</ele>
<time>2026-04-22T09:04:14-07:00</time>
</trkpt>
<trkpt lat="38.20635" lon="-120.3948">
<ele>1167.9</ele>
<time>2026-04-22T09:04:15-07:00</time>
</trkpt>
<trkpt lat="38.20644" lon="-120.39476">
<ele>1167.6</ele>
<time>2026-04-22T09:04:16-07:00</time>
</trkpt>
<trkpt lat="38.20661" lon="-120.39474">
<ele>1167.7</ele>
<time>2026-04-22T09:04:17-07:00</time>
</trkpt>
<trkpt lat="38.20695" lon="-120.39486">
<ele>1168.4</ele>
<time>2026-04-22T09:04:18-07:00</time>
</trkpt>
<trkpt lat="38.20713" lon="-120.39494">
<ele>1168.5</ele>
<time>2026-04-22T09:04:19-07:00</time>
</trkpt>
<trkpt lat="38.20727" lon="-120.39495">
<ele>1168.7</ele>
<time>2026-04-22T09:04:20-07:00</time>
</trkpt>
<trkpt lat="38.20745" lon="-120.39493">
<ele>1168.9</ele>
<time>2026-04-22T09:04:21-07:00</time>
</trkpt>
<trkpt lat="38.20749" lon="-120.39491">
<ele>1168.9</ele>
<time>2026-04-22T09:04:22-07:00</time>
</trkpt>
<trkpt lat="38.20753" lon="-120.39486">
<ele>1169.1</ele>
<time>2026-04-22T09:04:23-07:00</time>
</trkpt>
<trkpt lat="38.20758" lon="-120.39468">
<ele>1170.3</ele>
<time>2026-04-22T09:04:24-07:00</time>
</trkpt>
<trkpt lat="38.20762" lon="-120.39462">
<ele>1169.9</ele>
<time>2026-04-22T09:04:25-07:00</time>
</trkpt>
<trkpt lat="38.20767" lon="-120.39449">
<ele>1170.5</ele>
<time>2026-04-22T09:04:26-07:00</time>
</trkpt>
<trkpt lat="38.20776" lon="-120.39402">
<ele>1170.8</ele>
<time>2026-04-22T09:04:27-07:00</time>
</trkpt>
<trkpt lat="38.20776" lon="-120.39394">
<ele>1170.9</ele>
<time>2026-04-22T09:04:28-07:00</time>
</trkpt>
<trkpt lat="38.20772" lon="-120.3938">
<ele>1170.9</ele>
<time>2026-04-22T09:04:29-07:00</time>
</trkpt>
<trkpt lat="38.20772" lon="-120.39347">
<ele>1171.1</ele>
<time>2026-04-22T09:04:30-07:00</time>
</trkpt>
<trkpt lat="38.20774" lon="-120.39318">
<ele>1171.5</ele>
<time>2026-04-22T09:04:31-07:00</time>
</trkpt>
<trkpt lat="38.20781" lon="-120.39287">
<ele>1172.6</ele>
<time>2026-04-22T09:04:32-07:00</time>
</trkpt>
<trkpt lat="38.20781" lon="-120.39272">
<ele>1172.8</ele>
<time>2026-04-22T09:04:33-07:00</time>
</trkpt>
<trkpt lat="38.20776" lon="-120.39245">
<ele>1175.2</ele>
<time>2026-04-22T09:04:34-07:00</time>
</trkpt>
<trkpt lat="38.20778" lon="-120.39201">
<ele>1176.7</ele>
<time>2026-04-22T09:04:35-07:00</time>
</trkpt>
<trkpt lat="38.20779" lon="-120.39197">
<ele>1176.7</ele>
<time>2026-04-22T09:04:36-07:00</time>
</trkpt>
<trkpt lat="38.20787" lon="-120.39188">
<ele>1177</ele>
<time>2026-04-22T09:04:37-07:00</time>
</trkpt>
<trkpt lat="38.20792" lon="-120.39176">
<ele>1176.7</ele>
<time>2026-04-22T09:04:38-07:00</time>
</trkpt>
<trkpt lat="38.20805" lon="-120.39167">
<ele>1176.8</ele>
<time>2026-04-22T09:04:39-07:00</time>
</trkpt>
<trkpt lat="38.2081" lon="-120.39158">
<ele>1176.9</ele>
<time>2026-04-22T09:04:40-07:00</time>
</trkpt>
<trkpt lat="38.20819" lon="-120.3913">
<ele>1178.2</ele>
<time>2026-04-22T09:04:41-07:00</time>
</trkpt>
<trkpt lat="38.2082" lon="-120.39111">
<ele>1180.1</ele>
<time>2026-04-22T09:04:42-07:00</time>
</trkpt>
<trkpt lat="38.20832" lon="-120.39075">
<ele>1180.2</ele>
<time>2026-04-22T09:04:43-07:00</time>
</trkpt>
<trkpt lat="38.20832" lon="-120.39059">
<ele>1181.3</ele>
<time>2026-04-22T09:04:44-07:00</time>
</trkpt>
<trkpt lat="38.2083" lon="-120.39051">
<ele>1182</ele>
<time>2026-04-22T09:04:45-07:00</time>
</trkpt>
<trkpt lat="38.20832" lon="-120.39033">
<ele>1183.1</ele>
<time>2026-04-22T09:04:46-07:00</time>
</trkpt>
<trkpt lat="38.2083" lon="-120.39025">
<ele>1183.9</ele>
<time>2026-04-22T09:04:47-07:00</time>
</trkpt>
<trkpt lat="38.20824" lon="-120.39014">
<ele>1184.9</ele>
<time>2026-04-22T09:04:48-07:00</time>
</trkpt>
<trkpt lat="38.20816" lon="-120.39007">
<ele>1185.4</ele>
<time>2026-04-22T09:04:49-07:00</time>
</trkpt>
<trkpt lat="38.20812" lon="-120.39001">
<ele>1186.1</ele>
<time>2026-04-22T09:04:50-07:00</time>
</trkpt>
<trkpt lat="38.20819" lon="-120.38982">
<ele>1186.7</ele>
<time>2026-04-22T09:04:51-07:00</time>
</trkpt>
<trkpt lat="38.20819" lon="-120.38964">
<ele>1187.9</ele>
<time>2026-04-22T09:04:52-07:00</time>
</trkpt>
<trkpt lat="38.20815" lon="-120.38952">
<ele>1188.9</ele>
<time>2026-04-22T09:04:53-07:00</time>
</trkpt>
<trkpt lat="38.20811" lon="-120.38947">
<ele>1189</ele>
<time>2026-04-22T09:04:54-07:00</time>
</trkpt>
<trkpt lat="38.20803" lon="-120.38942">
<ele>1189.2</ele>
<time>2026-04-22T09:04:55-07:00</time>
</trkpt>
<trkpt lat="38.20794" lon="-120.3894">
<ele>1189.1</ele>
<time>2026-04-22T09:04:56-07:00</time>
</trkpt>
<trkpt lat="38.20841" lon="-120.38913">
<ele>1191.2</ele>
<time>2026-04-22T09:04:57-07:00</time>
</trkpt>
<trkpt lat="38.20848" lon="-120.38893">
<ele>1192.7</ele>
<time>2026-04-22T09:04:58-07:00</time>
</trkpt>
<trkpt lat="38.2085" lon="-120.38874">
<ele>1193.4</ele>
<time>2026-04-22T09:04:59-07:00</time>
</trkpt>
<trkpt lat="38.20857" lon="-120.38858">
<ele>1194.5</ele>
<time>2026-04-22T09:05:00-07:00</time>
</trkpt>
<trkpt lat="38.20875" lon="-120.38835">
<ele>1196.3</ele>
<time>2026-04-22T09:05:01-07:00</time>
</trkpt>
<trkpt lat="38.20891" lon="-120.38808">
<ele>1198.9</ele>
<time>2026-04-22T09:05:02-07:00</time>
</trkpt>
<trkpt lat="38.2093" lon="-120.38772">
<ele>1200.6</ele>
<time>2026-04-22T09:05:03-07:00</time>
</trkpt>
<trkpt lat="38.20951" lon="-120.38757">
<ele>1199.9</ele>
<time>2026-04-22T09:05:04-07:00</time>
</trkpt>
<trkpt lat="38.20962" lon="-120.38756">
<ele>1199.1</ele>
<time>2026-04-22T09:05:05-07:00</time>
</trkpt>
<trkpt lat="38.20975" lon="-120.3876">
<ele>1197.5</ele>
<time>2026-04-22T09:05:06-07:00</time>
</trkpt>
<trkpt lat="38.20985" lon="-120.38759">
<ele>1196.8</ele>
<time>2026-04-22T09:05:07-07:00</time>
</trkpt>
<trkpt lat="38.20989" lon="-120.38768">
<ele>1196.8</ele>
<time>2026-04-22T09:05:08-07:00</time>
</trkpt>
<trkpt lat="38.20993" lon="-120.3877">
<ele>1196.2</ele>
<time>2026-04-22T09:05:09-07:00</time>
</trkpt>
<trkpt lat="38.20999" lon="-120.38761">
<ele>1196</ele>
<time>2026-04-22T09:05:10-07:00</time>
</trkpt>
<trkpt lat="38.21002" lon="-120.38744">
<ele>1195</ele>
<time>2026-04-22T09:05:11-07:00</time>
</trkpt>
<trkpt lat="38.21006" lon="-120.38741">
<ele>1195</ele>
<time>2026-04-22T09:05:12-07:00</time>
</trkpt>
<trkpt lat="38.21011" lon="-120.38743">
<ele>1193.9</ele>
<time>2026-04-22T09:05:13-07:00</time>
</trkpt>
<trkpt lat="38.21018" lon="-120.38751">
<ele>1194</ele>
<time>2026-04-22T09:05:14-07:00</time>
</trkpt>
<trkpt lat="38.21023" lon="-120.38752">
<ele>1192.8</ele>
<time>2026-04-22T09:05:15-07:00</time>
</trkpt>
<trkpt lat="38.21027" lon="-120.38757">
<ele>1192.8</ele>
<time>2026-04-22T09:05:16-07:00</time>
</trkpt>
<trkpt lat="38.21027" lon="-120.38761">
<ele>1192.9</ele>
<time>2026-04-22T09:05:17-07:00</time>
</trkpt>
<trkpt lat="38.21031" lon="-120.38763">
<ele>1191.9</ele>
<time>2026-04-22T09:05:18-07:00</time>
</trkpt>
<trkpt lat="38.21041" lon="-120.38744">
<ele>1190.2</ele>
<time>2026-04-22T09:05:19-07:00</time>
</trkpt>
<trkpt lat="38.21047" lon="-120.38717">
<ele>1188.7</ele>
<time>2026-04-22T09:05:20-07:00</time>
</trkpt>
<trkpt lat="38.2105" lon="-120.38713">
<ele>1188.7</ele>
<time>2026-04-22T09:05:21-07:00</time>
</trkpt>
<trkpt lat="38.21054" lon="-120.38718">
<ele>1188.7</ele>
<time>2026-04-22T09:05:22-07:00</time>
</trkpt>
<trkpt lat="38.21054" lon="-120.38724">
<ele>1188.5</ele>
<time>2026-04-22T09:05:23-07:00</time>
</trkpt>
<trkpt lat="38.21065" lon="-120.38747">
<ele>1184.9</ele>
<time>2026-04-22T09:05:24-07:00</time>
</trkpt>
<trkpt lat="38.21071" lon="-120.38752">
<ele>1185.4</ele>
<time>2026-04-22T09:05:25-07:00</time>
</trkpt>
<trkpt lat="38.21076" lon="-120.38765">
<ele>1183.7</ele>
<time>2026-04-22T09:05:26-07:00</time>
</trkpt>
<trkpt lat="38.21079" lon="-120.38767">
<ele>1183.7</ele>
<time>2026-04-22T09:05:27-07:00</time>
</trkpt>
<trkpt lat="38.21081" lon="-120.38766">
<ele>1183.7</ele>
<time>2026-04-22T09:05:28-07:00</time>
</trkpt>
<trkpt lat="38.21085" lon="-120.38756">
<ele>1181.1</ele>
<time>2026-04-22T09:05:29-07:00</time>
</trkpt>
<trkpt lat="38.21085" lon="-120.38738">
<ele>1180.2</ele>
<time>2026-04-22T09:05:30-07:00</time>
</trkpt>
<trkpt lat="38.21089" lon="-120.38725">
<ele>1180.3</ele>
<time>2026-04-22T09:05:31-07:00</time>
</trkpt>
<trkpt lat="38.21094" lon="-120.38722">
<ele>1177.8</ele>
<time>2026-04-22T09:05:32-07:00</time>
</trkpt>
<trkpt lat="38.21099" lon="-120.38736">
<ele>1178</ele>
<time>2026-04-22T09:05:33-07:00</time>
</trkpt>
<trkpt lat="38.21098" lon="-120.3874">
<ele>1178</ele>
<time>2026-04-22T09:05:34-07:00</time>
</trkpt>
<trkpt lat="38.21103" lon="-120.38752">
<ele>1177</ele>
<time>2026-04-22T09:05:35-07:00</time>
</trkpt>
<trkpt lat="38.21112" lon="-120.38769">
<ele>1175.8</ele>
<time>2026-04-22T09:05:36-07:00</time>
</trkpt>
<trkpt lat="38.21121" lon="-120.3878">
<ele>1174.1</ele>
<time>2026-04-22T09:05:37-07:00</time>
</trkpt>
<trkpt lat="38.21129" lon="-120.38783">
<ele>1174.1</ele>
<time>2026-04-22T09:05:38-07:00</time>
</trkpt>
<trkpt lat="38.21132" lon="-120.38787">
<ele>1172.3</ele>
<time>2026-04-22T09:05:39-07:00</time>
</trkpt>
<trkpt lat="38.21136" lon="-120.38801">
<ele>1172</ele>
<time>2026-04-22T09:05:40-07:00</time>
</trkpt>
<trkpt lat="38.21141" lon="-120.38808">
<ele>1170.1</ele>
<time>2026-04-22T09:05:41-07:00</time>
</trkpt>
<trkpt lat="38.21148" lon="-120.38829">
<ele>1168.2</ele>
<time>2026-04-22T09:05:42-07:00</time>
</trkpt>
<trkpt lat="38.21153" lon="-120.38828">
<ele>1166.4</ele>
<time>2026-04-22T09:05:43-07:00</time>
</trkpt>
<trkpt lat="38.21157" lon="-120.38823">
<ele>1167.3</ele>
<time>2026-04-22T09:05:44-07:00</time>
</trkpt>
<trkpt lat="38.21158" lon="-120.38817">
<ele>1165.7</ele>
<time>2026-04-22T09:05:45-07:00</time>
</trkpt>
<trkpt lat="38.21162" lon="-120.38811">
<ele>1166.4</ele>
<time>2026-04-22T09:05:46-07:00</time>
</trkpt>
<trkpt lat="38.21167" lon="-120.3881">
<ele>1165</ele>
<time>2026-04-22T09:05:47-07:00</time>
</trkpt>
<trkpt lat="38.2117" lon="-120.38806">
<ele>1165</ele>
<time>2026-04-22T09:05:48-07:00</time>
</trkpt>
<trkpt lat="38.2117" lon="-120.388">
<ele>1165.5</ele>
<time>2026-04-22T09:05:49-07:00</time>
</trkpt>
<trkpt lat="38.21179" lon="-120.38796">
<ele>1164.4</ele>
<time>2026-04-22T09:05:50-07:00</time>
</trkpt>
<trkpt lat="38.21188" lon="-120.38785">
<ele>1162.7</ele>
<time>2026-04-22T09:05:51-07:00</time>
</trkpt>
<trkpt lat="38.21188" lon="-120.38778">
<ele>1162.7</ele>
<time>2026-04-22T09:05:52-07:00</time>
</trkpt>
<trkpt lat="38.21202" lon="-120.38773">
<ele>1162.3</ele>
<time>2026-04-22T09:05:53-07:00</time>
</trkpt>
<trkpt lat="38.21206" lon="-120.38757">
<ele>1160.9</ele>
<time>2026-04-22T09:05:54-07:00</time>
</trkpt>
<trkpt lat="38.2121" lon="-120.38755">
<ele>1160.9</ele>
<time>2026-04-22T09:05:55-07:00</time>
</trkpt>
<trkpt lat="38.21214" lon="-120.38758">
<ele>1158.9</ele>
<time>2026-04-22T09:05:56-07:00</time>
</trkpt>
<trkpt lat="38.21224" lon="-120.388">
<ele>1155.9</ele>
<time>2026-04-22T09:05:57-07:00</time>
</trkpt>
<trkpt lat="38.21233" lon="-120.38814">
<ele>1153.8</ele>
<time>2026-04-22T09:05:58-07:00</time>
</trkpt>
<trkpt lat="38.21231" lon="-120.3883">
<ele>1155.2</ele>
<time>2026-04-22T09:05:59-07:00</time>
</trkpt>
<trkpt lat="38.21235" lon="-120.38838">
<ele>1154.2</ele>
<time>2026-04-22T09:06:00-07:00</time>
</trkpt>
<trkpt lat="38.21235" lon="-120.38858">
<ele>1152.9</ele>
<time>2026-04-22T09:06:01-07:00</time>
</trkpt>
<trkpt lat="38.21239" lon="-120.38864">
<ele>1152</ele>
<time>2026-04-22T09:06:02-07:00</time>
</trkpt>
<trkpt lat="38.21244" lon="-120.38867">
<ele>1151.6</ele>
<time>2026-04-22T09:06:03-07:00</time>
</trkpt>
<trkpt lat="38.21253" lon="-120.38854">
<ele>1151.1</ele>
<time>2026-04-22T09:06:04-07:00</time>
</trkpt>
<trkpt lat="38.21256" lon="-120.38845">
<ele>1151.6</ele>
<time>2026-04-22T09:06:05-07:00</time>
</trkpt>
<trkpt lat="38.21261" lon="-120.38844">
<ele>1149.8</ele>
<time>2026-04-22T09:06:06-07:00</time>
</trkpt>
<trkpt lat="38.21264" lon="-120.38848">
<ele>1149.8</ele>
<time>2026-04-22T09:06:07-07:00</time>
</trkpt>
<trkpt lat="38.21262" lon="-120.38861">
<ele>1149.6</ele>
<time>2026-04-22T09:06:08-07:00</time>
</trkpt>
<trkpt lat="38.21264" lon="-120.38881">
<ele>1146.8</ele>
<time>2026-04-22T09:06:09-07:00</time>
</trkpt>
<trkpt lat="38.21262" lon="-120.38888">
<ele>1146.8</ele>
<time>2026-04-22T09:06:10-07:00</time>
</trkpt>
<trkpt lat="38.2125" lon="-120.38899">
<ele>1144.9</ele>
<time>2026-04-22T09:06:11-07:00</time>
</trkpt>
<trkpt lat="38.21235" lon="-120.38917">
<ele>1143.7</ele>
<time>2026-04-22T09:06:12-07:00</time>
</trkpt>
<trkpt lat="38.21233" lon="-120.38925">
<ele>1143.7</ele>
<time>2026-04-22T09:06:13-07:00</time>
</trkpt>
<trkpt lat="38.2124" lon="-120.38923">
<ele>1143.7</ele>
<time>2026-04-22T09:06:14-07:00</time>
</trkpt>
<trkpt lat="38.21243" lon="-120.38918">
<ele>1142.6</ele>
<time>2026-04-22T09:06:15-07:00</time>
</trkpt>
<trkpt lat="38.21249" lon="-120.38913">
<ele>1143.3</ele>
<time>2026-04-22T09:06:16-07:00</time>
</trkpt>
<trkpt lat="38.21253" lon="-120.38912">
<ele>1142.1</ele>
<time>2026-04-22T09:06:17-07:00</time>
</trkpt>
<trkpt lat="38.2126" lon="-120.38916">
<ele>1141.6</ele>
<time>2026-04-22T09:06:18-07:00</time>
</trkpt>
<trkpt lat="38.21266" lon="-120.38917">
<ele>1139.7</ele>
<time>2026-04-22T09:06:19-07:00</time>
</trkpt>
<trkpt lat="38.21277" lon="-120.38914">
<ele>1139.8</ele>
<time>2026-04-22T09:06:20-07:00</time>
</trkpt>
<trkpt lat="38.2128" lon="-120.38911">
<ele>1138</ele>
<time>2026-04-22T09:06:21-07:00</time>
</trkpt>
<trkpt lat="38.21282" lon="-120.38915">
<ele>1138</ele>
<time>2026-04-22T09:06:22-07:00</time>
</trkpt>
<trkpt lat="38.2128" lon="-120.38922">
<ele>1136.9</ele>
<time>2026-04-22T09:06:23-07:00</time>
</trkpt>
<trkpt lat="38.21271" lon="-120.38933">
<ele>1136.8</ele>
<time>2026-04-22T09:06:24-07:00</time>
</trkpt>
<trkpt lat="38.21269" lon="-120.38956">
<ele>1132.7</ele>
<time>2026-04-22T09:06:25-07:00</time>
</trkpt>
<trkpt lat="38.21267" lon="-120.38962">
<ele>1134.8</ele>
<time>2026-04-22T09:06:26-07:00</time>
</trkpt>
<trkpt lat="38.21249" lon="-120.38985">
<ele>1130.3</ele>
<time>2026-04-22T09:06:27-07:00</time>
</trkpt>
<trkpt lat="38.21252" lon="-120.38985">
<ele>1130.9</ele>
<time>2026-04-22T09:06:28-07:00</time>
</trkpt>
<trkpt lat="38.21258" lon="-120.38989">
<ele>1130.9</ele>
<time>2026-04-22T09:06:29-07:00</time>
</trkpt>
<trkpt lat="38.21264" lon="-120.39007">
<ele>1128.6</ele>
<time>2026-04-22T09:06:30-07:00</time>
</trkpt>
<trkpt lat="38.21271" lon="-120.39008">
<ele>1128.1</ele>
<time>2026-04-22T09:06:31-07:00</time>
</trkpt>
<trkpt lat="38.21275" lon="-120.39004">
<ele>1128.1</ele>
<time>2026-04-22T09:06:32-07:00</time>
</trkpt>
<trkpt lat="38.21295" lon="-120.39013">
<ele>1125.6</ele>
<time>2026-04-22T09:06:33-07:00</time>
</trkpt>
<trkpt lat="38.21298" lon="-120.39013">
<ele>1125.5</ele>
<time>2026-04-22T09:06:34-07:00</time>
</trkpt>
<trkpt lat="38.21295" lon="-120.39015">
<ele>1125.6</ele>
<time>2026-04-22T09:06:35-07:00</time>
</trkpt>
<trkpt lat="38.213" lon="-120.39017">
<ele>1125.5</ele>
<time>2026-04-22T09:06:36-07:00</time>
</trkpt>
<trkpt lat="38.21309" lon="-120.3901">
<ele>1124.2</ele>
<time>2026-04-22T09:06:37-07:00</time>
</trkpt>
<trkpt lat="38.21314" lon="-120.39012">
<ele>1124.2</ele>
<time>2026-04-22T09:06:38-07:00</time>
</trkpt>
<trkpt lat="38.21314" lon="-120.39019">
<ele>1123.1</ele>
<time>2026-04-22T09:06:39-07:00</time>
</trkpt>
<trkpt lat="38.21305" lon="-120.39035">
<ele>1122.3</ele>
<time>2026-04-22T09:06:40-07:00</time>
</trkpt>
<trkpt lat="38.213" lon="-120.39038">
<ele>1120.2</ele>
<time>2026-04-22T09:06:41-07:00</time>
</trkpt>
<trkpt lat="38.21299" lon="-120.39042">
<ele>1120.2</ele>
<time>2026-04-22T09:06:42-07:00</time>
</trkpt>
<trkpt lat="38.21305" lon="-120.39042">
<ele>1120.2</ele>
<time>2026-04-22T09:06:43-07:00</time>
</trkpt>
<trkpt lat="38.21311" lon="-120.39038">
<ele>1119.7</ele>
<time>2026-04-22T09:06:44-07:00</time>
</trkpt>
<trkpt lat="38.21315" lon="-120.39038">
<ele>1118.5</ele>
<time>2026-04-22T09:06:45-07:00</time>
</trkpt>
<trkpt lat="38.21323" lon="-120.39034">
<ele>1119.9</ele>
<time>2026-04-22T09:06:46-07:00</time>
</trkpt>
<trkpt lat="38.21329" lon="-120.39035">
<ele>1118.5</ele>
<time>2026-04-22T09:06:47-07:00</time>
</trkpt>
<trkpt lat="38.21334" lon="-120.39031">
<ele>1117.7</ele>
<time>2026-04-22T09:06:48-07:00</time>
</trkpt>
<trkpt lat="38.21336" lon="-120.39033">
<ele>1117.7</ele>
<time>2026-04-22T09:06:49-07:00</time>
</trkpt>
<trkpt lat="38.21335" lon="-120.39047">
<ele>1115.3</ele>
<time>2026-04-22T09:06:50-07:00</time>
</trkpt>
<trkpt lat="38.21333" lon="-120.39045">
<ele>1117.4</ele>
<time>2026-04-22T09:06:51-07:00</time>
</trkpt>
<trkpt lat="38.21327" lon="-120.39054">
<ele>1116.2</ele>
<time>2026-04-22T09:06:52-07:00</time>
</trkpt>
<trkpt lat="38.21318" lon="-120.3906">
<ele>1116</ele>
<time>2026-04-22T09:06:53-07:00</time>
</trkpt>
<trkpt lat="38.21305" lon="-120.39087">
<ele>1111.8</ele>
<time>2026-04-22T09:06:54-07:00</time>
</trkpt>
<trkpt lat="38.21302" lon="-120.391">
<ele>1110.5</ele>
<time>2026-04-22T09:06:55-07:00</time>
</trkpt>
<trkpt lat="38.21312" lon="-120.39097">
<ele>1107.8</ele>
<time>2026-04-22T09:06:56-07:00</time>
</trkpt>
<trkpt lat="38.21316" lon="-120.39105">
<ele>1106.3</ele>
<time>2026-04-22T09:06:57-07:00</time>
</trkpt>
<trkpt lat="38.21323" lon="-120.39104">
<ele>1106.3</ele>
<time>2026-04-22T09:06:58-07:00</time>
</trkpt>
<trkpt lat="38.21342" lon="-120.39116">
<ele>1104.9</ele>
<time>2026-04-22T09:06:59-07:00</time>
</trkpt>
<trkpt lat="38.21342" lon="-120.39126">
<ele>1103</ele>
<time>2026-04-22T09:07:00-07:00</time>
</trkpt>
<trkpt lat="38.21351" lon="-120.39134">
<ele>1101.3</ele>
<time>2026-04-22T09:07:01-07:00</time>
</trkpt>
<trkpt lat="38.21361" lon="-120.39139">
<ele>1100</ele>
<time>2026-04-22T09:07:02-07:00</time>
</trkpt>
<trkpt lat="38.21383" lon="-120.39155">
<ele>1099.2</ele>
<time>2026-04-22T09:07:03-07:00</time>
</trkpt>
<trkpt lat="38.21389" lon="-120.39162">
<ele>1097.6</ele>
<time>2026-04-22T09:07:04-07:00</time>
</trkpt>
<trkpt lat="38.21411" lon="-120.39168">
<ele>1096.9</ele>
<time>2026-04-22T09:07:05-07:00</time>
</trkpt>
<trkpt lat="38.2143" lon="-120.39177">
<ele>1096.3</ele>
<time>2026-04-22T09:07:06-07:00</time>
</trkpt>
<trkpt lat="38.21441" lon="-120.39174">
<ele>1097.3</ele>
<time>2026-04-22T09:07:07-07:00</time>
</trkpt>
<trkpt lat="38.21448" lon="-120.39176">
<ele>1095.8</ele>
<time>2026-04-22T09:07:08-07:00</time>
</trkpt>
<trkpt lat="38.21457" lon="-120.39175">
<ele>1095.9</ele>
<time>2026-04-22T09:07:09-07:00</time>
</trkpt>
<trkpt lat="38.21465" lon="-120.3917">
<ele>1094.4</ele>
<time>2026-04-22T09:07:10-07:00</time>
</trkpt>
<trkpt lat="38.2147" lon="-120.39169">
<ele>1094.4</ele>
<time>2026-04-22T09:07:11-07:00</time>
</trkpt>
<trkpt lat="38.21479" lon="-120.39152">
<ele>1093.7</ele>
<time>2026-04-22T09:07:12-07:00</time>
</trkpt>
<trkpt lat="38.21481" lon="-120.39141">
<ele>1093.9</ele>
<time>2026-04-22T09:07:13-07:00</time>
</trkpt>
<trkpt lat="38.21487" lon="-120.3914">
<ele>1091</ele>
<time>2026-04-22T09:07:14-07:00</time>
</trkpt>
<trkpt lat="38.21491" lon="-120.39149">
<ele>1088</ele>
<time>2026-04-22T09:07:15-07:00</time>
</trkpt>
<trkpt lat="38.2149" lon="-120.39155">
<ele>1090.7</ele>
<time>2026-04-22T09:07:16-07:00</time>
</trkpt>
<trkpt lat="38.21492" lon="-120.39175">
<ele>1088</ele>
<time>2026-04-22T09:07:17-07:00</time>
</trkpt>
<trkpt lat="38.21495" lon="-120.39175">
<ele>1088</ele>
<time>2026-04-22T09:07:18-07:00</time>
</trkpt>
<trkpt lat="38.21499" lon="-120.3917">
<ele>1088</ele>
<time>2026-04-22T09:07:19-07:00</time>
</trkpt>
<trkpt lat="38.21499" lon="-120.39164">
<ele>1088</ele>
<time>2026-04-22T09:07:20-07:00</time>
</trkpt>
<trkpt lat="38.21502" lon="-120.39159">
<ele>1085.9</ele>
<time>2026-04-22T09:07:21-07:00</time>
</trkpt>
<trkpt lat="38.21505" lon="-120.39146">
<ele>1084.6</ele>
<time>2026-04-22T09:07:22-07:00</time>
</trkpt>
<trkpt lat="38.21505" lon="-120.39139">
<ele>1084.6</ele>
<time>2026-04-22T09:07:23-07:00</time>
</trkpt>
<trkpt lat="38.21501" lon="-120.39121">
<ele>1081.5</ele>
<time>2026-04-22T09:07:24-07:00</time>
</trkpt>
<trkpt lat="38.21502" lon="-120.39112">
<ele>1080.5</ele>
<time>2026-04-22T09:07:25-07:00</time>
</trkpt>
<trkpt lat="38.21511" lon="-120.39089">
<ele>1077.5</ele>
<time>2026-04-22T09:07:26-07:00</time>
</trkpt>
<trkpt lat="38.21519" lon="-120.39078">
<ele>1076</ele>
<time>2026-04-22T09:07:27-07:00</time>
</trkpt>
<trkpt lat="38.21522" lon="-120.39076">
<ele>1076</ele>
<time>2026-04-22T09:07:28-07:00</time>
</trkpt>
<trkpt lat="38.21528" lon="-120.39078">
<ele>1074</ele>
<time>2026-04-22T09:07:29-07:00</time>
</trkpt>
<trkpt lat="38.2153" lon="-120.39092">
<ele>1074</ele>
<time>2026-04-22T09:07:30-07:00</time>
</trkpt>
<trkpt lat="38.21535" lon="-120.39094">
<ele>1073.5</ele>
<time>2026-04-22T09:07:31-07:00</time>
</trkpt>
<trkpt lat="38.21539" lon="-120.39104">
<ele>1071.2</ele>
<time>2026-04-22T09:07:32-07:00</time>
</trkpt>
<trkpt lat="38.2154" lon="-120.391">
<ele>1071.6</ele>
<time>2026-04-22T09:07:33-07:00</time>
</trkpt>
<trkpt lat="38.21543" lon="-120.39102">
<ele>1071.2</ele>
<time>2026-04-22T09:07:34-07:00</time>
</trkpt>
<trkpt lat="38.21544" lon="-120.39107">
<ele>1071.2</ele>
<time>2026-04-22T09:07:35-07:00</time>
</trkpt>
<trkpt lat="38.21548" lon="-120.39107">
<ele>1069.6</ele>
<time>2026-04-22T09:07:36-07:00</time>
</trkpt>
<trkpt lat="38.21552" lon="-120.39104">
<ele>1069.6</ele>
<time>2026-04-22T09:07:37-07:00</time>
</trkpt>
<trkpt lat="38.21558" lon="-120.39096">
<ele>1067.3</ele>
<time>2026-04-22T09:07:38-07:00</time>
</trkpt>
<trkpt lat="38.21559" lon="-120.3909">
<ele>1067.6</ele>
<time>2026-04-22T09:07:39-07:00</time>
</trkpt>
<trkpt lat="38.21557" lon="-120.39065">
<ele>1067.9</ele>
<time>2026-04-22T09:07:40-07:00</time>
</trkpt>
<trkpt lat="38.2156" lon="-120.3906">
<ele>1068.4</ele>
<time>2026-04-22T09:07:41-07:00</time>
</trkpt>
<trkpt lat="38.21566" lon="-120.39041">
<ele>1067.7</ele>
<time>2026-04-22T09:07:42-07:00</time>
</trkpt>
<trkpt lat="38.21569" lon="-120.3902">
<ele>1067.5</ele>
<time>2026-04-22T09:07:43-07:00</time>
</trkpt>
<trkpt lat="38.21571" lon="-120.38979">
<ele>1065.9</ele>
<time>2026-04-22T09:07:44-07:00</time>
</trkpt>
<trkpt lat="38.21577" lon="-120.38958">
<ele>1065.7</ele>
<time>2026-04-22T09:07:45-07:00</time>
</trkpt>
<trkpt lat="38.21587" lon="-120.38943">
<ele>1068.5</ele>
<time>2026-04-22T09:07:46-07:00</time>
</trkpt>
<trkpt lat="38.21618" lon="-120.38927">
<ele>1071.7</ele>
<time>2026-04-22T09:07:47-07:00</time>
</trkpt>
<trkpt lat="38.21665" lon="-120.38909">
<ele>1077.9</ele>
<time>2026-04-22T09:07:48-07:00</time>
</trkpt>
<trkpt lat="38.21676" lon="-120.38896">
<ele>1079.4</ele>
<time>2026-04-22T09:07:49-07:00</time>
</trkpt>
<trkpt lat="38.21678" lon="-120.38847">
<ele>1081.5</ele>
<time>2026-04-22T09:07:50-07:00</time>
</trkpt>
<trkpt lat="38.21673" lon="-120.38823">
<ele>1082</ele>
<time>2026-04-22T09:07:51-07:00</time>
</trkpt>
<trkpt lat="38.21665" lon="-120.38801">
<ele>1083.4</ele>
<time>2026-04-22T09:07:52-07:00</time>
</trkpt>
<trkpt lat="38.21676" lon="-120.3875">
<ele>1081.2</ele>
<time>2026-04-22T09:07:53-07:00</time>
</trkpt>
<trkpt lat="38.21679" lon="-120.38696">
<ele>1083.7</ele>
<time>2026-04-22T09:07:54-07:00</time>
</trkpt>
<trkpt lat="38.21684" lon="-120.3868">
<ele>1083.9</ele>
<time>2026-04-22T09:07:55-07:00</time>
</trkpt>
<trkpt lat="38.21692" lon="-120.3867">
<ele>1083.4</ele>
<time>2026-04-22T09:07:56-07:00</time>
</trkpt>
<trkpt lat="38.21714" lon="-120.38658">
<ele>1084.1</ele>
<time>2026-04-22T09:07:57-07:00</time>
</trkpt>
<trkpt lat="38.21728" lon="-120.38644">
<ele>1084.9</ele>
<time>2026-04-22T09:07:58-07:00</time>
</trkpt>
<trkpt lat="38.21737" lon="-120.38622">
<ele>1084.9</ele>
<time>2026-04-22T09:07:59-07:00</time>
</trkpt>
<trkpt lat="38.21741" lon="-120.38593">
<ele>1084.1</ele>
<time>2026-04-22T09:08:00-07:00</time>
</trkpt>
<trkpt lat="38.21748" lon="-120.38577">
<ele>1084.8</ele>
<time>2026-04-22T09:08:01-07:00</time>
</trkpt>
<trkpt lat="38.21764" lon="-120.38568">
<ele>1083.5</ele>
<time>2026-04-22T09:08:02-07:00</time>
</trkpt>
<trkpt lat="38.21822" lon="-120.38552">
<ele>1086.9</ele>
<time>2026-04-22T09:08:03-07:00</time>
</trkpt>
<trkpt lat="38.21835" lon="-120.38546">
<ele>1088.7</ele>
<time>2026-04-22T09:08:04-07:00</time>
</trkpt>
<trkpt lat="38.21847" lon="-120.38546">
<ele>1087.8</ele>
<time>2026-04-22T09:08:05-07:00</time>
</trkpt>
<trkpt lat="38.21862" lon="-120.38534">
<ele>1086.7</ele>
<time>2026-04-22T09:08:06-07:00</time>
</trkpt>
<trkpt lat="38.21862" lon="-120.3852">
<ele>1087.2</ele>
<time>2026-04-22T09:08:07-07:00</time>
</trkpt>
<trkpt lat="38.21868" lon="-120.38509">
<ele>1087.9</ele>
<time>2026-04-22T09:08:08-07:00</time>
</trkpt>
<trkpt lat="38.21882" lon="-120.38495">
<ele>1086.3</ele>
<time>2026-04-22T09:08:09-07:00</time>
</trkpt>
<trkpt lat="38.21915" lon="-120.38453">
<ele>1089.8</ele>
<time>2026-04-22T09:08:10-07:00</time>
</trkpt>
<trkpt lat="38.21929" lon="-120.38441">
<ele>1089</ele>
<time>2026-04-22T09:08:11-07:00</time>
</trkpt>
<trkpt lat="38.21942" lon="-120.38436">
<ele>1087.5</ele>
<time>2026-04-22T09:08:12-07:00</time>
</trkpt>
<trkpt lat="38.21956" lon="-120.38436">
<ele>1088.5</ele>
<time>2026-04-22T09:08:13-07:00</time>
</trkpt>
<trkpt lat="38.21971" lon="-120.38433">
<ele>1091.6</ele>
<time>2026-04-22T09:08:14-07:00</time>
</trkpt>
<trkpt lat="38.21985" lon="-120.38425">
<ele>1091.7</ele>
<time>2026-04-22T09:08:15-07:00</time>
</trkpt>
<trkpt lat="38.22003" lon="-120.38419">
<ele>1091.7</ele>
<time>2026-04-22T09:08:16-07:00</time>
</trkpt>
<trkpt lat="38.22021" lon="-120.38422">
<ele>1093.4</ele>
<time>2026-04-22T09:08:17-07:00</time>
</trkpt>
<trkpt lat="38.22045" lon="-120.38429">
<ele>1093.9</ele>
<time>2026-04-22T09:08:18-07:00</time>
</trkpt>
<trkpt lat="38.22072" lon="-120.38443">
<ele>1093.8</ele>
<time>2026-04-22T09:08:19-07:00</time>
</trkpt>
<trkpt lat="38.22094" lon="-120.38446">
<ele>1092.9</ele>
<time>2026-04-22T09:08:20-07:00</time>
</trkpt>
<trkpt lat="38.22123" lon="-120.38443">
<ele>1096.8</ele>
<time>2026-04-22T09:08:21-07:00</time>
</trkpt>
<trkpt lat="38.2218" lon="-120.3845">
<ele>1096.3</ele>
<time>2026-04-22T09:08:22-07:00</time>
</trkpt>
<trkpt lat="38.22191" lon="-120.38448">
<ele>1095.1</ele>
<time>2026-04-22T09:08:23-07:00</time>
</trkpt>
<trkpt lat="38.22209" lon="-120.38436">
<ele>1093.7</ele>
<time>2026-04-22T09:08:24-07:00</time>
</trkpt>
<trkpt lat="38.22253" lon="-120.38437">
<ele>1101.6</ele>
<time>2026-04-22T09:08:25-07:00</time>
</trkpt>
<trkpt lat="38.22264" lon="-120.38434">
<ele>1101</ele>
<time>2026-04-22T09:08:26-07:00</time>
</trkpt>
<trkpt lat="38.22281" lon="-120.3842">
<ele>1101.6</ele>
<time>2026-04-22T09:08:27-07:00</time>
</trkpt>
<trkpt lat="38.22288" lon="-120.38437">
<ele>1103.7</ele>
<time>2026-04-22T09:08:28-07:00</time>
</trkpt>
<trkpt lat="38.22287" lon="-120.38445">
<ele>1104.9</ele>
<time>2026-04-22T09:08:29-07:00</time>
</trkpt>
<trkpt lat="38.22283" lon="-120.38452">
<ele>1104.9</ele>
<time>2026-04-22T09:08:30-07:00</time>
</trkpt>
<trkpt lat="38.22274" lon="-120.3845">
<ele>1104.4</ele>
<time>2026-04-22T09:08:31-07:00</time>
</trkpt>
<trkpt lat="38.22273" lon="-120.38461">
<ele>1105.7</ele>
<time>2026-04-22T09:08:32-07:00</time>
</trkpt>
<trkpt lat="38.22276" lon="-120.3847">
<ele>1106.7</ele>
<time>2026-04-22T09:08:33-07:00</time>
</trkpt>
<trkpt lat="38.22284" lon="-120.38478">
<ele>1108.7</ele>
<time>2026-04-22T09:08:34-07:00</time>
</trkpt>
<trkpt lat="38.22291" lon="-120.38495">
<ele>1112.4</ele>
<time>2026-04-22T09:08:35-07:00</time>
</trkpt>
<trkpt lat="38.223" lon="-120.38543">
<ele>1118</ele>
<time>2026-04-22T09:08:36-07:00</time>
</trkpt>
<trkpt lat="38.22305" lon="-120.38557">
<ele>1122</ele>
<time>2026-04-22T09:08:37-07:00</time>
</trkpt>
<trkpt lat="38.22332" lon="-120.38586">
<ele>1126.3</ele>
<time>2026-04-22T09:08:38-07:00</time>
</trkpt>
<trkpt lat="38.22337" lon="-120.38601">
<ele>1129.2</ele>
<time>2026-04-22T09:08:39-07:00</time>
</trkpt>
<trkpt lat="38.22335" lon="-120.38617">
<ele>1130.4</ele>
<time>2026-04-22T09:08:40-07:00</time>
</trkpt>
<trkpt lat="38.22331" lon="-120.38628">
<ele>1130.5</ele>
<time>2026-04-22T09:08:41-07:00</time>
</trkpt>
<trkpt lat="38.22325" lon="-120.38636">
<ele>1132.1</ele>
<time>2026-04-22T09:08:42-07:00</time>
</trkpt>
<trkpt lat="38.22305" lon="-120.38641">
<ele>1135.1</ele>
<time>2026-04-22T09:08:43-07:00</time>
</trkpt>
<trkpt lat="38.22276" lon="-120.38634">
<ele>1135.8</ele>
<time>2026-04-22T09:08:44-07:00</time>
</trkpt>
<trkpt lat="38.22258" lon="-120.38626">
<ele>1135.9</ele>
<time>2026-04-22T09:08:45-07:00</time>
</trkpt>
<trkpt lat="38.22211" lon="-120.38628">
<ele>1138.8</ele>
<time>2026-04-22T09:08:46-07:00</time>
</trkpt>
<trkpt lat="38.22191" lon="-120.38632">
<ele>1139.9</ele>
<time>2026-04-22T09:08:47-07:00</time>
</trkpt>
<trkpt lat="38.22184" lon="-120.3864">
<ele>1139.8</ele>
<time>2026-04-22T09:08:48-07:00</time>
</trkpt>
<trkpt lat="38.22182" lon="-120.38654">
<ele>1139.9</ele>
<time>2026-04-22T09:08:49-07:00</time>
</trkpt>
<trkpt lat="38.22191" lon="-120.38711">
<ele>1141.4</ele>
<time>2026-04-22T09:08:50-07:00</time>
</trkpt>
<trkpt lat="38.22211" lon="-120.38733">
<ele>1142.6</ele>
<time>2026-04-22T09:08:51-07:00</time>
</trkpt>
<trkpt lat="38.22214" lon="-120.38748">
<ele>1142.6</ele>
<time>2026-04-22T09:08:52-07:00</time>
</trkpt>
<trkpt lat="38.22209" lon="-120.38792">
<ele>1146.1</ele>
<time>2026-04-22T09:08:53-07:00</time>
</trkpt>
<trkpt lat="38.22199" lon="-120.38831">
<ele>1147</ele>
<time>2026-04-22T09:08:54-07:00</time>
</trkpt>
<trkpt lat="38.22198" lon="-120.38848">
<ele>1147.1</ele>
<time>2026-04-22T09:08:55-07:00</time>
</trkpt>
<trkpt lat="38.22202" lon="-120.38859">
<ele>1146.1</ele>
<time>2026-04-22T09:08:56-07:00</time>
</trkpt>
<trkpt lat="38.22209" lon="-120.38867">
<ele>1146.1</ele>
<time>2026-04-22T09:08:57-07:00</time>
</trkpt>
<trkpt lat="38.22217" lon="-120.38871">
<ele>1146.2</ele>
<time>2026-04-22T09:08:58-07:00</time>
</trkpt>
<trkpt lat="38.22245" lon="-120.38893">
<ele>1145.9</ele>
<time>2026-04-22T09:08:59-07:00</time>
</trkpt>
<trkpt lat="38.22263" lon="-120.38897">
<ele>1148.7</ele>
<time>2026-04-22T09:09:00-07:00</time>
</trkpt>
<trkpt lat="38.22271" lon="-120.38928">
<ele>1148.4</ele>
<time>2026-04-22T09:09:01-07:00</time>
</trkpt>
<trkpt lat="38.22262" lon="-120.38944">
<ele>1147</ele>
<time>2026-04-22T09:09:02-07:00</time>
</trkpt>
<trkpt lat="38.22258" lon="-120.38956">
<ele>1145.4</ele>
<time>2026-04-22T09:09:03-07:00</time>
</trkpt>
<trkpt lat="38.22267" lon="-120.38968">
<ele>1145</ele>
<time>2026-04-22T09:09:04-07:00</time>
</trkpt>
<trkpt lat="38.22281" lon="-120.38971">
<ele>1145.1</ele>
<time>2026-04-22T09:09:05-07:00</time>
</trkpt>
<trkpt lat="38.22294" lon="-120.38971">
<ele>1145.4</ele>
<time>2026-04-22T09:09:06-07:00</time>
</trkpt>
<trkpt lat="38.22312" lon="-120.38978">
<ele>1147.1</ele>
<time>2026-04-22T09:09:07-07:00</time>
</trkpt>
<trkpt lat="38.22335" lon="-120.38978">
<ele>1147.1</ele>
<time>2026-04-22T09:09:08-07:00</time>
</trkpt>
<trkpt lat="38.22357" lon="-120.38968">
<ele>1147.4</ele>
<time>2026-04-22T09:09:09-07:00</time>
</trkpt>
<trkpt lat="38.22379" lon="-120.38951">
<ele>1146.9</ele>
<time>2026-04-22T09:09:10-07:00</time>
</trkpt>
<trkpt lat="38.22387" lon="-120.3893">
<ele>1145.5</ele>
<time>2026-04-22T09:09:11-07:00</time>
</trkpt>
<trkpt lat="38.2239" lon="-120.38897">
<ele>1148.5</ele>
<time>2026-04-22T09:09:12-07:00</time>
</trkpt>
<trkpt lat="38.22399" lon="-120.38876">
<ele>1150.8</ele>
<time>2026-04-22T09:09:13-07:00</time>
</trkpt>
<trkpt lat="38.22406" lon="-120.38871">
<ele>1150.8</ele>
<time>2026-04-22T09:09:14-07:00</time>
</trkpt>
<trkpt lat="38.2242" lon="-120.38869">
<ele>1157.3</ele>
<time>2026-04-22T09:09:15-07:00</time>
</trkpt>
<trkpt lat="38.22425" lon="-120.38875">
<ele>1156.7</ele>
<time>2026-04-22T09:09:16-07:00</time>
</trkpt>
<trkpt lat="38.22423" lon="-120.38877">
<ele>1156.7</ele>
<time>2026-04-22T09:09:17-07:00</time>
</trkpt>
<trkpt lat="38.22431" lon="-120.38897">
<ele>1155.6</ele>
<time>2026-04-22T09:09:18-07:00</time>
</trkpt>
<trkpt lat="38.22439" lon="-120.38905">
<ele>1153.2</ele>
<time>2026-04-22T09:09:19-07:00</time>
</trkpt>
<trkpt lat="38.22446" lon="-120.38908">
<ele>1153.1</ele>
<time>2026-04-22T09:09:20-07:00</time>
</trkpt>
<trkpt lat="38.22446" lon="-120.3891">
<ele>1153.1</ele>
<time>2026-04-22T09:09:21-07:00</time>
</trkpt>
<trkpt lat="38.22449" lon="-120.38911">
<ele>1153.1</ele>
<time>2026-04-22T09:09:22-07:00</time>
</trkpt>
<trkpt lat="38.22455" lon="-120.38926">
<ele>1154.9</ele>
<time>2026-04-22T09:09:23-07:00</time>
</trkpt>
<trkpt lat="38.22453" lon="-120.3895">
<ele>1157.2</ele>
<time>2026-04-22T09:09:24-07:00</time>
</trkpt>
<trkpt lat="38.22455" lon="-120.38992">
<ele>1160</ele>
<time>2026-04-22T09:09:25-07:00</time>
</trkpt>
<trkpt lat="38.22458" lon="-120.38996">
<ele>1160</ele>
<time>2026-04-22T09:09:26-07:00</time>
</trkpt>
<trkpt lat="38.22462" lon="-120.39012">
<ele>1159.9</ele>
<time>2026-04-22T09:09:27-07:00</time>
</trkpt>
<trkpt lat="38.22466" lon="-120.39015">
<ele>1161.2</ele>
<time>2026-04-22T09:09:28-07:00</time>
</trkpt>
<trkpt lat="38.22498" lon="-120.39054">
<ele>1161.6</ele>
<time>2026-04-22T09:09:29-07:00</time>
</trkpt>
<trkpt lat="38.22507" lon="-120.39057">
<ele>1162.3</ele>
<time>2026-04-22T09:09:30-07:00</time>
</trkpt>
<trkpt lat="38.22524" lon="-120.39058">
<ele>1163.8</ele>
<time>2026-04-22T09:09:31-07:00</time>
</trkpt>
<trkpt lat="38.22534" lon="-120.39066">
<ele>1166</ele>
<time>2026-04-22T09:09:32-07:00</time>
</trkpt>
<trkpt lat="38.22544" lon="-120.39088">
<ele>1167.9</ele>
<time>2026-04-22T09:09:33-07:00</time>
</trkpt>
<trkpt lat="38.22551" lon="-120.39096">
<ele>1168.6</ele>
<time>2026-04-22T09:09:34-07:00</time>
</trkpt>
<trkpt lat="38.22552" lon="-120.39102">
<ele>1166.4</ele>
<time>2026-04-22T09:09:35-07:00</time>
</trkpt>
<trkpt lat="38.22556" lon="-120.39099">
<ele>1169.2</ele>
<time>2026-04-22T09:09:36-07:00</time>
</trkpt>
<trkpt lat="38.22563" lon="-120.39099">
<ele>1169.2</ele>
<time>2026-04-22T09:09:37-07:00</time>
</trkpt>
<trkpt lat="38.22589" lon="-120.39093">
<ele>1170.8</ele>
<time>2026-04-22T09:09:38-07:00</time>
</trkpt>
<trkpt lat="38.22603" lon="-120.39092">
<ele>1173.5</ele>
<time>2026-04-22T09:09:39-07:00</time>
</trkpt>
<trkpt lat="38.22609" lon="-120.39097">
<ele>1174</ele>
<time>2026-04-22T09:09:40-07:00</time>
</trkpt>
<trkpt lat="38.22623" lon="-120.39123">
<ele>1177.8</ele>
<time>2026-04-22T09:09:41-07:00</time>
</trkpt>
<trkpt lat="38.22638" lon="-120.3914">
<ele>1179</ele>
<time>2026-04-22T09:09:42-07:00</time>
</trkpt>
<trkpt lat="38.22649" lon="-120.39149">
<ele>1183.6</ele>
<time>2026-04-22T09:09:43-07:00</time>
</trkpt>
<trkpt lat="38.22656" lon="-120.39157">
<ele>1183.6</ele>
<time>2026-04-22T09:09:44-07:00</time>
</trkpt>
<trkpt lat="38.22659" lon="-120.39167">
<ele>1186.6</ele>
<time>2026-04-22T09:09:45-07:00</time>
</trkpt>
<trkpt lat="38.22658" lon="-120.39178">
<ele>1187</ele>
<time>2026-04-22T09:09:46-07:00</time>
</trkpt>
<trkpt lat="38.22661" lon="-120.39198">
<ele>1187.3</ele>
<time>2026-04-22T09:09:47-07:00</time>
</trkpt>
<trkpt lat="38.22667" lon="-120.39213">
<ele>1187.9</ele>
<time>2026-04-22T09:09:48-07:00</time>
</trkpt>
<trkpt lat="38.22672" lon="-120.39219">
<ele>1187.9</ele>
<time>2026-04-22T09:09:49-07:00</time>
</trkpt>
<trkpt lat="38.22677" lon="-120.39218">
<ele>1188.3</ele>
<time>2026-04-22T09:09:50-07:00</time>
</trkpt>
<trkpt lat="38.22688" lon="-120.3919">
<ele>1190.7</ele>
<time>2026-04-22T09:09:51-07:00</time>
</trkpt>
<trkpt lat="38.22697" lon="-120.39175">
<ele>1192.6</ele>
<time>2026-04-22T09:09:52-07:00</time>
</trkpt>
<trkpt lat="38.22704" lon="-120.39172">
<ele>1194.5</ele>
<time>2026-04-22T09:09:53-07:00</time>
</trkpt>
<trkpt lat="38.22708" lon="-120.39161">
<ele>1194.9</ele>
<time>2026-04-22T09:09:54-07:00</time>
</trkpt>
<trkpt lat="38.22708" lon="-120.39123">
<ele>1197.4</ele>
<time>2026-04-22T09:09:55-07:00</time>
</trkpt>
<trkpt lat="38.22715" lon="-120.39074">
<ele>1199.8</ele>
<time>2026-04-22T09:09:56-07:00</time>
</trkpt>
<trkpt lat="38.22712" lon="-120.39061">
<ele>1201.7</ele>
<time>2026-04-22T09:09:57-07:00</time>
</trkpt>
<trkpt lat="38.2271" lon="-120.3903">
<ele>1205.9</ele>
<time>2026-04-22T09:09:58-07:00</time>
</trkpt>
<trkpt lat="38.22712" lon="-120.39015">
<ele>1209.3</ele>
<time>2026-04-22T09:09:59-07:00</time>
</trkpt>
<trkpt lat="38.22711" lon="-120.38992">
<ele>1211.5</ele>
<time>2026-04-22T09:10:00-07:00</time>
</trkpt>
<trkpt lat="38.22713" lon="-120.38967">
<ele>1218.5</ele>
<time>2026-04-22T09:10:01-07:00</time>
</trkpt>
<trkpt lat="38.22701" lon="-120.3891">
<ele>1219.6</ele>
<time>2026-04-22T09:10:02-07:00</time>
</trkpt>
<trkpt lat="38.22704" lon="-120.38897">
<ele>1223.3</ele>
<time>2026-04-22T09:10:03-07:00</time>
</trkpt>
<trkpt lat="38.22716" lon="-120.3888">
<ele>1226.4</ele>
<time>2026-04-22T09:10:04-07:00</time>
</trkpt>
<trkpt lat="38.2273" lon="-120.38853">
<ele>1228.1</ele>
<time>2026-04-22T09:10:05-07:00</time>
</trkpt>
<trkpt lat="38.22744" lon="-120.38831">
<ele>1234.1</ele>
<time>2026-04-22T09:10:06-07:00</time>
</trkpt>
<trkpt lat="38.22751" lon="-120.38809">
<ele>1238</ele>
<time>2026-04-22T09:10:07-07:00</time>
</trkpt>
<trkpt lat="38.22752" lon="-120.38798">
<ele>1239</ele>
<time>2026-04-22T09:10:08-07:00</time>
</trkpt>
<trkpt lat="38.22744" lon="-120.38775">
<ele>1240.3</ele>
<time>2026-04-22T09:10:09-07:00</time>
</trkpt>
<trkpt lat="38.2275" lon="-120.38758">
<ele>1244.2</ele>
<time>2026-04-22T09:10:10-07:00</time>
</trkpt>
<trkpt lat="38.22763" lon="-120.38744">
<ele>1246.5</ele>
<time>2026-04-22T09:10:11-07:00</time>
</trkpt>
<trkpt lat="38.22779" lon="-120.38731">
<ele>1249.6</ele>
<time>2026-04-22T09:10:12-07:00</time>
</trkpt>
<trkpt lat="38.22828" lon="-120.38718">
<ele>1252.1</ele>
<time>2026-04-22T09:10:13-07:00</time>
</trkpt>
<trkpt lat="38.22843" lon="-120.38719">
<ele>1250</ele>
<time>2026-04-22T09:10:14-07:00</time>
</trkpt>
<trkpt lat="38.22866" lon="-120.38724">
<ele>1248.3</ele>
<time>2026-04-22T09:10:15-07:00</time>
</trkpt>
<trkpt lat="38.22891" lon="-120.3874">
<ele>1244.8</ele>
<time>2026-04-22T09:10:16-07:00</time>
</trkpt>
<trkpt lat="38.22911" lon="-120.38746">
<ele>1245.2</ele>
<time>2026-04-22T09:10:17-07:00</time>
</trkpt>
<trkpt lat="38.22928" lon="-120.38759">
<ele>1245.4</ele>
<time>2026-04-22T09:10:18-07:00</time>
</trkpt>
<trkpt lat="38.22948" lon="-120.38769">
<ele>1246.6</ele>
<time>2026-04-22T09:10:19-07:00</time>
</trkpt>
<trkpt lat="38.22955" lon="-120.3877">
<ele>1245.9</ele>
<time>2026-04-22T09:10:20-07:00</time>
</trkpt>
<trkpt lat="38.22965" lon="-120.38769">
<ele>1248.7</ele>
<time>2026-04-22T09:10:21-07:00</time>
</trkpt>
<trkpt lat="38.22985" lon="-120.38738">
<ele>1248.8</ele>
<time>2026-04-22T09:10:22-07:00</time>
</trkpt>
<trkpt lat="38.2303" lon="-120.3872">
<ele>1252.6</ele>
<time>2026-04-22T09:10:23-07:00</time>
</trkpt>
<trkpt lat="38.23046" lon="-120.38722">
<ele>1253.3</ele>
<time>2026-04-22T09:10:24-07:00</time>
</trkpt>
<trkpt lat="38.23064" lon="-120.3873">
<ele>1255.2</ele>
<time>2026-04-22T09:10:25-07:00</time>
</trkpt>
<trkpt lat="38.23087" lon="-120.38744">
<ele>1258.6</ele>
<time>2026-04-22T09:10:26-07:00</time>
</trkpt>
<trkpt lat="38.231" lon="-120.38773">
<ele>1267.1</ele>
<time>2026-04-22T09:10:27-07:00</time>
</trkpt>
<trkpt lat="38.23111" lon="-120.38791">
<ele>1271.8</ele>
<time>2026-04-22T09:10:28-07:00</time>
</trkpt>
<trkpt lat="38.23169" lon="-120.38869">
<ele>1281.4</ele>
<time>2026-04-22T09:10:29-07:00</time>
</trkpt>
<trkpt lat="38.23204" lon="-120.38891">
<ele>1278.3</ele>
<time>2026-04-22T09:10:30-07:00</time>
</trkpt>
<trkpt lat="38.23221" lon="-120.38928">
<ele>1279.1</ele>
<time>2026-04-22T09:10:31-07:00</time>
</trkpt>
<trkpt lat="38.23236" lon="-120.38929">
<ele>1278.5</ele>
<time>2026-04-22T09:10:32-07:00</time>
</trkpt>
<trkpt lat="38.23276" lon="-120.38847">
<ele>1262.7</ele>
<time>2026-04-22T09:10:33-07:00</time>
</trkpt>
<trkpt lat="38.23287" lon="-120.38805">
<ele>1256.7</ele>
<time>2026-04-22T09:10:34-07:00</time>
</trkpt>
<trkpt lat="38.23288" lon="-120.38787">
<ele>1258.8</ele>
<time>2026-04-22T09:10:35-07:00</time>
</trkpt>
<trkpt lat="38.23286" lon="-120.38768">
<ele>1258</ele>
<time>2026-04-22T09:10:36-07:00</time>
</trkpt>
<trkpt lat="38.23288" lon="-120.38763">
<ele>1258.2</ele>
<time>2026-04-22T09:10:37-07:00</time>
</trkpt>
<trkpt lat="38.23294" lon="-120.38762">
<ele>1258.2</ele>
<time>2026-04-22T09:10:38-07:00</time>
</trkpt>
<trkpt lat="38.23302" lon="-120.38767">
<ele>1257.4</ele>
<time>2026-04-22T09:10:39-07:00</time>
</trkpt>
<trkpt lat="38.23311" lon="-120.38778">
<ele>1256.7</ele>
<time>2026-04-22T09:10:40-07:00</time>
</trkpt>
<trkpt lat="38.23313" lon="-120.38775">
<ele>1256.6</ele>
<time>2026-04-22T09:10:41-07:00</time>
</trkpt>
<trkpt lat="38.23317" lon="-120.38785">
<ele>1254.3</ele>
<time>2026-04-22T09:10:42-07:00</time>
</trkpt>
<trkpt lat="38.23335" lon="-120.38799">
<ele>1254</ele>
<time>2026-04-22T09:10:43-07:00</time>
</trkpt>
<trkpt lat="38.2342" lon="-120.3885">
<ele>1255.5</ele>
<time>2026-04-22T09:10:44-07:00</time>
</trkpt>
<trkpt lat="38.23433" lon="-120.38856">
<ele>1255.7</ele>
<time>2026-04-22T09:10:45-07:00</time>
</trkpt>
<trkpt lat="38.23469" lon="-120.38866">
<ele>1250.7</ele>
<time>2026-04-22T09:10:46-07:00</time>
</trkpt>
<trkpt lat="38.23484" lon="-120.38875">
<ele>1247.5</ele>
<time>2026-04-22T09:10:47-07:00</time>
</trkpt>
<trkpt lat="38.2349" lon="-120.38881">
<ele>1248.2</ele>
<time>2026-04-22T09:10:48-07:00</time>
</trkpt>
<trkpt lat="38.23516" lon="-120.38872">
<ele>1244.7</ele>
<time>2026-04-22T09:10:49-07:00</time>
</trkpt>
<trkpt lat="38.23525" lon="-120.38866">
<ele>1243.8</ele>
<time>2026-04-22T09:10:50-07:00</time>
</trkpt>
<trkpt lat="38.23523" lon="-120.38856">
<ele>1242.4</ele>
<time>2026-04-22T09:10:51-07:00</time>
</trkpt>
<trkpt lat="38.23523" lon="-120.38834">
<ele>1238.7</ele>
<time>2026-04-22T09:10:52-07:00</time>
</trkpt>
<trkpt lat="38.23525" lon="-120.3882">
<ele>1235.3</ele>
<time>2026-04-22T09:10:53-07:00</time>
</trkpt>
<trkpt lat="38.23534" lon="-120.38796">
<ele>1232.6</ele>
<time>2026-04-22T09:10:54-07:00</time>
</trkpt>
<trkpt lat="38.23575" lon="-120.38733">
<ele>1229.8</ele>
<time>2026-04-22T09:10:55-07:00</time>
</trkpt>
<trkpt lat="38.23606" lon="-120.38733">
<ele>1232.9</ele>
<time>2026-04-22T09:10:56-07:00</time>
</trkpt>
<trkpt lat="38.23652" lon="-120.38742">
<ele>1237.3</ele>
<time>2026-04-22T09:10:57-07:00</time>
</trkpt>
<trkpt lat="38.23663" lon="-120.38742">
<ele>1239</ele>
<time>2026-04-22T09:10:58-07:00</time>
</trkpt>
<trkpt lat="38.23675" lon="-120.38739">
<ele>1242.2</ele>
<time>2026-04-22T09:10:59-07:00</time>
</trkpt>
<trkpt lat="38.23692" lon="-120.38702">
<ele>1244.8</ele>
<time>2026-04-22T09:11:00-07:00</time>
</trkpt>
<trkpt lat="38.23707" lon="-120.3869">
<ele>1244.5</ele>
<time>2026-04-22T09:11:01-07:00</time>
</trkpt>
<trkpt lat="38.23713" lon="-120.38683">
<ele>1244.9</ele>
<time>2026-04-22T09:11:02-07:00</time>
</trkpt>
<trkpt lat="38.23717" lon="-120.38675">
<ele>1246</ele>
<time>2026-04-22T09:11:03-07:00</time>
</trkpt>
<trkpt lat="38.23751" lon="-120.38656">
<ele>1251.6</ele>
<time>2026-04-22T09:11:04-07:00</time>
</trkpt>
<trkpt lat="38.23754" lon="-120.3865">
<ele>1251.6</ele>
<time>2026-04-22T09:11:05-07:00</time>
</trkpt>
<trkpt lat="38.23758" lon="-120.38634">
<ele>1252.5</ele>
<time>2026-04-22T09:11:06-07:00</time>
</trkpt>
<trkpt lat="38.23769" lon="-120.38629">
<ele>1256.3</ele>
<time>2026-04-22T09:11:07-07:00</time>
</trkpt>
<trkpt lat="38.23776" lon="-120.3862">
<ele>1256.2</ele>
<time>2026-04-22T09:11:08-07:00</time>
</trkpt>
<trkpt lat="38.23792" lon="-120.38609">
<ele>1260.2</ele>
<time>2026-04-22T09:11:09-07:00</time>
</trkpt>
<trkpt lat="38.23816" lon="-120.38578">
<ele>1262.8</ele>
<time>2026-04-22T09:11:10-07:00</time>
</trkpt>
<trkpt lat="38.23821" lon="-120.38575">
<ele>1262.8</ele>
<time>2026-04-22T09:11:11-07:00</time>
</trkpt>
<trkpt lat="38.23825" lon="-120.38576">
<ele>1264.4</ele>
<time>2026-04-22T09:11:12-07:00</time>
</trkpt>
<trkpt lat="38.23828" lon="-120.3858">
<ele>1264.4</ele>
<time>2026-04-22T09:11:13-07:00</time>
</trkpt>
<trkpt lat="38.23828" lon="-120.38587">
<ele>1265.5</ele>
<time>2026-04-22T09:11:14-07:00</time>
</trkpt>
<trkpt lat="38.23823" lon="-120.386">
<ele>1265.1</ele>
<time>2026-04-22T09:11:15-07:00</time>
</trkpt>
<trkpt lat="38.23818" lon="-120.38623">
<ele>1268.1</ele>
<time>2026-04-22T09:11:16-07:00</time>
</trkpt>
<trkpt lat="38.23819" lon="-120.3863">
<ele>1268.7</ele>
<time>2026-04-22T09:11:17-07:00</time>
</trkpt>
<trkpt lat="38.23821" lon="-120.38632">
<ele>1268.7</ele>
<time>2026-04-22T09:11:18-07:00</time>
</trkpt>
<trkpt lat="38.23825" lon="-120.3863">
<ele>1271</ele>
<time>2026-04-22T09:11:19-07:00</time>
</trkpt>
<trkpt lat="38.23848" lon="-120.38608">
<ele>1271.7</ele>
<time>2026-04-22T09:11:20-07:00</time>
</trkpt>
<trkpt lat="38.23856" lon="-120.38603">
<ele>1273.3</ele>
<time>2026-04-22T09:11:21-07:00</time>
</trkpt>
<trkpt lat="38.23859" lon="-120.38607">
<ele>1273.3</ele>
<time>2026-04-22T09:11:22-07:00</time>
</trkpt>
<trkpt lat="38.23859" lon="-120.38617">
<ele>1274.9</ele>
<time>2026-04-22T09:11:23-07:00</time>
</trkpt>
<trkpt lat="38.23856" lon="-120.3863">
<ele>1277.7</ele>
<time>2026-04-22T09:11:24-07:00</time>
</trkpt>
<trkpt lat="38.23856" lon="-120.38645">
<ele>1279.1</ele>
<time>2026-04-22T09:11:25-07:00</time>
</trkpt>
<trkpt lat="38.23852" lon="-120.3866">
<ele>1281.2</ele>
<time>2026-04-22T09:11:26-07:00</time>
</trkpt>
<trkpt lat="38.23854" lon="-120.38667">
<ele>1282.2</ele>
<time>2026-04-22T09:11:27-07:00</time>
</trkpt>
<trkpt lat="38.2386" lon="-120.38673">
<ele>1282.2</ele>
<time>2026-04-22T09:11:28-07:00</time>
</trkpt>
<trkpt lat="38.23874" lon="-120.38665">
<ele>1286.7</ele>
<time>2026-04-22T09:11:29-07:00</time>
</trkpt>
<trkpt lat="38.23895" lon="-120.38646">
<ele>1288.5</ele>
<time>2026-04-22T09:11:30-07:00</time>
</trkpt>
<trkpt lat="38.23907" lon="-120.38639">
<ele>1291.1</ele>
<time>2026-04-22T09:11:31-07:00</time>
</trkpt>
<trkpt lat="38.2391" lon="-120.38639">
<ele>1293.1</ele>
<time>2026-04-22T09:11:32-07:00</time>
</trkpt>
<trkpt lat="38.23912" lon="-120.38643">
<ele>1293.1</ele>
<time>2026-04-22T09:11:33-07:00</time>
</trkpt>
<trkpt lat="38.23904" lon="-120.38659">
<ele>1295.3</ele>
<time>2026-04-22T09:11:34-07:00</time>
</trkpt>
<trkpt lat="38.23898" lon="-120.38685">
<ele>1296.5</ele>
<time>2026-04-22T09:11:35-07:00</time>
</trkpt>
<trkpt lat="38.23898" lon="-120.38707">
<ele>1300.6</ele>
<time>2026-04-22T09:11:36-07:00</time>
</trkpt>
<trkpt lat="38.23901" lon="-120.38712">
<ele>1303.8</ele>
<time>2026-04-22T09:11:37-07:00</time>
</trkpt>
<trkpt lat="38.23904" lon="-120.38709">
<ele>1303.8</ele>
<time>2026-04-22T09:11:38-07:00</time>
</trkpt>
<trkpt lat="38.23917" lon="-120.38681">
<ele>1304.6</ele>
<time>2026-04-22T09:11:39-07:00</time>
</trkpt>
<trkpt lat="38.23928" lon="-120.38676">
<ele>1307</ele>
<time>2026-04-22T09:11:40-07:00</time>
</trkpt>
<trkpt lat="38.23937" lon="-120.38677">
<ele>1309.1</ele>
<time>2026-04-22T09:11:41-07:00</time>
</trkpt>
<trkpt lat="38.23957" lon="-120.38686">
<ele>1314.8</ele>
<time>2026-04-22T09:11:42-07:00</time>
</trkpt>
<trkpt lat="38.23966" lon="-120.38692">
<ele>1315.8</ele>
<time>2026-04-22T09:11:43-07:00</time>
</trkpt>
<trkpt lat="38.23973" lon="-120.387">
<ele>1318.8</ele>
<time>2026-04-22T09:11:44-07:00</time>
</trkpt>
<trkpt lat="38.23973" lon="-120.38709">
<ele>1321</ele>
<time>2026-04-22T09:11:45-07:00</time>
</trkpt>
<trkpt lat="38.23964" lon="-120.38718">
<ele>1322.4</ele>
<time>2026-04-22T09:11:46-07:00</time>
</trkpt>
<trkpt lat="38.23961" lon="-120.38728">
<ele>1322.9</ele>
<time>2026-04-22T09:11:47-07:00</time>
</trkpt>
<trkpt lat="38.23962" lon="-120.38738">
<ele>1324.6</ele>
<time>2026-04-22T09:11:48-07:00</time>
</trkpt>
<trkpt lat="38.23966" lon="-120.38742">
<ele>1327.5</ele>
<time>2026-04-22T09:11:49-07:00</time>
</trkpt>
<trkpt lat="38.23981" lon="-120.38744">
<ele>1328.8</ele>
<time>2026-04-22T09:11:50-07:00</time>
</trkpt>
<trkpt lat="38.23993" lon="-120.38742">
<ele>1328</ele>
<time>2026-04-22T09:11:51-07:00</time>
</trkpt>
<trkpt lat="38.24013" lon="-120.3875">
<ele>1326.3</ele>
<time>2026-04-22T09:11:52-07:00</time>
</trkpt>
<trkpt lat="38.24057" lon="-120.38756">
<ele>1324.7</ele>
<time>2026-04-22T09:11:53-07:00</time>
</trkpt>
<trkpt lat="38.24063" lon="-120.38755">
<ele>1324.7</ele>
<time>2026-04-22T09:11:54-07:00</time>
</trkpt>
<trkpt lat="38.24077" lon="-120.38745">
<ele>1321.7</ele>
<time>2026-04-22T09:11:55-07:00</time>
</trkpt>
<trkpt lat="38.2409" lon="-120.3874">
<ele>1319.9</ele>
<time>2026-04-22T09:11:56-07:00</time>
</trkpt>
<trkpt lat="38.24107" lon="-120.38742">
<ele>1317.8</ele>
<time>2026-04-22T09:11:57-07:00</time>
</trkpt>
<trkpt lat="38.2414" lon="-120.38731">
<ele>1317.5</ele>
<time>2026-04-22T09:11:58-07:00</time>
</trkpt>
<trkpt lat="38.24181" lon="-120.38733">
<ele>1318.8</ele>
<time>2026-04-22T09:11:59-07:00</time>
</trkpt>
<trkpt lat="38.2423" lon="-120.38742">
<ele>1321</ele>
<time>2026-04-22T09:12:00-07:00</time>
</trkpt>
<trkpt lat="38.24274" lon="-120.38747">
<ele>1328.3</ele>
<time>2026-04-22T09:12:01-07:00</time>
</trkpt>
<trkpt lat="38.24308" lon="-120.38748">
<ele>1334.4</ele>
<time>2026-04-22T09:12:02-07:00</time>
</trkpt>
<trkpt lat="38.24316" lon="-120.38745">
<ele>1335</ele>
<time>2026-04-22T09:12:03-07:00</time>
</trkpt>
<trkpt lat="38.24331" lon="-120.38736">
<ele>1334</ele>
<time>2026-04-22T09:12:04-07:00</time>
</trkpt>
<trkpt lat="38.24351" lon="-120.3872">
<ele>1330.9</ele>
<time>2026-04-22T09:12:05-07:00</time>
</trkpt>
<trkpt lat="38.24382" lon="-120.38727">
<ele>1332.1</ele>
<time>2026-04-22T09:12:06-07:00</time>
</trkpt>
<trkpt lat="38.24393" lon="-120.38734">
<ele>1332.5</ele>
<time>2026-04-22T09:12:07-07:00</time>
</trkpt>
<trkpt lat="38.24411" lon="-120.3875">
<ele>1334</ele>
<time>2026-04-22T09:12:08-07:00</time>
</trkpt>
<trkpt lat="38.24416" lon="-120.38752">
<ele>1333.6</ele>
<time>2026-04-22T09:12:09-07:00</time>
</trkpt>
<trkpt lat="38.24425" lon="-120.38751">
<ele>1335</ele>
<time>2026-04-22T09:12:10-07:00</time>
</trkpt>
<trkpt lat="38.24436" lon="-120.38747">
<ele>1339.7</ele>
<time>2026-04-22T09:12:11-07:00</time>
</trkpt>
<trkpt lat="38.24441" lon="-120.38749">
<ele>1339.7</ele>
<time>2026-04-22T09:12:12-07:00</time>
</trkpt>
<trkpt lat="38.24456" lon="-120.38765">
<ele>1343.9</ele>
<time>2026-04-22T09:12:13-07:00</time>
</trkpt>
<trkpt lat="38.24466" lon="-120.38766">
<ele>1345.9</ele>
<time>2026-04-22T09:12:14-07:00</time>
</trkpt>
<trkpt lat="38.24472" lon="-120.38763">
<ele>1345.9</ele>
<time>2026-04-22T09:12:15-07:00</time>
</trkpt>
<trkpt lat="38.24481" lon="-120.38763">
<ele>1347.2</ele>
<time>2026-04-22T09:12:16-07:00</time>
</trkpt>
<trkpt lat="38.24489" lon="-120.38768">
<ele>1348.5</ele>
<time>2026-04-22T09:12:17-07:00</time>
</trkpt>
<trkpt lat="38.24496" lon="-120.3877">
<ele>1348.9</ele>
<time>2026-04-22T09:12:18-07:00</time>
</trkpt>
<trkpt lat="38.24504" lon="-120.3877">
<ele>1351.3</ele>
<time>2026-04-22T09:12:19-07:00</time>
</trkpt>
<trkpt lat="38.24528" lon="-120.38775">
<ele>1354.1</ele>
<time>2026-04-22T09:12:20-07:00</time>
</trkpt>
<trkpt lat="38.24537" lon="-120.38781">
<ele>1355.8</ele>
<time>2026-04-22T09:12:21-07:00</time>
</trkpt>
<trkpt lat="38.24553" lon="-120.38797">
<ele>1358.5</ele>
<time>2026-04-22T09:12:22-07:00</time>
</trkpt>
<trkpt lat="38.24563" lon="-120.38803">
<ele>1359.8</ele>
<time>2026-04-22T09:12:23-07:00</time>
</trkpt>
<trkpt lat="38.24575" lon="-120.38801">
<ele>1360.7</ele>
<time>2026-04-22T09:12:24-07:00</time>
</trkpt>
<trkpt lat="38.24602" lon="-120.38808">
<ele>1359.3</ele>
<time>2026-04-22T09:12:25-07:00</time>
</trkpt>
<trkpt lat="38.24613" lon="-120.388">
<ele>1356.8</ele>
<time>2026-04-22T09:12:26-07:00</time>
</trkpt>
<trkpt lat="38.24619" lon="-120.38789">
<ele>1355.4</ele>
<time>2026-04-22T09:12:27-07:00</time>
</trkpt>
<trkpt lat="38.24622" lon="-120.38787">
<ele>1352.4</ele>
<time>2026-04-22T09:12:28-07:00</time>
</trkpt>
<trkpt lat="38.24629" lon="-120.38789">
<ele>1353.6</ele>
<time>2026-04-22T09:12:29-07:00</time>
</trkpt>
<trkpt lat="38.24635" lon="-120.38795">
<ele>1351.5</ele>
<time>2026-04-22T09:12:30-07:00</time>
</trkpt>
<trkpt lat="38.2464" lon="-120.38815">
<ele>1346.1</ele>
<time>2026-04-22T09:12:31-07:00</time>
</trkpt>
<trkpt lat="38.24644" lon="-120.38814">
<ele>1347</ele>
<time>2026-04-22T09:12:32-07:00</time>
</trkpt>
<trkpt lat="38.24649" lon="-120.38808">
<ele>1342.4</ele>
<time>2026-04-22T09:12:33-07:00</time>
</trkpt>
<trkpt lat="38.24664" lon="-120.38801">
<ele>1339.3</ele>
<time>2026-04-22T09:12:34-07:00</time>
</trkpt>
<trkpt lat="38.24696" lon="-120.38766">
<ele>1336.5</ele>
<time>2026-04-22T09:12:35-07:00</time>
</trkpt>
<trkpt lat="38.24704" lon="-120.38761">
<ele>1335.4</ele>
<time>2026-04-22T09:12:36-07:00</time>
</trkpt>
<trkpt lat="38.24711" lon="-120.38759">
<ele>1337.9</ele>
<time>2026-04-22T09:12:37-07:00</time>
</trkpt>
<trkpt lat="38.24721" lon="-120.38759">
<ele>1337.8</ele>
<time>2026-04-22T09:12:38-07:00</time>
</trkpt>
<trkpt lat="38.24743" lon="-120.3875">
<ele>1335</ele>
<time>2026-04-22T09:12:39-07:00</time>
</trkpt>
<trkpt lat="38.24762" lon="-120.38718">
<ele>1338.3</ele>
<time>2026-04-22T09:12:40-07:00</time>
</trkpt>
<trkpt lat="38.24767" lon="-120.38713">
<ele>1338.3</ele>
<time>2026-04-22T09:12:41-07:00</time>
</trkpt>
<trkpt lat="38.24774" lon="-120.38711">
<ele>1336.7</ele>
<time>2026-04-22T09:12:42-07:00</time>
</trkpt>
<trkpt lat="38.24783" lon="-120.38712">
<ele>1335.3</ele>
<time>2026-04-22T09:12:43-07:00</time>
</trkpt>
<trkpt lat="38.24799" lon="-120.3872">
<ele>1332</ele>
<time>2026-04-22T09:12:44-07:00</time>
</trkpt>
<trkpt lat="38.24809" lon="-120.38721">
<ele>1331.1</ele>
<time>2026-04-22T09:12:45-07:00</time>
</trkpt>
<trkpt lat="38.24824" lon="-120.38718">
<ele>1330.6</ele>
<time>2026-04-22T09:12:46-07:00</time>
</trkpt>
<trkpt lat="38.2483" lon="-120.38719">
<ele>1329.9</ele>
<time>2026-04-22T09:12:47-07:00</time>
</trkpt>
<trkpt lat="38.24841" lon="-120.38728">
<ele>1328.3</ele>
<time>2026-04-22T09:12:48-07:00</time>
</trkpt>
<trkpt lat="38.24862" lon="-120.38731">
<ele>1327.2</ele>
<time>2026-04-22T09:12:49-07:00</time>
</trkpt>
<trkpt lat="38.24869" lon="-120.38737">
<ele>1327.4</ele>
<time>2026-04-22T09:12:50-07:00</time>
</trkpt>
<trkpt lat="38.24891" lon="-120.38742">
<ele>1325.9</ele>
<time>2026-04-22T09:12:51-07:00</time>
</trkpt>
<trkpt lat="38.24906" lon="-120.3874">
<ele>1325.9</ele>
<time>2026-04-22T09:12:52-07:00</time>
</trkpt>
<trkpt lat="38.2491" lon="-120.38745">
<ele>1324.3</ele>
<time>2026-04-22T09:12:53-07:00</time>
</trkpt>
<trkpt lat="38.24921" lon="-120.38752">
<ele>1322.1</ele>
<time>2026-04-22T09:12:54-07:00</time>
</trkpt>
<trkpt lat="38.24939" lon="-120.38752">
<ele>1325.1</ele>
<time>2026-04-22T09:12:55-07:00</time>
</trkpt>
<trkpt lat="38.24957" lon="-120.3876">
<ele>1325.9</ele>
<time>2026-04-22T09:12:56-07:00</time>
</trkpt>
<trkpt lat="38.24969" lon="-120.3876">
<ele>1327.4</ele>
<time>2026-04-22T09:12:57-07:00</time>
</trkpt>
<trkpt lat="38.25001" lon="-120.38767">
<ele>1331.8</ele>
<time>2026-04-22T09:12:58-07:00</time>
</trkpt>
<trkpt lat="38.25009" lon="-120.38775">
<ele>1333</ele>
<time>2026-04-22T09:12:59-07:00</time>
</trkpt>
<trkpt lat="38.25014" lon="-120.38775">
<ele>1334.6</ele>
<time>2026-04-22T09:13:00-07:00</time>
</trkpt>
<trkpt lat="38.25018" lon="-120.38773">
<ele>1334.6</ele>
<time>2026-04-22T09:13:01-07:00</time>
</trkpt>
<trkpt lat="38.25024" lon="-120.38765">
<ele>1334</ele>
<time>2026-04-22T09:13:02-07:00</time>
</trkpt>
<trkpt lat="38.25036" lon="-120.38763">
<ele>1333.8</ele>
<time>2026-04-22T09:13:03-07:00</time>
</trkpt>
<trkpt lat="38.25045" lon="-120.38757">
<ele>1332.6</ele>
<time>2026-04-22T09:13:04-07:00</time>
</trkpt>
<trkpt lat="38.25056" lon="-120.38754">
<ele>1332.1</ele>
<time>2026-04-22T09:13:05-07:00</time>
</trkpt>
<trkpt lat="38.25079" lon="-120.38766">
<ele>1332.3</ele>
<time>2026-04-22T09:13:06-07:00</time>
</trkpt>
<trkpt lat="38.25085" lon="-120.38774">
<ele>1332.2</ele>
<time>2026-04-22T09:13:07-07:00</time>
</trkpt>
<trkpt lat="38.25088" lon="-120.38772">
<ele>1332.2</ele>
<time>2026-04-22T09:13:08-07:00</time>
</trkpt>
<trkpt lat="38.25092" lon="-120.3875">
<ele>1327.8</ele>
<time>2026-04-22T09:13:09-07:00</time>
</trkpt>
<trkpt lat="38.25092" lon="-120.38735">
<ele>1325.5</ele>
<time>2026-04-22T09:13:10-07:00</time>
</trkpt>
<trkpt lat="38.25099" lon="-120.38731">
<ele>1321.1</ele>
<time>2026-04-22T09:13:11-07:00</time>
</trkpt>
<trkpt lat="38.25113" lon="-120.38733">
<ele>1320.1</ele>
<time>2026-04-22T09:13:12-07:00</time>
</trkpt>
<trkpt lat="38.25107" lon="-120.38721">
<ele>1316.3</ele>
<time>2026-04-22T09:13:13-07:00</time>
</trkpt>
<trkpt lat="38.25114" lon="-120.38716">
<ele>1314.2</ele>
<time>2026-04-22T09:13:14-07:00</time>
</trkpt>
<trkpt lat="38.25125" lon="-120.38715">
<ele>1312.5</ele>
<time>2026-04-22T09:13:15-07:00</time>
</trkpt>
<trkpt lat="38.25126" lon="-120.38711">
<ele>1309.3</ele>
<time>2026-04-22T09:13:16-07:00</time>
</trkpt>
<trkpt lat="38.2511" lon="-120.38689">
<ele>1307</ele>
<time>2026-04-22T09:13:17-07:00</time>
</trkpt>
<trkpt lat="38.25126" lon="-120.38685">
<ele>1299.9</ele>
<time>2026-04-22T09:13:18-07:00</time>
</trkpt>
<trkpt lat="38.25141" lon="-120.38688">
<ele>1299.5</ele>
<time>2026-04-22T09:13:19-07:00</time>
</trkpt>
<trkpt lat="38.25146" lon="-120.38683">
<ele>1296.3</ele>
<time>2026-04-22T09:13:20-07:00</time>
</trkpt>
<trkpt lat="38.25133" lon="-120.38658">
<ele>1291.2</ele>
<time>2026-04-22T09:13:21-07:00</time>
</trkpt>
<trkpt lat="38.25119" lon="-120.38645">
<ele>1288.9</ele>
<time>2026-04-22T09:13:22-07:00</time>
</trkpt>
<trkpt lat="38.25114" lon="-120.38635">
<ele>1285.7</ele>
<time>2026-04-22T09:13:23-07:00</time>
</trkpt>
<trkpt lat="38.25118" lon="-120.38628">
<ele>1282.4</ele>
<time>2026-04-22T09:13:24-07:00</time>
</trkpt>
<trkpt lat="38.25124" lon="-120.38628">
<ele>1280.6</ele>
<time>2026-04-22T09:13:25-07:00</time>
</trkpt>
<trkpt lat="38.2513" lon="-120.38622">
<ele>1278.7</ele>
<time>2026-04-22T09:13:26-07:00</time>
</trkpt>
<trkpt lat="38.25148" lon="-120.38626">
<ele>1276.5</ele>
<time>2026-04-22T09:13:27-07:00</time>
</trkpt>
<trkpt lat="38.25157" lon="-120.38626">
<ele>1274</ele>
<time>2026-04-22T09:13:28-07:00</time>
</trkpt>
<trkpt lat="38.25152" lon="-120.38616">
<ele>1270.7</ele>
<time>2026-04-22T09:13:29-07:00</time>
</trkpt>
<trkpt lat="38.25133" lon="-120.38598">
<ele>1269.7</ele>
<time>2026-04-22T09:13:30-07:00</time>
</trkpt>
<trkpt lat="38.25132" lon="-120.38588">
<ele>1266.6</ele>
<time>2026-04-22T09:13:31-07:00</time>
</trkpt>
<trkpt lat="38.25141" lon="-120.38584">
<ele>1264.2</ele>
<time>2026-04-22T09:13:32-07:00</time>
</trkpt>
<trkpt lat="38.25146" lon="-120.38584">
<ele>1264.2</ele>
<time>2026-04-22T09:13:33-07:00</time>
</trkpt>
<trkpt lat="38.25157" lon="-120.38594">
<ele>1264.5</ele>
<time>2026-04-22T09:13:34-07:00</time>
</trkpt>
<trkpt lat="38.25182" lon="-120.38603">
<ele>1261</ele>
<time>2026-04-22T09:13:35-07:00</time>
</trkpt>
<trkpt lat="38.25224" lon="-120.38603">
<ele>1252.4</ele>
<time>2026-04-22T09:13:36-07:00</time>
</trkpt>
<trkpt lat="38.2524" lon="-120.38609">
<ele>1250.2</ele>
<time>2026-04-22T09:13:37-07:00</time>
</trkpt>
<trkpt lat="38.25233" lon="-120.38584">
<ele>1244.1</ele>
<time>2026-04-22T09:13:38-07:00</time>
</trkpt>
<trkpt lat="38.25212" lon="-120.38567">
<ele>1241.7</ele>
<time>2026-04-22T09:13:39-07:00</time>
</trkpt>
<trkpt lat="38.25193" lon="-120.3854">
<ele>1234.6</ele>
<time>2026-04-22T09:13:40-07:00</time>
</trkpt>
<trkpt lat="38.25179" lon="-120.38512">
<ele>1229.1</ele>
<time>2026-04-22T09:13:41-07:00</time>
</trkpt>
<trkpt lat="38.25156" lon="-120.38487">
<ele>1228.3</ele>
<time>2026-04-22T09:13:42-07:00</time>
</trkpt>
<trkpt lat="38.25143" lon="-120.38466">
<ele>1222.9</ele>
<time>2026-04-22T09:13:43-07:00</time>
</trkpt>
<trkpt lat="38.25126" lon="-120.38462">
<ele>1219.4</ele>
<time>2026-04-22T09:13:44-07:00</time>
</trkpt>
<trkpt lat="38.25117" lon="-120.38453">
<ele>1215.2</ele>
<time>2026-04-22T09:13:45-07:00</time>
</trkpt>
<trkpt lat="38.25121" lon="-120.38447">
<ele>1216</ele>
<time>2026-04-22T09:13:46-07:00</time>
</trkpt>
<trkpt lat="38.2513" lon="-120.38446">
<ele>1216.1</ele>
<time>2026-04-22T09:13:47-07:00</time>
</trkpt>
<trkpt lat="38.2515" lon="-120.38434">
<ele>1208.2</ele>
<time>2026-04-22T09:13:48-07:00</time>
</trkpt>
<trkpt lat="38.25162" lon="-120.38435">
<ele>1207.1</ele>
<time>2026-04-22T09:13:49-07:00</time>
</trkpt>
<trkpt lat="38.25177" lon="-120.38444">
<ele>1206.4</ele>
<time>2026-04-22T09:13:50-07:00</time>
</trkpt>
<trkpt lat="38.25174" lon="-120.38431">
<ele>1205.5</ele>
<time>2026-04-22T09:13:51-07:00</time>
</trkpt>
<trkpt lat="38.25175" lon="-120.38422">
<ele>1203</ele>
<time>2026-04-22T09:13:52-07:00</time>
</trkpt>
<trkpt lat="38.25186" lon="-120.3843">
<ele>1201.7</ele>
<time>2026-04-22T09:13:53-07:00</time>
</trkpt>
<trkpt lat="38.25193" lon="-120.38431">
<ele>1201.7</ele>
<time>2026-04-22T09:13:54-07:00</time>
</trkpt>
<trkpt lat="38.252" lon="-120.38424">
<ele>1197.6</ele>
<time>2026-04-22T09:13:55-07:00</time>
</trkpt>
<trkpt lat="38.25195" lon="-120.38409">
<ele>1196</ele>
<time>2026-04-22T09:13:56-07:00</time>
</trkpt>
<trkpt lat="38.25195" lon="-120.38392">
<ele>1192.9</ele>
<time>2026-04-22T09:13:57-07:00</time>
</trkpt>
<trkpt lat="38.25212" lon="-120.38382">
<ele>1190.2</ele>
<time>2026-04-22T09:13:58-07:00</time>
</trkpt>
<trkpt lat="38.25216" lon="-120.38371">
<ele>1187.9</ele>
<time>2026-04-22T09:13:59-07:00</time>
</trkpt>
<trkpt lat="38.25207" lon="-120.38364">
<ele>1187.3</ele>
<time>2026-04-22T09:14:00-07:00</time>
</trkpt>
<trkpt lat="38.25165" lon="-120.38364">
<ele>1186.4</ele>
<time>2026-04-22T09:14:01-07:00</time>
</trkpt>
<trkpt lat="38.2513" lon="-120.38359">
<ele>1182.5</ele>
<time>2026-04-22T09:14:02-07:00</time>
</trkpt>
<trkpt lat="38.25104" lon="-120.38347">
<ele>1178.2</ele>
<time>2026-04-22T09:14:03-07:00</time>
</trkpt>
<trkpt lat="38.25083" lon="-120.38348">
<ele>1179.3</ele>
<time>2026-04-22T09:14:04-07:00</time>
</trkpt>
<trkpt lat="38.25076" lon="-120.38342">
<ele>1178.9</ele>
<time>2026-04-22T09:14:05-07:00</time>
</trkpt>
<trkpt lat="38.25078" lon="-120.38333">
<ele>1178.7</ele>
<time>2026-04-22T09:14:06-07:00</time>
</trkpt>
<trkpt lat="38.25089" lon="-120.38325">
<ele>1176.9</ele>
<time>2026-04-22T09:14:07-07:00</time>
</trkpt>
<trkpt lat="38.25116" lon="-120.38315">
<ele>1173.3</ele>
<time>2026-04-22T09:14:08-07:00</time>
</trkpt>
<trkpt lat="38.25132" lon="-120.38303">
<ele>1178.7</ele>
<time>2026-04-22T09:14:09-07:00</time>
</trkpt>
<trkpt lat="38.25215" lon="-120.38259">
<ele>1173.9</ele>
<time>2026-04-22T09:14:10-07:00</time>
</trkpt>
<trkpt lat="38.25351" lon="-120.38219">
<ele>1192.5</ele>
<time>2026-04-22T09:14:11-07:00</time>
</trkpt>
<trkpt lat="38.25367" lon="-120.38216">
<ele>1190.6</ele>
<time>2026-04-22T09:14:12-07:00</time>
</trkpt>
<trkpt lat="38.25378" lon="-120.38209">
<ele>1191.5</ele>
<time>2026-04-22T09:14:13-07:00</time>
</trkpt>
<trkpt lat="38.25381" lon="-120.38196">
<ele>1189.2</ele>
<time>2026-04-22T09:14:14-07:00</time>
</trkpt>
<trkpt lat="38.25374" lon="-120.38171">
<ele>1195.5</ele>
<time>2026-04-22T09:14:15-07:00</time>
</trkpt>
<trkpt lat="38.25374" lon="-120.3815">
<ele>1195.8</ele>
<time>2026-04-22T09:14:16-07:00</time>
</trkpt>
<trkpt lat="38.25368" lon="-120.38131">
<ele>1203.1</ele>
<time>2026-04-22T09:14:17-07:00</time>
</trkpt>
<trkpt lat="38.2536" lon="-120.38071">
<ele>1214</ele>
<time>2026-04-22T09:14:18-07:00</time>
</trkpt>
<trkpt lat="38.25347" lon="-120.38035">
<ele>1216.7</ele>
<time>2026-04-22T09:14:19-07:00</time>
</trkpt>
<trkpt lat="38.25358" lon="-120.38023">
<ele>1220.3</ele>
<time>2026-04-22T09:14:20-07:00</time>
</trkpt>
<trkpt lat="38.25394" lon="-120.37998">
<ele>1226.3</ele>
<time>2026-04-22T09:14:21-07:00</time>
</trkpt>
<trkpt lat="38.25406" lon="-120.37996">
<ele>1225.8</ele>
<time>2026-04-22T09:14:22-07:00</time>
</trkpt>
<trkpt lat="38.25448" lon="-120.37997">
<ele>1228.7</ele>
<time>2026-04-22T09:14:23-07:00</time>
</trkpt>
<trkpt lat="38.25456" lon="-120.37992">
<ele>1227.7</ele>
<time>2026-04-22T09:14:24-07:00</time>
</trkpt>
<trkpt lat="38.25477" lon="-120.37972">
<ele>1231.3</ele>
<time>2026-04-22T09:14:25-07:00</time>
</trkpt>
<trkpt lat="38.25499" lon="-120.37943">
<ele>1231.3</ele>
<time>2026-04-22T09:14:26-07:00</time>
</trkpt>
<trkpt lat="38.25504" lon="-120.37927">
<ele>1228</ele>
<time>2026-04-22T09:14:27-07:00</time>
</trkpt>
<trkpt lat="38.25504" lon="-120.37898">
<ele>1226.7</ele>
<time>2026-04-22T09:14:28-07:00</time>
</trkpt>
<trkpt lat="38.25502" lon="-120.37878">
<ele>1223</ele>
<time>2026-04-22T09:14:29-07:00</time>
</trkpt>
<trkpt lat="38.25492" lon="-120.37861">
<ele>1221.2</ele>
<time>2026-04-22T09:14:30-07:00</time>
</trkpt>
<trkpt lat="38.25459" lon="-120.37828">
<ele>1225.7</ele>
<time>2026-04-22T09:14:31-07:00</time>
</trkpt>
<trkpt lat="38.25451" lon="-120.37813">
<ele>1224.2</ele>
<time>2026-04-22T09:14:32-07:00</time>
</trkpt>
<trkpt lat="38.25444" lon="-120.37794">
<ele>1224.9</ele>
<time>2026-04-22T09:14:33-07:00</time>
</trkpt>
<trkpt lat="38.25448" lon="-120.37792">
<ele>1226.7</ele>
<time>2026-04-22T09:14:34-07:00</time>
</trkpt>
<trkpt lat="38.25456" lon="-120.37793">
<ele>1227.3</ele>
<time>2026-04-22T09:14:35-07:00</time>
</trkpt>
<trkpt lat="38.25466" lon="-120.37796">
<ele>1227.7</ele>
<time>2026-04-22T09:14:36-07:00</time>
</trkpt>
<trkpt lat="38.25472" lon="-120.378">
<ele>1225.9</ele>
<time>2026-04-22T09:14:37-07:00</time>
</trkpt>
<trkpt lat="38.25482" lon="-120.37798">
<ele>1226.1</ele>
<time>2026-04-22T09:14:38-07:00</time>
</trkpt>
<trkpt lat="38.25495" lon="-120.37791">
<ele>1228.2</ele>
<time>2026-04-22T09:14:39-07:00</time>
</trkpt>
<trkpt lat="38.25507" lon="-120.37782">
<ele>1229.3</ele>
<time>2026-04-22T09:14:40-07:00</time>
</trkpt>
<trkpt lat="38.25513" lon="-120.3777">
<ele>1228.8</ele>
<time>2026-04-22T09:14:41-07:00</time>
</trkpt>
<trkpt lat="38.2551" lon="-120.37736">
<ele>1231.3</ele>
<time>2026-04-22T09:14:42-07:00</time>
</trkpt>
<trkpt lat="38.25495" lon="-120.37691">
<ele>1237.4</ele>
<time>2026-04-22T09:14:43-07:00</time>
</trkpt>
<trkpt lat="38.2551" lon="-120.37659">
<ele>1236</ele>
<time>2026-04-22T09:14:44-07:00</time>
</trkpt>
<trkpt lat="38.25509" lon="-120.37617">
<ele>1237.7</ele>
<time>2026-04-22T09:14:45-07:00</time>
</trkpt>
<trkpt lat="38.25535" lon="-120.37581">
<ele>1234.4</ele>
<time>2026-04-22T09:14:46-07:00</time>
</trkpt>
<trkpt lat="38.25548" lon="-120.37572">
<ele>1232.9</ele>
<time>2026-04-22T09:14:47-07:00</time>
</trkpt>
<trkpt lat="38.25555" lon="-120.37564">
<ele>1232.3</ele>
<time>2026-04-22T09:14:48-07:00</time>
</trkpt>
<trkpt lat="38.2556" lon="-120.37549">
<ele>1230.7</ele>
<time>2026-04-22T09:14:49-07:00</time>
</trkpt>
<trkpt lat="38.25636" lon="-120.37463">
<ele>1222.4</ele>
<time>2026-04-22T09:14:50-07:00</time>
</trkpt>
<trkpt lat="38.25638" lon="-120.37445">
<ele>1220.7</ele>
<time>2026-04-22T09:14:51-07:00</time>
</trkpt>
<trkpt lat="38.25633" lon="-120.37421">
<ele>1217.1</ele>
<time>2026-04-22T09:14:52-07:00</time>
</trkpt>
<trkpt lat="38.25624" lon="-120.3741">
<ele>1215.6</ele>
<time>2026-04-22T09:14:53-07:00</time>
</trkpt>
<trkpt lat="38.25606" lon="-120.37398">
<ele>1212.6</ele>
<time>2026-04-22T09:14:54-07:00</time>
</trkpt>
<trkpt lat="38.25589" lon="-120.37391">
<ele>1211.1</ele>
<time>2026-04-22T09:14:55-07:00</time>
</trkpt>
<trkpt lat="38.25562" lon="-120.37391">
<ele>1206.5</ele>
<time>2026-04-22T09:14:56-07:00</time>
</trkpt>
<trkpt lat="38.25556" lon="-120.37383">
<ele>1204.2</ele>
<time>2026-04-22T09:14:57-07:00</time>
</trkpt>
<trkpt lat="38.25565" lon="-120.37327">
<ele>1201.1</ele>
<time>2026-04-22T09:14:58-07:00</time>
</trkpt>
<trkpt lat="38.25569" lon="-120.37314">
<ele>1201.1</ele>
<time>2026-04-22T09:14:59-07:00</time>
</trkpt>
<trkpt lat="38.2558" lon="-120.37311">
<ele>1202.2</ele>
<time>2026-04-22T09:15:00-07:00</time>
</trkpt>
<trkpt lat="38.25592" lon="-120.37311">
<ele>1201.9</ele>
<time>2026-04-22T09:15:01-07:00</time>
</trkpt>
<trkpt lat="38.2566" lon="-120.37301">
<ele>1198.9</ele>
<time>2026-04-22T09:15:02-07:00</time>
</trkpt>
<trkpt lat="38.25665" lon="-120.37294">
<ele>1200.4</ele>
<time>2026-04-22T09:15:03-07:00</time>
</trkpt>
<trkpt lat="38.25669" lon="-120.37283">
<ele>1199.8</ele>
<time>2026-04-22T09:15:04-07:00</time>
</trkpt>
<trkpt lat="38.25665" lon="-120.37276">
<ele>1201.4</ele>
<time>2026-04-22T09:15:05-07:00</time>
</trkpt>
<trkpt lat="38.25645" lon="-120.37256">
<ele>1204.2</ele>
<time>2026-04-22T09:15:06-07:00</time>
</trkpt>
<trkpt lat="38.2558" lon="-120.37211">
<ele>1212</ele>
<time>2026-04-22T09:15:07-07:00</time>
</trkpt>
<trkpt lat="38.25565" lon="-120.3719">
<ele>1211.8</ele>
<time>2026-04-22T09:15:08-07:00</time>
</trkpt>
<trkpt lat="38.25527" lon="-120.3713">
<ele>1215.7</ele>
<time>2026-04-22T09:15:09-07:00</time>
</trkpt>
<trkpt lat="38.25515" lon="-120.37108">
<ele>1210.9</ele>
<time>2026-04-22T09:15:10-07:00</time>
</trkpt>
<trkpt lat="38.25501" lon="-120.3709">
<ele>1207.9</ele>
<time>2026-04-22T09:15:11-07:00</time>
</trkpt>
<trkpt lat="38.25488" lon="-120.37081">
<ele>1206</ele>
<time>2026-04-22T09:15:12-07:00</time>
</trkpt>
<trkpt lat="38.25474" lon="-120.37074">
<ele>1204.1</ele>
<time>2026-04-22T09:15:13-07:00</time>
</trkpt>
<trkpt lat="38.25457" lon="-120.37041">
<ele>1203.6</ele>
<time>2026-04-22T09:15:14-07:00</time>
</trkpt>
<trkpt lat="38.25461" lon="-120.3702">
<ele>1202.2</ele>
<time>2026-04-22T09:15:15-07:00</time>
</trkpt>
<trkpt lat="38.25468" lon="-120.3701">
<ele>1199.7</ele>
<time>2026-04-22T09:15:16-07:00</time>
</trkpt>
<trkpt lat="38.25475" lon="-120.37005">
<ele>1198.3</ele>
<time>2026-04-22T09:15:17-07:00</time>
</trkpt>
<trkpt lat="38.25489" lon="-120.37005">
<ele>1197.6</ele>
<time>2026-04-22T09:15:18-07:00</time>
</trkpt>
<trkpt lat="38.25504" lon="-120.37011">
<ele>1195</ele>
<time>2026-04-22T09:15:19-07:00</time>
</trkpt>
<trkpt lat="38.25517" lon="-120.37012">
<ele>1194.5</ele>
<time>2026-04-22T09:15:20-07:00</time>
</trkpt>
<trkpt lat="38.25531" lon="-120.37011">
<ele>1192.3</ele>
<time>2026-04-22T09:15:21-07:00</time>
</trkpt>
<trkpt lat="38.25565" lon="-120.36996">
<ele>1188.9</ele>
<time>2026-04-22T09:15:22-07:00</time>
</trkpt>
<trkpt lat="38.25573" lon="-120.36995">
<ele>1188.9</ele>
<time>2026-04-22T09:15:23-07:00</time>
</trkpt>
<trkpt lat="38.25586" lon="-120.36998">
<ele>1189.1</ele>
<time>2026-04-22T09:15:24-07:00</time>
</trkpt>
<trkpt lat="38.25612" lon="-120.37019">
<ele>1188.6</ele>
<time>2026-04-22T09:15:25-07:00</time>
</trkpt>
<trkpt lat="38.25645" lon="-120.37029">
<ele>1189.4</ele>
<time>2026-04-22T09:15:26-07:00</time>
</trkpt>
<trkpt lat="38.25669" lon="-120.37042">
<ele>1188</ele>
<time>2026-04-22T09:15:27-07:00</time>
</trkpt>
<trkpt lat="38.25695" lon="-120.3706">
<ele>1184.3</ele>
<time>2026-04-22T09:15:28-07:00</time>
</trkpt>
<trkpt lat="38.25715" lon="-120.37064">
<ele>1183.3</ele>
<time>2026-04-22T09:15:29-07:00</time>
</trkpt>
<trkpt lat="38.25735" lon="-120.3706">
<ele>1181.7</ele>
<time>2026-04-22T09:15:30-07:00</time>
</trkpt>
<trkpt lat="38.25757" lon="-120.37048">
<ele>1180.1</ele>
<time>2026-04-22T09:15:31-07:00</time>
</trkpt>
<trkpt lat="38.25786" lon="-120.37025">
<ele>1176.7</ele>
<time>2026-04-22T09:15:32-07:00</time>
</trkpt>
<trkpt lat="38.258" lon="-120.36997">
<ele>1173.5</ele>
<time>2026-04-22T09:15:33-07:00</time>
</trkpt>
<trkpt lat="38.25806" lon="-120.36972">
<ele>1168.9</ele>
<time>2026-04-22T09:15:34-07:00</time>
</trkpt>
<trkpt lat="38.25808" lon="-120.36931">
<ele>1166.7</ele>
<time>2026-04-22T09:15:35-07:00</time>
</trkpt>
<trkpt lat="38.25804" lon="-120.36899">
<ele>1168.9</ele>
<time>2026-04-22T09:15:36-07:00</time>
</trkpt>
<trkpt lat="38.25806" lon="-120.36887">
<ele>1162.9</ele>
<time>2026-04-22T09:15:37-07:00</time>
</trkpt>
<trkpt lat="38.2581" lon="-120.36877">
<ele>1164.7</ele>
<time>2026-04-22T09:15:38-07:00</time>
</trkpt>
<trkpt lat="38.25817" lon="-120.36876">
<ele>1167.2</ele>
<time>2026-04-22T09:15:39-07:00</time>
</trkpt>
<trkpt lat="38.25838" lon="-120.36881">
<ele>1166.9</ele>
<time>2026-04-22T09:15:40-07:00</time>
</trkpt>
<trkpt lat="38.25845" lon="-120.36876">
<ele>1169</ele>
<time>2026-04-22T09:15:41-07:00</time>
</trkpt>
<trkpt lat="38.25848" lon="-120.36866">
<ele>1171</ele>
<time>2026-04-22T09:15:42-07:00</time>
</trkpt>
<trkpt lat="38.2584" lon="-120.36863">
<ele>1172.3</ele>
<time>2026-04-22T09:15:43-07:00</time>
</trkpt>
<trkpt lat="38.25833" lon="-120.36854">
<ele>1174.6</ele>
<time>2026-04-22T09:15:44-07:00</time>
</trkpt>
<trkpt lat="38.25831" lon="-120.36844">
<ele>1176.9</ele>
<time>2026-04-22T09:15:45-07:00</time>
</trkpt>
<trkpt lat="38.2584" lon="-120.3684">
<ele>1179.1</ele>
<time>2026-04-22T09:15:46-07:00</time>
</trkpt>
<trkpt lat="38.25845" lon="-120.36828">
<ele>1178.3</ele>
<time>2026-04-22T09:15:47-07:00</time>
</trkpt>
<trkpt lat="38.25842" lon="-120.36819">
<ele>1183.2</ele>
<time>2026-04-22T09:15:48-07:00</time>
</trkpt>
<trkpt lat="38.25836" lon="-120.36815">
<ele>1183.2</ele>
<time>2026-04-22T09:15:49-07:00</time>
</trkpt>
<trkpt lat="38.25831" lon="-120.36808">
<ele>1185.4</ele>
<time>2026-04-22T09:15:50-07:00</time>
</trkpt>
<trkpt lat="38.2583" lon="-120.36796">
<ele>1189</ele>
<time>2026-04-22T09:15:51-07:00</time>
</trkpt>
<trkpt lat="38.25835" lon="-120.36784">
<ele>1189.6</ele>
<time>2026-04-22T09:15:52-07:00</time>
</trkpt>
<trkpt lat="38.25835" lon="-120.36776">
<ele>1190.6</ele>
<time>2026-04-22T09:15:53-07:00</time>
</trkpt>
<trkpt lat="38.2582" lon="-120.36744">
<ele>1196.3</ele>
<time>2026-04-22T09:15:54-07:00</time>
</trkpt>
<trkpt lat="38.25819" lon="-120.36705">
<ele>1200.7</ele>
<time>2026-04-22T09:15:55-07:00</time>
</trkpt>
<trkpt lat="38.25817" lon="-120.36692">
<ele>1202.6</ele>
<time>2026-04-22T09:15:56-07:00</time>
</trkpt>
<trkpt lat="38.25811" lon="-120.36677">
<ele>1202.9</ele>
<time>2026-04-22T09:15:57-07:00</time>
</trkpt>
<trkpt lat="38.25803" lon="-120.36664">
<ele>1202.5</ele>
<time>2026-04-22T09:15:58-07:00</time>
</trkpt>
<trkpt lat="38.25795" lon="-120.36639">
<ele>1201.3</ele>
<time>2026-04-22T09:15:59-07:00</time>
</trkpt>
<trkpt lat="38.25792" lon="-120.36612">
<ele>1200.9</ele>
<time>2026-04-22T09:16:00-07:00</time>
</trkpt>
<trkpt lat="38.25794" lon="-120.36593">
<ele>1199.9</ele>
<time>2026-04-22T09:16:01-07:00</time>
</trkpt>
<trkpt lat="38.25789" lon="-120.36567">
<ele>1198.3</ele>
<time>2026-04-22T09:16:02-07:00</time>
</trkpt>
<trkpt lat="38.25793" lon="-120.3654">
<ele>1195.6</ele>
<time>2026-04-22T09:16:03-07:00</time>
</trkpt>
<trkpt lat="38.25793" lon="-120.36512">
<ele>1194.1</ele>
<time>2026-04-22T09:16:04-07:00</time>
</trkpt>
<trkpt lat="38.25795" lon="-120.365">
<ele>1193</ele>
<time>2026-04-22T09:16:05-07:00</time>
</trkpt>
<trkpt lat="38.25808" lon="-120.36475">
<ele>1194</ele>
<time>2026-04-22T09:16:06-07:00</time>
</trkpt>
<trkpt lat="38.25841" lon="-120.36438">
<ele>1198.9</ele>
<time>2026-04-22T09:16:07-07:00</time>
</trkpt>
<trkpt lat="38.25853" lon="-120.36427">
<ele>1200.5</ele>
<time>2026-04-22T09:16:08-07:00</time>
</trkpt>
<trkpt lat="38.2586" lon="-120.36414">
<ele>1204.2</ele>
<time>2026-04-22T09:16:09-07:00</time>
</trkpt>
<trkpt lat="38.25864" lon="-120.36393">
<ele>1205.8</ele>
<time>2026-04-22T09:16:10-07:00</time>
</trkpt>
<trkpt lat="38.25855" lon="-120.3638">
<ele>1207.4</ele>
<time>2026-04-22T09:16:11-07:00</time>
</trkpt>
<trkpt lat="38.25837" lon="-120.36375">
<ele>1210.9</ele>
<time>2026-04-22T09:16:12-07:00</time>
</trkpt>
<trkpt lat="38.25815" lon="-120.36355">
<ele>1215.5</ele>
<time>2026-04-22T09:16:13-07:00</time>
</trkpt>
<trkpt lat="38.25813" lon="-120.36345">
<ele>1218.1</ele>
<time>2026-04-22T09:16:14-07:00</time>
</trkpt>
<trkpt lat="38.25815" lon="-120.36331">
<ele>1219.6</ele>
<time>2026-04-22T09:16:15-07:00</time>
</trkpt>
<trkpt lat="38.25829" lon="-120.36312">
<ele>1220.6</ele>
<time>2026-04-22T09:16:16-07:00</time>
</trkpt>
<trkpt lat="38.25857" lon="-120.36262">
<ele>1220.9</ele>
<time>2026-04-22T09:16:17-07:00</time>
</trkpt>
<trkpt lat="38.2586" lon="-120.36214">
<ele>1225</ele>
<time>2026-04-22T09:16:18-07:00</time>
</trkpt>
<trkpt lat="38.25857" lon="-120.36192">
<ele>1225.1</ele>
<time>2026-04-22T09:16:19-07:00</time>
</trkpt>
<trkpt lat="38.25849" lon="-120.36169">
<ele>1227</ele>
<time>2026-04-22T09:16:20-07:00</time>
</trkpt>
<trkpt lat="38.2585" lon="-120.36145">
<ele>1229.2</ele>
<time>2026-04-22T09:16:21-07:00</time>
</trkpt>
<trkpt lat="38.25858" lon="-120.36118">
<ele>1231.5</ele>
<time>2026-04-22T09:16:22-07:00</time>
</trkpt>
<trkpt lat="38.25871" lon="-120.3609">
<ele>1234</ele>
<time>2026-04-22T09:16:23-07:00</time>
</trkpt>
<trkpt lat="38.25889" lon="-120.36071">
<ele>1233.8</ele>
<time>2026-04-22T09:16:24-07:00</time>
</trkpt>
<trkpt lat="38.25902" lon="-120.36053">
<ele>1233.5</ele>
<time>2026-04-22T09:16:25-07:00</time>
</trkpt>
<trkpt lat="38.25912" lon="-120.36027">
<ele>1232.2</ele>
<time>2026-04-22T09:16:26-07:00</time>
</trkpt>
<trkpt lat="38.2592" lon="-120.35987">
<ele>1226.3</ele>
<time>2026-04-22T09:16:27-07:00</time>
</trkpt>
<trkpt lat="38.25912" lon="-120.3595">
<ele>1223.7</ele>
<time>2026-04-22T09:16:28-07:00</time>
</trkpt>
<trkpt lat="38.25913" lon="-120.3594">
<ele>1222.6</ele>
<time>2026-04-22T09:16:29-07:00</time>
</trkpt>
<trkpt lat="38.2592" lon="-120.3593">
<ele>1218.2</ele>
<time>2026-04-22T09:16:30-07:00</time>
</trkpt>
<trkpt lat="38.25924" lon="-120.35919">
<ele>1216.9</ele>
<time>2026-04-22T09:16:31-07:00</time>
</trkpt>
<trkpt lat="38.25918" lon="-120.35885">
<ele>1209.2</ele>
<time>2026-04-22T09:16:32-07:00</time>
</trkpt>
<trkpt lat="38.25924" lon="-120.35864">
<ele>1212.5</ele>
<time>2026-04-22T09:16:33-07:00</time>
</trkpt>
<trkpt lat="38.25936" lon="-120.35852">
<ele>1209.3</ele>
<time>2026-04-22T09:16:34-07:00</time>
</trkpt>
<trkpt lat="38.2597" lon="-120.35805">
<ele>1210.3</ele>
<time>2026-04-22T09:16:35-07:00</time>
</trkpt>
<trkpt lat="38.25981" lon="-120.35797">
<ele>1209.5</ele>
<time>2026-04-22T09:16:36-07:00</time>
</trkpt>
<trkpt lat="38.25983" lon="-120.35782">
<ele>1208.9</ele>
<time>2026-04-22T09:16:37-07:00</time>
</trkpt>
<trkpt lat="38.25982" lon="-120.3577">
<ele>1208.2</ele>
<time>2026-04-22T09:16:38-07:00</time>
</trkpt>
<trkpt lat="38.25986" lon="-120.35756">
<ele>1205.8</ele>
<time>2026-04-22T09:16:39-07:00</time>
</trkpt>
<trkpt lat="38.25987" lon="-120.35737">
<ele>1202.4</ele>
<time>2026-04-22T09:16:40-07:00</time>
</trkpt>
<trkpt lat="38.25992" lon="-120.35722">
<ele>1197.3</ele>
<time>2026-04-22T09:16:41-07:00</time>
</trkpt>
<trkpt lat="38.25992" lon="-120.35706">
<ele>1196</ele>
<time>2026-04-22T09:16:42-07:00</time>
</trkpt>
<trkpt lat="38.26001" lon="-120.357">
<ele>1192.6</ele>
<time>2026-04-22T09:16:43-07:00</time>
</trkpt>
<trkpt lat="38.26007" lon="-120.35707">
<ele>1193.8</ele>
<time>2026-04-22T09:16:44-07:00</time>
</trkpt>
<trkpt lat="38.26014" lon="-120.35706">
<ele>1191.7</ele>
<time>2026-04-22T09:16:45-07:00</time>
</trkpt>
<trkpt lat="38.2603" lon="-120.35686">
<ele>1187.9</ele>
<time>2026-04-22T09:16:46-07:00</time>
</trkpt>
<trkpt lat="38.26048" lon="-120.35671">
<ele>1186.5</ele>
<time>2026-04-22T09:16:47-07:00</time>
</trkpt>
<trkpt lat="38.26075" lon="-120.35666">
<ele>1183.6</ele>
<time>2026-04-22T09:16:48-07:00</time>
</trkpt>
<trkpt lat="38.2608" lon="-120.35662">
<ele>1183.6</ele>
<time>2026-04-22T09:16:49-07:00</time>
</trkpt>
<trkpt lat="38.26086" lon="-120.35647">
<ele>1183.7</ele>
<time>2026-04-22T09:16:50-07:00</time>
</trkpt>
<trkpt lat="38.26094" lon="-120.35636">
<ele>1183.5</ele>
<time>2026-04-22T09:16:51-07:00</time>
</trkpt>
<trkpt lat="38.26115" lon="-120.35622">
<ele>1183.5</ele>
<time>2026-04-22T09:16:52-07:00</time>
</trkpt>
<trkpt lat="38.26122" lon="-120.35604">
<ele>1186.1</ele>
<time>2026-04-22T09:16:53-07:00</time>
</trkpt>
<trkpt lat="38.26124" lon="-120.35591">
<ele>1188.7</ele>
<time>2026-04-22T09:16:54-07:00</time>
</trkpt>
<trkpt lat="38.2614" lon="-120.35566">
<ele>1189.5</ele>
<time>2026-04-22T09:16:55-07:00</time>
</trkpt>
<trkpt lat="38.26142" lon="-120.35553">
<ele>1189.7</ele>
<time>2026-04-22T09:16:56-07:00</time>
</trkpt>
<trkpt lat="38.26141" lon="-120.35522">
<ele>1188.7</ele>
<time>2026-04-22T09:16:57-07:00</time>
</trkpt>
<trkpt lat="38.26131" lon="-120.35477">
<ele>1192</ele>
<time>2026-04-22T09:16:58-07:00</time>
</trkpt>
<trkpt lat="38.26131" lon="-120.35466">
<ele>1192.4</ele>
<time>2026-04-22T09:16:59-07:00</time>
</trkpt>
<trkpt lat="38.26138" lon="-120.35449">
<ele>1193</ele>
<time>2026-04-22T09:17:00-07:00</time>
</trkpt>
<trkpt lat="38.26159" lon="-120.3543">
<ele>1189.4</ele>
<time>2026-04-22T09:17:01-07:00</time>
</trkpt>
<trkpt lat="38.26174" lon="-120.35419">
<ele>1187.5</ele>
<time>2026-04-22T09:17:02-07:00</time>
</trkpt>
<trkpt lat="38.26197" lon="-120.35415">
<ele>1186.4</ele>
<time>2026-04-22T09:17:03-07:00</time>
</trkpt>
<trkpt lat="38.26211" lon="-120.35424">
<ele>1184.8</ele>
<time>2026-04-22T09:17:04-07:00</time>
</trkpt>
<trkpt lat="38.26224" lon="-120.35422">
<ele>1184.9</ele>
<time>2026-04-22T09:17:05-07:00</time>
</trkpt>
<trkpt lat="38.26259" lon="-120.35397">
<ele>1185.6</ele>
<time>2026-04-22T09:17:06-07:00</time>
</trkpt>
<trkpt lat="38.26271" lon="-120.35384">
<ele>1183.6</ele>
<time>2026-04-22T09:17:07-07:00</time>
</trkpt>
<trkpt lat="38.26294" lon="-120.35334">
<ele>1182.3</ele>
<time>2026-04-22T09:17:08-07:00</time>
</trkpt>
<trkpt lat="38.26319" lon="-120.35309">
<ele>1177.6</ele>
<time>2026-04-22T09:17:09-07:00</time>
</trkpt>
<trkpt lat="38.26336" lon="-120.35308">
<ele>1177.7</ele>
<time>2026-04-22T09:17:10-07:00</time>
</trkpt>
<trkpt lat="38.26365" lon="-120.35322">
<ele>1180.6</ele>
<time>2026-04-22T09:17:11-07:00</time>
</trkpt>
<trkpt lat="38.264" lon="-120.35334">
<ele>1181.4</ele>
<time>2026-04-22T09:17:12-07:00</time>
</trkpt>
<trkpt lat="38.26477" lon="-120.35347">
<ele>1181.6</ele>
<time>2026-04-22T09:17:13-07:00</time>
</trkpt>
<trkpt lat="38.26491" lon="-120.35344">
<ele>1182.2</ele>
<time>2026-04-22T09:17:14-07:00</time>
</trkpt>
<trkpt lat="38.26509" lon="-120.3533">
<ele>1185.4</ele>
<time>2026-04-22T09:17:15-07:00</time>
</trkpt>
<trkpt lat="38.26572" lon="-120.35224">
<ele>1186.4</ele>
<time>2026-04-22T09:17:16-07:00</time>
</trkpt>
<trkpt lat="38.26577" lon="-120.35184">
<ele>1188.3</ele>
<time>2026-04-22T09:17:17-07:00</time>
</trkpt>
<trkpt lat="38.26609" lon="-120.35066">
<ele>1188.9</ele>
<time>2026-04-22T09:17:18-07:00</time>
</trkpt>
<trkpt lat="38.26607" lon="-120.35046">
<ele>1189</ele>
<time>2026-04-22T09:17:19-07:00</time>
</trkpt>
<trkpt lat="38.266" lon="-120.35022">
<ele>1189.9</ele>
<time>2026-04-22T09:17:20-07:00</time>
</trkpt>
<trkpt lat="38.26589" lon="-120.34996">
<ele>1190.8</ele>
<time>2026-04-22T09:17:21-07:00</time>
</trkpt>
<trkpt lat="38.26578" lon="-120.34947">
<ele>1190.8</ele>
<time>2026-04-22T09:17:22-07:00</time>
</trkpt>
<trkpt lat="38.26579" lon="-120.3492">
<ele>1192.1</ele>
<time>2026-04-22T09:17:23-07:00</time>
</trkpt>
<trkpt lat="38.26583" lon="-120.34904">
<ele>1193.7</ele>
<time>2026-04-22T09:17:24-07:00</time>
</trkpt>
<trkpt lat="38.26609" lon="-120.34856">
<ele>1193.1</ele>
<time>2026-04-22T09:17:25-07:00</time>
</trkpt>
<trkpt lat="38.26616" lon="-120.34851">
<ele>1194.7</ele>
<time>2026-04-22T09:17:26-07:00</time>
</trkpt>
<trkpt lat="38.26644" lon="-120.34846">
<ele>1194.3</ele>
<time>2026-04-22T09:17:27-07:00</time>
</trkpt>
<trkpt lat="38.26653" lon="-120.3484">
<ele>1195.3</ele>
<time>2026-04-22T09:17:28-07:00</time>
</trkpt>
<trkpt lat="38.26659" lon="-120.34832">
<ele>1194.1</ele>
<time>2026-04-22T09:17:29-07:00</time>
</trkpt>
<trkpt lat="38.2672" lon="-120.34812">
<ele>1198.3</ele>
<time>2026-04-22T09:17:30-07:00</time>
</trkpt>
<trkpt lat="38.26739" lon="-120.34801">
<ele>1198</ele>
<time>2026-04-22T09:17:31-07:00</time>
</trkpt>
<trkpt lat="38.268" lon="-120.34754">
<ele>1203.5</ele>
<time>2026-04-22T09:17:32-07:00</time>
</trkpt>
<trkpt lat="38.26813" lon="-120.34741">
<ele>1204</ele>
<time>2026-04-22T09:17:33-07:00</time>
</trkpt>
<trkpt lat="38.26818" lon="-120.34727">
<ele>1204.7</ele>
<time>2026-04-22T09:17:34-07:00</time>
</trkpt>
<trkpt lat="38.26818" lon="-120.34712">
<ele>1204.9</ele>
<time>2026-04-22T09:17:35-07:00</time>
</trkpt>
<trkpt lat="38.26804" lon="-120.34695">
<ele>1208.7</ele>
<time>2026-04-22T09:17:36-07:00</time>
</trkpt>
<trkpt lat="38.2675" lon="-120.34663">
<ele>1209.1</ele>
<time>2026-04-22T09:17:37-07:00</time>
</trkpt>
<trkpt lat="38.26727" lon="-120.34656">
<ele>1209.7</ele>
<time>2026-04-22T09:17:38-07:00</time>
</trkpt>
<trkpt lat="38.26656" lon="-120.34601">
<ele>1210</ele>
<time>2026-04-22T09:17:39-07:00</time>
</trkpt>
<trkpt lat="38.26648" lon="-120.34586">
<ele>1210.6</ele>
<time>2026-04-22T09:17:40-07:00</time>
</trkpt>
<trkpt lat="38.26638" lon="-120.34541">
<ele>1209.3</ele>
<time>2026-04-22T09:17:41-07:00</time>
</trkpt>
<trkpt lat="38.2663" lon="-120.34519">
<ele>1206.2</ele>
<time>2026-04-22T09:17:42-07:00</time>
</trkpt>
<trkpt lat="38.26614" lon="-120.34495">
<ele>1205</ele>
<time>2026-04-22T09:17:43-07:00</time>
</trkpt>
<trkpt lat="38.26607" lon="-120.34488">
<ele>1203.4</ele>
<time>2026-04-22T09:17:44-07:00</time>
</trkpt>
<trkpt lat="38.26594" lon="-120.34485">
<ele>1203.1</ele>
<time>2026-04-22T09:17:45-07:00</time>
</trkpt>
<trkpt lat="38.26578" lon="-120.34487">
<ele>1201.1</ele>
<time>2026-04-22T09:17:46-07:00</time>
</trkpt>
<trkpt lat="38.26547" lon="-120.34499">
<ele>1199.1</ele>
<time>2026-04-22T09:17:47-07:00</time>
</trkpt>
<trkpt lat="38.26516" lon="-120.34502">
<ele>1195.9</ele>
<time>2026-04-22T09:17:48-07:00</time>
</trkpt>
<trkpt lat="38.26509" lon="-120.34498">
<ele>1194.3</ele>
<time>2026-04-22T09:17:49-07:00</time>
</trkpt>
<trkpt lat="38.26505" lon="-120.34488">
<ele>1193.6</ele>
<time>2026-04-22T09:17:50-07:00</time>
</trkpt>
<trkpt lat="38.26507" lon="-120.34472">
<ele>1192.1</ele>
<time>2026-04-22T09:17:51-07:00</time>
</trkpt>
<trkpt lat="38.26458" lon="-120.34459">
<ele>1187.6</ele>
<time>2026-04-22T09:17:52-07:00</time>
</trkpt>
<trkpt lat="38.26471" lon="-120.34446">
<ele>1188</ele>
<time>2026-04-22T09:17:53-07:00</time>
</trkpt>
<trkpt lat="38.26518" lon="-120.34378">
<ele>1185.5</ele>
<time>2026-04-22T09:17:54-07:00</time>
</trkpt>
<trkpt lat="38.26522" lon="-120.34362">
<ele>1184.7</ele>
<time>2026-04-22T09:17:55-07:00</time>
</trkpt>
<trkpt lat="38.26522" lon="-120.3434">
<ele>1183.1</ele>
<time>2026-04-22T09:17:56-07:00</time>
</trkpt>
<trkpt lat="38.2652" lon="-120.34319">
<ele>1182.7</ele>
<time>2026-04-22T09:17:57-07:00</time>
</trkpt>
<trkpt lat="38.26531" lon="-120.3428">
<ele>1181.4</ele>
<time>2026-04-22T09:17:58-07:00</time>
</trkpt>
<trkpt lat="38.26549" lon="-120.34272">
<ele>1181.3</ele>
<time>2026-04-22T09:17:59-07:00</time>
</trkpt>
<trkpt lat="38.26565" lon="-120.3427">
<ele>1181.1</ele>
<time>2026-04-22T09:18:00-07:00</time>
</trkpt>
<trkpt lat="38.2658" lon="-120.34271">
<ele>1180.9</ele>
<time>2026-04-22T09:18:01-07:00</time>
</trkpt>
<trkpt lat="38.26634" lon="-120.34289">
<ele>1182.8</ele>
<time>2026-04-22T09:18:02-07:00</time>
</trkpt>
</trkseg>
</trk>
</gpx>
